     2              OBSERVATION DATA    GPS                 RINEX VERSION / TYPE
ASHTORIN MIT 05 - JUN - 97 22:08                            PGM / RUN BY / DATE
                                                            COMMENT
China Lake 97 #1 Ashtech Z12                                COMMENT
Original Marker Name: GS27                                  COMMENT
Campaign Name: China Lake May 1997                          COMMENT
4-Character Station Name: GS27                              COMMENT
6-Character Antenna Code: ASHGD3                            COMMENT
Vertical Measurement Point: TGP                             COMMENT
Vertical Offset to Rinex Ref. Point: 0.0640                 COMMENT
Radial Measurement Point: RRP                               COMMENT
Radial Offset to Rinex Ref. Point: 0.0000                   COMMENT
Antenna Height from Field Measurement: 0.2410 m             COMMENT
Additional Antenna Identification Info.:                    COMMENT
The Whopper (700718AB)                                      COMMENT
Original XYZ: -2435897.9000 -4555584.6800 3731282.9400      COMMENT
New XYZ position is based on association with SCEC monument COMMENT
E1F4O1V7+0011. Position of that monument is believed to be  COMMENT
valid to within 1 m horizontally; vertical accuracy         COMMENT
should be no worse than 3-times this value.                 COMMENT
                                                            COMMENT
Revised Rinex header created by UCSD GPS archive for        COMMENT
GSAC on 01-Aug-2000 (2000:214) 21:27:46 GMT                 COMMENT
For assistance contact dagnew@ucsd.edu                      COMMENT
or anderson@python.ucsd.edu                                 COMMENT
                                                            COMMENT
GO27                                                        MARKER NAME
gs27                                                        MARKER NUMBER
LCS US DEFENSE MAPPING AGENCY                               OBSERVER / AGENCY
434 ASHTECH Z-XII3 1G001C7                                  REC # / TYPE / VERS
103 ASHTECH GEODETIC III                                    ANT # / TYPE
 -2380863.5182 -4582616.5349  3734134.6946                  APPROX POSITION XYZ
        0.1770        0.0000        0.0000                  ANTENNA: DELTA H/E/N
     1     1     0                                          WAVELENGTH FACT L1/2
     7    L1    L2    C1    P1    P2    D1    D2            # / TYPES OF OBSERV
    30                                                      INTERVAL
  1997     5     5    15    31    0.000000                  TIME OF FIRST OBS
  1997     5     5    21    29   60.000000                  TIME OF LAST OBS
                                                            END OF HEADER
 97  5  5 15 31  0.0000000  0  8 26  2 19 18 31  7 27 10            -0.001096192
    -65488.28119    -35086.17952  22759875.344           0.0005          0.0005
      3149.470        2454.132
    -32323.13819    -18808.84458  20025235.454           0.0005   20025242.4365
      1212.695         944.957
     33686.55019     17396.21055  20519572.703           0.0005          0.0005
     -1580.274       -1231.382
     71297.72219     21477.38252  23174634.736           0.0005          0.0005
     -3338.411       -2601.359
     57042.45619     31280.07552  22477547.602           0.0005          0.0005
     -2812.015       -2191.180
    -74229.17019    -40647.41457  21242682.096           0.0005   21242690.6295
      3648.122        2842.692
    -17602.96419     -9228.98658  18909101.270           0.0005   18909106.4995
       825.160         642.982
     40121.82119     10894.72452  23775663.974           0.0005          0.0005
     -1694.161       -1320.125
 97  5  5 15 31 30.0000000  0  8 26  2 19 18 31  7 27 10            -0.001101672
   -159809.144 9   -108582.43656  22741922.241           0.0004          0.0005
      3138.342        2445.461
    -68600.031 9    -47076.55048  20018332.539    20018333.1295   20018339.2204
      1205.589         939.420
     81257.986 9     54020.27156  20528623.061           0.0004          0.0005
     -1591.450       -1240.091
    171458.996 9     99525.58755  23193691.967           0.0004          0.0005
     -3339.260       -2602.021
    141541.122 9     97123.39256  22493631.333           0.0005   22493633.7565
     -2821.456       -2198.537
   -183522.111 9   -125810.67447  21221882.307    21221885.3845   21221893.1624
      3638.001        2834.806
    -42166.977 9    -28369.78748  18904424.637    18904426.7205   18904432.0714
       812.276         632.942
     91025.022 9     50559.74056  23785350.997           0.0004          0.0005
     -1699.546       -1324.322
 97  5  5 15 32  0.0000000  0  9 26  2 19 18 31  7 27 10 15         -0.001135226
   -253755.738 9   -181787.66956  23623425.489           0.0004   23623431.7125
      3125.457        2435.421
   -104637.598 9    -75157.76348  20910851.232    20910852.8804   20910858.9024
      1197.370         933.016
    129192.508 9     90918.48856  21437122.536           0.0004          0.0005
     -1604.288       -1250.095
    271659.164 9    177603.41356  24112142.140           0.0005   24112149.6345
     -3341.231       -2603.557
    226332.813 9    163194.80046  23409141.226    23409139.8325   23409146.2234
     -2831.868       -2206.650
   -292485.665 9   -210717.28847  22100526.947    22100527.8174   22100535.5054
      3627.298        2826.466
    -66320.342 9    -47190.59748  19799204.614    19799207.8604   19799213.2344
       798.413         622.140
    142104.734 9     90362.01256  24694447.335           0.0005   24694456.6275
     -1705.915       -1329.284
   -183813.32318   -134674.66456  24041954.794           0.0005          0.0005
      2519.108        1962.941
 97  5  5 15 32 30.0000000  0  9 26  2 19 18 31  7 27 10 15          0.000855790
   -347283.072 9   -254666.09546  24205207.191    24205213.0545   24205218.8914
      3110.431        2423.712
   -140404.620 9   -103028.16358  21503628.175    21503631.5795   21503637.5665
      1187.189         925.082
    177536.218 9     15460.36558  22045910.309           0.0005   22045914.6445
     -1618.535       -1261.196
    371944.936 8    255748.07856  24730800.550    24730809.2335   24730817.3985
     -3344.833       -2606.363
    311466.515 9    229532.75055  24024927.060    24024925.5815   24024931.3845
     -2844.159       -2216.228
   -401115.631 9   -295363.94257  22679441.057    22679441.0865   22679448.8875
      3615.291        2817.110
    -90045.270 9    -65677.56158  20394276.966    20394278.1615   20394283.5085
       783.388         610.432
    193405.802 9    130336.81456  25303794.319    25303794.9135   25303804.0385
     -1714.154       -1335.704
   -259175.564 8   -193398.34856  24627188.229           0.0005   24627206.3415
      2505.532        1952.363
 97  5  5 15 33  0.0000000  0  9 26  2 19 18 31  7 27 10 15          0.000846931
   -440373.657 9   -327204.19856  24187494.467    24187498.2624   24187504.5225
      3094.827        2411.553
   -175848.407 9   -130646.68548  21496884.702    21496886.9124   21496892.8574
      1175.030         915.608
    226303.016 9     53460.43148  22055189.303    22055188.4395   22055194.8654
     -1633.238       -1272.653
    472348.464 9    333984.43646  24749911.534    24749915.6275   24749925.6104
     -3349.496       -2609.997
    396987.150 9    296172.14446  24041199.766    24041199.6854   24041205.2134
     -2858.040       -2227.044
   -509386.891 9   -379731.07847  22658837.627    22658837.8364   22658845.5704
      3602.103        2806.834
   -113305.708 9    -83802.58448  20389850.500    20389851.8994   20389857.2304
       766.471         597.250
    244963.190 9    170511.36146  25313605.437    25313606.1555   25313615.2524
     -1723.649       -1343.103
   -334132.246 8   -251806.05656  24612924.976    24612933.2105   24612941.9835
      2490.980        1941.023
 97  5  5 15 33 30.0000000  0  9 26  2 19 18 31  7 27 10 15          0.000838161
   -532986.323 9   -399369.90446  24169871.734    24169875.0355   24169880.8114
      3078.849        2399.103
   -210926.571 9   -157980.31248  21490210.093    21490211.8084   21490217.7124
      1163.085         906.300
    275513.216 9     91805.99748  22064552.521    22064552.8104   22064559.2814
     -1647.892       -1284.072
    572892.248 9    412330.13746  24769045.533    24769049.5764   24769058.2294
     -3353.947       -2613.465
    482922.054 9    363134.34946  24057552.414    24057552.4414   24057558.0604
     -2871.440       -2237.486
   -617269.677 9   -463795.53047  22638307.708    22638308.4644   22638316.0954
      3589.767        2797.221
   -136048.701 9   -101524.39748  20385522.667    20385524.0874   20385529.4084
       749.241         583.824
    296809.313 8    210910.86345  25323471.469    25323472.2104   25323481.0524
     -1733.212       -1350.555
   -408650.088 8   -309871.79746  24598747.396    24598752.4305   24598761.1864
      2476.450        1929.701
 97  5  5 15 34  0.0000000  0  9 26  2 19 18 31  7 27 10 15          0.000829490
   -625091.527 9   -471140.19346  24152345.221    24152347.8594   24152353.8194
      3061.767        2385.792
   -245620.864 9   -185014.82048  21483608.257    21483609.7764   21483615.6114
      1150.060         896.151
    325181.095 9    130508.21048  22074003.691    22074004.2524   22074010.7624
     -1663.083       -1295.909
    673598.774 9    490802.65046  24788210.441    24788213.6894   24788222.0364
     -3359.773       -2618.005
    569279.369 9    430425.74646  24073985.031    24073985.7574   24073991.4054
     -2885.741       -2248.629
   -724761.617 9   -547555.41447  22617852.327    22617853.4004   22617861.0074
      3576.388        2786.796
   -158238.628 9   -118815.25148  20381300.135    20381301.5094   20381306.8394
       730.184         568.975
    348974.197 9    251558.76445  25333398.263    25333399.0404   25333407.7554
     -1744.376       -1359.254
   -482705.518 8   -367577.23546  24584656.042    24584660.1384   24584668.5824
      2460.629        1917.373
 97  5  5 15 34 30.0000000  0  9 26  2 19 18 31  7 27 10 15          0.000820915
   -716700.787 9   -542524.02446  24134912.887    24134915.2104   24134921.1344
      3045.738        2373.302
   -279923.704 9   -211744.29948  21477080.846    21477082.1864   21477087.9994
      1136.914         885.907
    375298.667 9    169560.82848  22083540.530    22083541.3194   22083547.8404
     -1678.051       -1307.572
    774492.503 9    569421.02746  24807410.107    24807413.1164   24807421.5394
     -3366.445       -2623.204
    656072.150 9    498056.44946  24090500.784    24090501.8594   24090507.5064
     -2900.432       -2260.077
   -831842.605 9   -630995.08947  22597475.410    22597476.5294   22597484.1524
      3562.301        2775.819
   -179845.053 9   -135651.42748  20377188.746    20377190.0074   20377195.2724
       710.296         553.477
    401472.393 8    292466.38845  25343388.469    25343389.1914   25343397.9174
     -1755.184       -1367.676
   -556287.505 8   -424913.77446  24570654.599    24570657.8924   24570666.4284
      2444.896        1905.114
 97  5  5 15 35  0.0000000  0  9 26  2 19 18 31  7 27 10 15          0.000812439
   -807821.652 9   -613527.28446  24117573.357    24117575.4414   24117581.4014
      3029.058        2360.305
   -313828.586 9   -238163.68248  21470629.129    21470630.3454   21470636.1184
      1123.754         875.652
    425877.622 9    208972.96048  22093165.197    22093166.2264   22093172.7124
     -1693.747       -1319.803
    875598.054 9    648204.44646  24826650.379    24826652.9534   24826661.3874
     -3373.786       -2628.924
    743311.102 9    566034.81946  24107101.753    24107102.9124   24107108.6384
     -2915.192       -2271.578
   -938492.671 9   -714098.96647  22577180.475    22577181.7144   22577189.3744
      3547.971        2764.653
   -200851.959 9   -152020.44548  20373191.285    20373192.5314   20373197.8034
       690.599         538.129
    454296.219 8    333627.78345  25353440.608    25353441.1424   25353449.9654
     -1766.031       -1376.128
   -629388.949 8   -481875.81746  24556744.580    24556747.1494   24556755.6904
      2428.691        1892.486
 97  5  5 15 35 30.0000000  0  9 26  2 19 18 31  7 27 10 15          0.000804072
   -898438.696 9   -684137.95146  24100329.514    24100331.5354   24100337.5694
      3012.424        2347.343
   -347347.970 9   -264282.67748  21464250.691    21464251.8374   21464257.5684
      1111.216         865.883
    476926.521 9    248751.28348  22102879.375    22102880.5444   22102887.0154
     -1709.076       -1331.748
    976922.152 9    727158.20446  24845932.446    24845934.4434   24845942.9644
     -3380.836       -2634.418
    830975.595 9    634344.77846  24123783.717    24123784.9404   24123790.7034
     -2928.767       -2282.156
  -1044721.388 9   -796874.53247  22556965.744    22556967.0484   22556974.7404
      3534.139        2753.875
   -221284.546 9   -167941.94348  20369303.156    20369304.4164   20369309.6884
       671.891         523.551
    507430.454 8    375031.04145  25363551.722    25363552.2854   25363561.2094
     -1775.901       -1383.819
   -702008.350 8   -538462.23446  24542925.789    24542928.1284   24542936.6294
      2412.911        1880.190
 97  5  5 15 36  0.0000000  0  9 26  2 19 18 31  7 27 10 15          0.000795810
   -988560.211 9   -754362.50046  24083180.102    24083182.0874   24083188.0514
      2995.666        2334.285
   -380497.222 9   -290113.25848  21457942.659    21457943.7714   21457949.4864
      1098.489         855.965
    528427.118 9    288881.57648  22112679.587    22112680.8164   22112687.3114
     -1724.346       -1343.646
   1078461.440 9    806279.63246  24865255.134    24865256.9664   24865265.1804
     -3388.433       -2640.337
    919046.601 9    702971.51446  24140543.015    24140544.3974   24140550.1124
     -2942.852       -2293.131
  -1150521.737 9   -879316.29247  22536832.647    22536833.8324   22536841.5554
      3518.958        2742.045
   -241154.551 9   -183425.06248  20365522.143    20365523.3224   20365528.5644
       652.772         508.654
    560851.431 8    416657.72745  25373717.506    25373717.9724   25373726.8534
     -1785.592       -1391.370
   -774155.314 8   -594680.52346  24529196.988    24529199.1044   24529207.4664
      2396.724        1867.577
 97  5  5 15 36 30.0000000  0  9 26  2 19 18 31  7 27 10 15          0.000787658
  -1078189.495 9   -824203.49847  24066124.399    24066126.2464   24066132.2194
      2979.342        2321.565
   -413268.443 9   -315649.27348  21451706.517    21451707.6294   21451713.3604
      1086.225         846.409
    580375.790 9    329361.02448  22122564.986    22122566.3524   22122572.8774
     -1739.038       -1355.095
   1180210.036 9    885564.11546  24884617.868    24884619.1814   24884627.6984
     -3394.641       -2645.175
   1007530.807 9    771920.21546  24157381.272    24157382.4004   24157388.0324
     -2956.047       -2303.413
  -1255873.680 9   -961408.65247  22516784.767    22516786.0114   22516793.7744
      3504.378        2730.684
   -260471.775 9   -198477.44448  20361846.110    20361847.4214   20361852.6354
       635.055         494.848
    614540.664 8    458493.43346  25383934.456    25383934.8624   25383943.6064
     -1793.791       -1397.759
   -845830.817 8   -650531.43046  24515557.954    24515559.6634   24515568.0354
      2381.505        1855.718
 97  5  5 15 37  0.0000000  0  9 26  2 19 18 31  7 27 10 15          0.000779621
  -1167304.833 9   -893644.02247  24049166.289    24049168.1694   24049174.1584
      2962.129        2308.152
   -445660.211 9   -340889.60648  21445542.600    21445543.6794   21445549.4494
      1073.644         836.606
    632776.517 9    370192.72248  22132536.510    22132537.8694   22132544.4664
     -1753.983       -1366.740
   1282134.141 9    964985.36546  24904013.068    24904014.8104   24904023.4334
     -3399.758       -2649.162
   1096409.115 9    841176.00546  24174294.448    24174295.4364   24174301.0334
     -2968.753       -2313.314
  -1360780.394 9  -1043154.07647  22496821.474    22496822.8514   22496830.6854
      3489.721        2719.263
   -279257.044 9   -213115.31548  20358271.594    20358272.7314   20358277.9464
       617.540         481.200
    668489.910 8    500531.73745  25394200.746    25394201.1714   25394209.9034
     -1802.345       -1404.425
   -917034.881 8   -706014.98046  24502008.839    24502009.9004   24502018.2084
      2365.759        1843.449
 97  5  5 15 37 30.0000000  0  9 26  2 19 18 31  7 27 10 15          0.000771681
  -1255917.445 9   -962692.81947  24032303.875    24032305.7984   24032311.7034
      2945.497        2295.192
   -477686.853 9   -365845.42948  21439448.153    21439449.2444   21439455.0124
      1061.622         827.238
    685613.652 9    411364.47748  22142591.120    22142592.4864   22142599.0824
     -1768.407       -1377.979
   1384190.356 9   1044509.58646  24923433.403    24923435.3104   24923444.0504
     -3403.854       -2652.354
   1185655.958 9    910718.98246  24191277.537    24191278.6294   24191284.2234
     -2981.043       -2322.891
  -1465250.773 9  -1124559.49547  22476941.431    22476942.7694   22476950.6014
      3474.944        2707.749
   -297510.030 9   -227338.42148  20354798.055    20354799.3484   20354804.5184
       599.260         466.956
    722688.417 8    542764.27745  25404514.452    25404514.8524   25404523.6634
     -1810.819       -1411.028
   -987774.181 8   -761136.35046  24488547.166    24488548.4934   24488556.8204
      2350.204        1831.328
 97  5  5 15 38  0.0000000  0  9 26  2 19 18 31  7 27 10 15          0.000763825
  -1344043.887 9  -1031362.76547  24015533.786    24015535.9284   24015541.7554
      2929.699        2282.882
   -509370.622 9   -390534.07848  21433418.942    21433420.0534   21433425.8054
      1050.666         818.701
    738878.159 9    452869.24848  22152726.891    22152728.4484   22152735.0074
     -1782.474       -1388.941
   1486350.337 9   1124114.61646  24942874.139    24942875.7614   24942884.7014
     -3406.472       -2654.394
   1275263.878 9    980543.30446  24208329.330    24208330.5694   24208336.1254
     -2992.792       -2332.046
  -1569281.006 9  -1205621.95947  22457145.083    22457146.4464   22457154.2134
      3460.736        2696.677
   -315222.278 9   -241140.18048  20351427.562    20351428.8724   20351434.0254
       581.824         453.369
    777123.894 8    585181.48546  25414873.217    25414873.5554   25414882.5134
     -1818.052       -1416.664
  -1058054.465 8   -815900.05946  24475173.624    24475174.6054   24475182.8474
      2335.181        1819.622
 97  5  5 15 38 30.0000000  0  9 26  2 19 18 31  7 27 10 15          0.000756041
  -1431697.036 9  -1099663.91747  23998853.942    23998856.1414   23998861.9374
      2914.155        2270.770
   -540737.715 9   -414975.96448  21427450.037    21427451.1254   21427456.8894
      1041.040         811.200
    792559.922 9    494699.15748  22162942.181    22162943.7994   22162950.3144
     -1795.914       -1399.414
   1588563.510 9   1203761.11946  24962324.847    24962326.3044   24962335.3144
     -3407.466       -2655.168
   1365210.599 9   1050631.61746  24225445.430    24225446.8224   24225452.5324
     -3003.314       -2340.245
  -1672906.915 9  -1286369.35947  22437425.659    22437427.0514   22437434.7744
      3448.130        2686.854
   -332427.026 9   -254546.48148  20348153.631    20348154.9374   20348160.0484
       565.408         440.578
    831767.671 8    627761.00846  25425271.530    25425272.0494   25425280.8944
     -1824.482       -1421.674
  -1127890.411 8   -870317.51046  24461883.702    24461885.1374   24461893.4474
      2320.858        1808.461
 97  5  5 15 39  0.0000000  0  9 26  2 19 18 31  7 27 10 15          0.000748312
  -1518892.306 9  -1167608.26947  23982261.481    23982263.4774   23982269.2554
      2899.148        2259.076
   -571834.887 9   -439207.52248  21421532.494    21421533.5534   21421539.3664
      1032.279         804.373
    846632.807 9    536833.83348  22173231.988    22173233.5924   22173240.0634
     -1808.802       -1409.456
   1690802.515 9   1283427.79646  24981780.495    24981781.9514   24981790.7404
     -3408.460       -2655.943
   1455468.235 9   1120962.20346  24242621.233    24242622.3014   24242628.1464
     -3013.813       -2348.426
  -1776169.664 9  -1366833.77348  22417775.403    22417776.8094   22417784.4734
      3436.178        2677.541
   -349141.166 9   -267570.48348  20344973.175    20344974.3874   20344979.5174
       548.866         427.688
    886591.716 9    670481.00146  25435704.195    25435704.8304   25435713.7014
     -1830.310       -1426.216
  -1197302.870 8   -924404.96946  24448675.292    24448676.3214   24448684.8014
      2306.794        1797.502
 97  5  5 15 39 30.0000000  0  9 26  2 19 18 31  7 27 10 15          0.000740619
  -1605655.586 9  -1235216.01247  23965751.069    23965753.0164   23965758.7614
      2885.011        2248.061
   -602693.995 9   -463253.57348  21415660.102    21415661.1944   21415667.1034
      1024.843         798.579
    901068.106 9    579250.91748  22183590.730    22183592.3734   22183598.8064
     -1820.292       -1418.409
   1793058.810 9   1363107.92746  25001239.533    25001240.8414   25001249.4144
     -3408.716       -2656.142
   1546026.155 9   1191526.78346  24259854.013    24259854.8404   24259860.8134
     -3023.378       -2355.879
  -1879093.578 9  -1447034.17048  22398189.679    22398191.0634   22398198.6884
      3425.489        2669.212
   -365369.392 9   -280215.85448  20341884.881    20341886.2414   20341891.3824
       533.197         415.478
    941569.792 8    713321.00246  25446166.246    25446166.8794   25446175.7104
     -1834.986       -1429.859
  -1266307.841 8   -978174.90746  24435543.809    24435544.9564   24435553.4954
      2293.596        1787.218
 97  5  5 15 40  0.0000000  0  9 26  2 19 18 31  7 27 10 15          0.000732968
  -1691983.810 9  -1302484.76147  23949323.469    23949325.3494   23949331.0594
      2870.513        2236.763
   -633313.132 9   -487112.63348  21409833.459    21409834.5634   21409840.5194
      1016.652         792.196
    955857.360 9    621943.80748  22194016.855    22194018.4964   22194024.8614
     -1831.857       -1427.421
   1895332.097 9   1442801.24045  25020701.531    25020702.7874   25020711.7594
     -3409.193       -2656.514
   1636876.463 9   1262319.20446  24277141.843    24277143.1294   24277149.0064
     -3032.986       -2363.366
  -1981695.073 9  -1526983.33048  22378665.326    22378666.7194   22378674.1924
      3414.968        2661.014
   -381132.131 9   -292498.50348  20338885.349    20338886.7114   20338891.8694
       518.053         403.678
    996685.998 9    756268.64346  25456654.488    25456655.2294   25456664.0464
     -1839.120       -1433.081
  -1334911.836 8  -1031632.39746  24422488.903    24422489.9794   24422498.5294
      2280.364        1776.907
 97  5  5 15 40 30.0000000  0  9 26  2 19 18 31  7 27 10 15          0.000725356
  -1777879.792 9  -1369416.68147  23932978.017    23932979.9164   23932985.6594
      2856.031        2225.479
   -663688.862 9   -510782.02948  21404053.122    21404054.2344   21404060.2464
      1008.296         785.685
   1010979.797 9    664896.32348  22204506.478    22204508.0164   22204514.3574
     -1842.955       -1436.069
   1997622.715 9   1522508.12046  25040167.029    25040168.1554   25040177.1584
     -3410.503       -2657.535
   1728000.614 9   1333324.99846  24294482.316    24294483.5044   24294489.3554
     -3042.068       -2370.443
  -2083990.159 9  -1606693.72948  22359199.309    22359200.6194   22359207.9954
      3404.429        2652.802
   -396444.943 9   -304430.56648  20335971.384    20335972.7594   20335977.9644
       502.680         391.699
   1051921.809 9    799309.49046  25467165.566    25467166.2064   25467175.1294
     -1843.319       -1436.352
  -1403128.970 8  -1084788.45146  24409507.380    24409508.6484   24409517.1874
      2267.375        1766.786
 97  5  5 15 41  0.0000000  0  9 26  2 19 18 31  7 27 10 15          0.000717760
  -1863365.812 9  -1436029.16447  23916710.622    23916712.5424   23916718.1984
      2842.427        2214.878
   -693816.505 9   -534258.11048  21398320.048    21398321.1624   21398327.1534
       999.450         778.792
   1066422.738 9    708098.57848  22215056.940    22215058.5394   22215064.8304
     -1853.931       -1444.621
   2099947.474 9   1602241.62546  25059638.911    25059640.0184   25059648.7444
     -3411.852       -2658.586
   1819380.744 9   1404530.25546  24311871.655    24311872.5944   24311878.3894
     -3050.679       -2377.152
  -2185973.330 9  -1686161.08248  22339792.502    22339793.8354   22339801.1734
      3393.642        2644.396
   -411303.765 9   -316008.87148  20333143.907    20333145.2564   20333150.4394
       487.291         379.707
   1107270.011 9    842437.91046  25477698.262    25477698.7504   25477707.6744
     -1847.208       -1439.383
  -1470969.055 8  -1137650.72446  24396597.637    24396599.0514   24396607.5124
      2254.570        1756.808
 97  5  5 15 41 30.0000000  0  9 26  2 19 18 31  7 27 10 15          0.000710189
  -1948441.367 9  -1502321.78947  23900521.361    23900523.3004   23900528.8754
      2829.185        2204.560
   -723664.546 9   -557516.32448  21392640.217    21392641.3114   21392647.2394
       990.201         771.585
   1122204.985 9    751565.22548  22225671.978    22225673.6054   22225679.8814
     -1865.016       -1453.259
   2202323.887 9   1682015.29945  25079120.847    25079121.8414   25079130.6914
     -3413.190       -2659.629
   1911023.196 9   1475939.90446  24329310.243    24329311.5504   24329317.5134
     -3058.911       -2383.567
  -2287619.537 9  -1765365.85348  22320449.850    22320451.1654   22320458.5174
      3382.710        2635.878
   -425704.023 9   -327229.85348  20330403.657    20330405.0174   20330410.1864
       472.679         368.321
   1162742.606 9    885663.26346  25488254.367    25488254.8964   25488263.7464
     -1851.106       -1442.420
  -1538419.840 8  -1190209.63746  24383762.302    24383763.3914   24383771.8884
      2242.013        1747.023
 97  5  5 15 42  0.0000000  0  9 26  2 19 18 31  7 27 10 15          0.000702636
  -2033124.492 9  -1568308.61447  23884406.857    23884408.6404   23884414.2164
      2816.679        2194.815
   -753236.778 9   -580559.61848  21387012.870    21387013.9254   21387019.8354
       981.801         765.040
   1178314.371 9    795286.79148  22236349.315    22236350.9554   22236357.1614
     -1875.127       -1461.138
   2304733.833 9   1761815.16146  25098608.887    25098609.8334   25098618.7004
     -3413.753       -2660.067
   2002905.873 9   1547536.75946  24346795.084    24346796.3484   24346802.1554
     -3066.305       -2389.329
  -2388938.564 9  -1844315.69948  22301169.375    22301170.7534   22301178.0594
      3372.210        2627.696
   -439673.673 9   -338115.30248  20327745.385    20327746.7414   20327751.8434
       458.845         357.542
   1218325.971 9    928974.91946  25498831.581    25498832.1534   25498840.9854
     -1854.094       -1444.749
  -1605498.921 8  -1242478.94446  24370997.348    24370998.5394   24371006.9594
      2230.215        1737.830
 97  5  5 15 42 30.0000000  0  8 26  2 19 18 31  7 27 15             0.000695093
  -2117426.328 9  -1633998.34047  23868364.632    23868366.5404   23868372.1244
      2803.992        2184.929
   -782558.245 9   -603407.51248  21381433.219    21381434.2924   21381440.1524
       973.564         758.621
   1234733.860 9    839249.99248  22247085.805    22247087.3164   22247093.4904
     -1885.790       -1469.447
   2407166.570 9   1841632.76746  25118100.910    25118102.2224   25118111.1304
     -3414.512       -2660.659
   2095014.330 9   1619309.54246  24364322.712    24364324.0644   24364329.8694
     -3073.908       -2395.253
  -2489931.903 9  -1923011.75348  22281950.833    22281952.3384   22281959.5904
      3361.112        2619.048
   -453215.889 9   -348667.67948  20325168.516    20325169.7824   20325174.8614
       444.536         346.392
  -1672212.967 8  -1294463.80946  24358302.178    24358303.2294   24358311.4854
      2217.792        1728.150
 97  5  5 15 43  0.0000000  0  8 26  2 19 18 31  7 27 15             0.000687560
  -2201364.468 9  -1699404.67847  23852391.765    23852393.5734   23852399.2384
      2792.112        2175.672
   -811655.659 9   -626080.82248  21375896.234    21375897.3064   21375903.0944
       966.633         753.221
   1291461.438 9    883453.26248  22257880.682    22257882.3014   22257888.4824
     -1895.811       -1477.255
   2509592.222 9   1921444.84845  25137592.013    25137593.3804   25137602.3474
     -3413.526       -2659.890
   2187340.465 9   1691251.93446  24381892.430    24381893.2734   24381898.9874
     -3080.965       -2400.752
  -2590607.552 9  -2001460.25748  22262792.999    22262794.3614   22262801.5684
      3350.784        2611.001
   -466349.954 9   -358902.01848  20322669.210    20322670.4714   20322675.5434
       431.354         336.120
  -1738566.246 8  -1346167.57646  24345675.483    24345676.6724   24345684.8564
      2205.977        1718.943
 97  5  5 15 43 30.0000000  0  8 26  2 19 18 31  7 27 15             0.000680030
  -2284952.907 9  -1764538.52947  23836485.426    23836487.1804   23836492.7434
      2780.522        2166.640
   -840566.718 9   -648608.92148  21370394.759    21370395.7894   21370401.5244
       960.789         748.667
   1348474.357 9    927878.87147  22268729.918    22268731.5284   22268737.7324
     -1905.049       -1484.454
   2611966.084 8   2001216.57345  25157073.627    25157074.4434   25157083.5344
     -3411.233       -2658.104
   2279867.777 9   1763351.10046  24399499.809    24399500.8024   24399506.4054
     -3087.436       -2405.794
  -2690984.263 9  -2079675.82848  22243691.938    22243693.3094   22243700.4834
      3341.061        2603.424
   -479107.198 9   -368842.72948  20320241.620    20320242.8324   20320247.9434
       418.976         326.475
  -1804578.809 9  -1397605.85946  24333113.701    24333114.8324   24333123.0274
      2194.847        1710.270
 97  5  5 15 44  0.0000000  0  8 26  2 19 18 31  7 27 15             0.000672496
  -2368192.594 9  -1829400.61347  23820645.443    23820647.1354   23820652.7414
      2768.829        2157.529
   -869311.108 9   -671007.14548  21364924.953    21364925.9474   21364931.6624
       955.541         744.577
   1405759.388 9    972516.52047  22279630.969    22279632.5524   22279638.8164
     -1913.927       -1491.372
   2714261.209 9   2080926.99346  25176540.160    25176540.7164   25176549.6844
     -3408.458       -2655.941
   2372577.478 9   1835592.38846  24417142.201    24417143.0114   24417148.5314
     -3093.350       -2410.403
  -2791068.905 9  -2157663.80848  22224646.418    22224647.7624   22224654.9864
      3331.183        2595.727
   -491487.188 9   -378489.47748  20317885.783    20317887.0274   20317892.1404
       406.323         316.615
  -1870257.533 9  -1448784.02846  24320615.411    24320616.6064   24320624.6654
      2183.660        1701.553
 97  5  5 15 44 30.0000000  0  8 26  2 19 18 31  7 27 15             0.000664955
  -2451096.183 9  -1894000.79247  23804869.412    23804871.0904   23804876.6934
      2757.935        2149.040
   -897907.352 9   -693289.93348  21359483.255    21359484.2684   21359489.9864
       950.630         740.751
   1463309.778 9   1017360.93547  22290582.473    22290584.0894   22290590.3704
     -1923.057       -1498.486
   2816460.780 8   2160562.92045  25195988.342    25195988.7884   25195997.8274
     -3405.098       -2653.323
   2465456.158 9   1907965.34746  24434816.580    24434817.3494   24434822.7894
     -3098.899       -2414.726
  -2890859.084 9  -2235422.33948  22205656.931    22205658.3054   22205665.5104
      3321.313        2588.036
   -503499.931 9   -387850.05948  20315599.868    20315601.0824   20315606.2324
       394.380         307.309
  -1935606.643 8  -1499705.34846  24308179.985    24308181.0484   24308189.1074
      2172.658        1692.980
 97  5  5 15 45  0.0000000  0  8 26  2 19 18 31  7 27 15             0.000657407
  -2533672.141 9  -1958345.68047  23789155.618    23789157.4024   23789163.0194
      2747.284        2140.741
   -926351.206 9   -715453.97148  21354070.497    21354071.5564   21354077.3074
       945.897         737.062
   1521134.838 9   1062419.37947  22301586.344    22301587.8914   22301594.1164
     -1931.664       -1505.193
   2918560.119 8   2240120.74145  25215416.901    25215417.7084   25215427.1174
     -3401.428       -2650.463
   2558504.677 9   1980470.63346  24452523.216    24452523.9064   24452529.4394
     -3103.936       -2418.651
  -2990353.093 9  -2312950.09048  22186723.845    22186725.1664   22186732.3984
      3311.959        2580.747
   -515150.770 9   -396928.64548  20313382.881    20313384.0664   20313389.1804
       382.427         297.995
  -2000625.950 9  -1550369.70246  24295806.940    24295808.2774   24295816.2404
      2162.176        1684.812
 97  5  5 15 45 30.0000000  0  8 26  2 19 18 31  7 27 15             0.000649838
  -2615912.925 9  -2022429.38847  23773505.820    23773507.5594   23773513.2084
      2735.782        2131.778
   -954636.129 9   -737494.17048  21348688.012    21348689.0844   21348694.8854
       940.073         732.524
   1579223.502 9   1107683.23147  22312640.137    22312641.8274   22312648.0654
     -1940.375       -1511.981
   3020567.658 9   2319607.04745  25234828.452    25234829.2754   25234838.5054
     -3398.671       -2648.315
   2651706.223 9   2053095.17446  24470258.910    24470259.5394   24470265.1854
     -3109.077       -2422.657
  -3089561.618 9  -2390255.39048  22167844.967    22167846.3724   22167853.6304
      3302.407        2573.304
   -526421.020 9   -405710.66248  20311238.209    20311239.4354   20311244.5544
       369.265         287.739
  -2065318.077 9  -1600779.11946  24283496.589    24283497.7394   24283505.5724
      2150.962        1676.074
 97  5  5 15 46  0.0000000  0  8 26  2 19 18 31  7 27 15             0.000642237
  -2697815.831 9  -2086249.82647  23757920.327    23757921.9954   23757927.5964
      2724.656        2123.109
   -982760.293 9   -759409.09848  21343336.139    21343337.2084   21343343.0304
       935.231         728.751
   1637549.170 9   1153131.75947  22323739.143    22323740.8224   22323747.1434
     -1947.683       -1517.675
   3122476.138 8   2399016.17845  25254220.744    25254221.7834   25254231.1374
     -3394.997       -2645.452
   2745041.541 9   2125823.95146  24488019.964    24488020.6144   24488026.2874
     -3113.161       -2425.840
  -3188496.130 9  -2467347.16348  22149018.256    22149019.7314   22149026.9914
      3293.522        2566.381
   -537311.199 9   -414196.52348  20309165.892    20309167.1484   20309172.2614
       357.143         278.293
  -2129683.118 9  -1650933.65146  24271248.549    24271249.5714   24271257.2134
      2140.344        1667.801
 97  5  5 15 46 30.0000000  0  8 26  2 19 18 31  7 27 15             0.000634607
  -2779376.805 9  -2149803.84247  23742399.767    23742401.4714   23742406.9994
      2712.339        2113.511
  -1010734.790 9   -781207.40148  21338012.814    21338013.8164   21338019.6844
       929.412         724.217
   1696102.656 9   1198757.80547  22334881.482    22334883.1864   22334889.5484
     -1956.084       -1524.221
   3224283.464 8   2478346.46345  25273595.093    25273595.2464   25273604.7704
     -3392.339       -2643.381
   2838506.880 9   2198654.04546  24505805.579    24505806.4964   24505812.1964
     -3118.141       -2429.720
  -3287162.141 9  -2544229.72648  22130242.634    22130244.1724   22130251.4294
      3284.056        2559.005
   -547834.219 9   -422396.28348  20307163.432    20307164.6854   20307169.8224
       344.037         268.081
  -2193723.665 9  -1700835.33346  24259062.104    24259063.1054   24259070.7514
      2128.724        1658.746
 97  5  5 15 47  0.0000000  0  8 26  2 19 18 31  7 27 15             0.000626940
  -2860580.660 9  -2213079.57447  23726947.128    23726948.8304   23726954.3034
      2700.733        2104.467
  -1038550.883 9   -802882.27548  21332719.618    21332720.6204   21332726.4934
       924.504         720.393
   1754870.849 9   1244551.16547  22346064.845    22346066.4694   22346072.8454
     -1962.310       -1529.073
   3325987.333 8   2557596.16645  25292949.415    25292948.9104   25292958.3724
     -3388.418       -2640.326
   2932096.639 9   2271581.07846  24523614.469    24523615.9744   24523621.6834
     -3121.592       -2432.409
  -3385574.762 9  -2620914.83048  22111515.353    22111516.8504   22111524.1144
      3276.290        2552.953
   -557980.875 9   -430302.77248  20305232.570    20305233.8424   20305238.9814
       331.890         258.615
  -2257438.089 9  -1750482.89846  24246937.842    24246938.6434   24246946.2924
      2118.343        1650.657
 97  5  5 15 47 30.0000000  0  8 26  2 19 18 31  7 27 15             0.000619239
  -2941409.610 9  -2276063.18347  23711565.744    23711567.5454   23711572.9294
      2688.077        2094.605
  -1066187.347 9   -824417.17948  21327460.616    21327461.6314   21327467.4594
       918.023         715.343
   1813843.435 9   1290503.78247  22357287.107    22357288.6674   22357295.0514
     -1969.204       -1534.445
   3427586.879 8   2636764.55545  25312283.074    25312282.7784   25312292.3094
     -3384.823       -2637.524
   3025816.325 9   2344609.35546  24541448.831    24541450.3094   24541455.9024
     -3126.532       -2436.259
  -3483728.351 9  -2697398.09748  22092837.402    22092838.8374   22092846.1354
      3267.260        2545.917
   -567742.353 9   -437909.12248  20303375.009    20303376.2814   20303381.4564
       319.107         248.655
  -2320815.136 9  -1799867.56846  24234877.650    24234878.3214   24234885.9694
      2106.755        1641.627
 97  5  5 15 48  0.0000000  0  8 26  2 19 18 31  7 27 15             0.000611516
  -3021871.351 9  -2338760.66647  23696254.310    23696256.1894   23696261.5354
      2675.746        2084.997
  -1093641.769 9   -845810.23848  21322236.219    21322237.2264   21322243.0394
       912.087         710.717
   1873023.904 9   1336618.38147  22368548.861    22368550.3824   22368556.7884
     -1976.667       -1540.260
   3529073.208 8   2715844.72945  25331595.155    25331594.9734   25331604.6094
     -3381.384       -2634.845
   3119679.601 9   2417749.52546  24559310.669    24559311.9814   24559317.5914
     -3131.431       -2440.076
  -3581613.779 9  -2773672.41148  22074210.474    22074211.8424   22074219.1274
      3258.190        2538.849
   -577140.162 9   -445232.10048  20301586.686    20301587.9504   20301593.1534
       307.059         239.267
  -2383852.113 9  -1848987.24546  24222882.163    24222882.7564   24222890.3584
      2095.429        1632.802
 97  5  5 15 48 30.0000000  0  8 26  2 19 18 31  7 27 15             0.000603768
  -3101968.521 9  -2401174.02447  23681012.407    23681014.2264   23681019.5844
      2663.201        2075.222
  -1120920.205 9   -867066.16048  21317045.345    21317046.3534   21317052.1174
       905.528         705.606
   1932434.347 9   1382912.19047  22379854.343    22379855.8374   22379862.2994
     -1984.847       -1546.634
   3630458.007 8   2794845.79445  25350886.713    25350887.7024   25350897.3114
     -3378.558       -2632.642
   3213693.388 9   2491006.98446  24577200.913    24577202.2444   24577207.8894
     -3137.080       -2444.478
  -3679238.092 9  -2849743.25748  22055633.228    22055634.5854   22055641.8524
      3249.267        2531.896
   -586170.960 9   -452269.08948  20299868.180    20299869.4664   20299874.6594
       293.994         229.086
  -2446550.184 9  -1897842.84546  24210951.070    24210951.6684   24210959.2684
      2083.507        1623.512
 97  5  5 15 49  0.0000000  0  8 26  2 19 18 31  7 27 15             0.000595987
  -3181699.992 9  -2463302.44347  23665840.149    23665841.8904   23665847.2544
      2652.190        2066.642
  -1148008.899 9   -888174.23848  21311890.536    21311891.5884   21311897.3184
       900.518         701.702
   1992076.829 9   1429386.79647  22391203.896    22391205.4784   22391211.9834
     -1991.504       -1551.821
   3731751.909 8   2873776.02745  25370161.846    25370163.5544   25370173.0494
     -3374.441       -2629.435
   3307865.454 9   2564387.76046  24595121.585    24595122.6814   24595128.4234
     -3141.284       -2447.754
  -3776605.973 9  -2925614.28648  22037104.759    22037106.1024   22037113.3504
      3241.614        2525.933
   -594815.429 9   -459005.04648  20298223.315    20298224.5304   20298229.6944
       282.152         219.859
  -2508898.737 9  -1946426.09346  24199086.588    24199087.1874   24199094.6814
      2072.895        1615.243
 97  5  5 15 49 30.0000000  0  8 26  2 19 18 31  7 27 15             0.000588170
  -3261078.880 9  -2525156.12047  23650734.904    23650736.6484   23650742.0014
      2640.224        2057.317
  -1174939.188 9   -909158.87348  21306765.856    21306766.9334   21306772.6814
       895.369         697.690
   2051950.215 9   1476041.32347  22402597.461    22402599.0554   22402605.6084
     -1999.791       -1558.279
   3832947.620 8   2952629.78645  25389418.767    25389420.2624   25389430.0494
     -3371.556       -2627.186
   3402191.780 9   2637888.76046  24613071.372    24613072.4484   24613078.3224
     -3146.785       -2452.040
  -3873715.879 9  -3001284.29648  22018625.357    22018626.7254   22018633.9324
      3232.642        2518.942
   -603075.562 9   -465441.51748  20296651.453    20296652.6914   20296657.8674
       268.795         209.451
  -2570900.127 8  -1994738.82646  24187288.193    24187288.5854   24187296.2334
      2060.850        1605.857
 97  5  5 15 50  0.0000000  0  8 26  2 19 18 31  7 27 15             0.000580326
  -3340089.952 9  -2586723.17847  23635699.669    23635701.3704   23635706.7134
      2627.536        2047.431
  -1201723.424 9   -930029.71448  21301668.989    21301670.0814   21301675.8204
       890.619         693.989
   2112091.972 9   1522904.98247  22414042.108    22414043.6964   22414050.2784
     -2009.209       -1565.617
   3934072.015 8   3031427.93445  25408662.163    25408663.6004   25408673.5214
     -3369.471       -2625.562
   3496679.279 9   2711515.32046  24631051.802    24631052.9074   24631058.7884
     -3151.941       -2456.058
  -3970546.358 9  -3076736.57348  22000199.280    22000200.5354   22000207.6864
      3223.021        2511.445
   -610919.669 9   -471553.81748  20295158.892    20295160.0414   20295165.1964
       254.409         198.241
  -2632532.442 9  -2042763.97946  24175559.500    24175560.2284   24175567.9524
      2048.326        1596.098
 97  5  5 15 50 30.0000000  0  8 26  2 19 18 31  7 27 15             0.000572441
  -3418741.857 9  -2648010.36747  23620732.675    23620734.4294   23620739.8234
      2615.733        2038.234
  -1228381.602 9   -950802.31648  21296596.150    21296597.1984   21296602.9374
       886.160         690.514
   2172489.342 9   1569967.80647  22425535.481    22425536.9934   22425543.5534
     -2017.522       -1572.095
   4035105.663 8   3110155.40745  25427887.867    25427889.8064   25427899.6094
     -3366.148       -2622.972
   3591293.804 9   2785240.89046  24649056.336    24649057.5534   24649063.4974
     -3155.945       -2459.178
  -4067104.563 9  -3151976.69248  21981824.836    21981826.1184   21981833.2334
      3213.769        2504.236
   -618344.389 9   -477339.32048  20293746.047    20293747.2174   20293752.3644
       240.400         187.325
  -2693807.845 8  -2090511.00446  24163898.864    24163899.7794   24163907.5744
      2036.327        1586.748
 97  5  5 15 51  0.0000000  0  8 26  2 19 18 31  7 27 15             0.000564503
  -3497030.664 9  -2709014.61247  23605834.963    23605836.6214   23605842.0174
      2603.971        2029.068
  -1254895.431 9   -971462.43848  21291550.702    21291551.7664   21291557.5264
       881.807         687.122
   2233149.896 9   1617235.72147  22437078.806    22437080.4044   22437086.9384
     -2026.159       -1578.825
   4136042.871 8   3188807.70545  25447095.646    25447097.5234   25447107.5114
     -3362.650       -2620.247
   3686029.853 9   2859061.13346  24667084.171    24667085.1804   24667091.1974
     -3159.494       -2461.943
  -4163360.455 9  -3226981.23248  21963507.862    21963509.2714   21963516.3424
      3203.586        2496.301
   -625345.831 9   -482794.99248  20292413.678    20292414.9164   20292420.0614
       226.878         176.788
  -2754712.461 9  -2137969.11646  24152309.226    24152309.9704   24152317.8574
      2024.362        1577.425
 97  5  5 15 51 30.0000000  0  8 26  2 19 18 31  7 27 15             0.000556561
  -3574968.879 9  -2769745.68447  23591003.698    23591005.4624   23591010.8614
      2592.146        2019.854
  -1281275.346 9   -992018.21148  21286530.780    21286531.8624   21286537.6214
       876.849         683.259
   2294076.789 9   1664711.16747  22448672.820    22448674.4024   22448680.9554
     -2035.454       -1586.068
   4236863.527 8   3267369.19345  25466281.486    25466283.1984   25466293.0544
     -3358.722       -2617.186
   3780863.686 9   2932957.58446  24685130.541    24685131.6004   24685137.5474
     -3162.778       -2464.502
  -4259306.177 9  -3301744.09248  21945250.123    21945251.4524   21945258.4124
      3193.017        2488.065
   -631949.907 9   -487941.03048  20291157.092    20291158.2284   20291163.3664
       213.559         166.410
  -2815256.851 8  -2185146.53546  24140787.796    24140788.7764   24140796.6694
      2012.168        1567.923
 97  5  5 15 52  0.0000000  0  8 26  2 19 18 31  7 27 15             0.000548612
  -3652536.987 9  -2830188.34247  23576242.927    23576244.7984   23576250.1994
      2579.742        2010.189
  -1307481.620 9  -1012438.68548  21281543.926    21281544.9804   21281550.7524
       870.919         678.638
   2355296.518 9   1712414.79247  22460322.592    22460324.1804   22460330.6954
     -2044.770       -1593.327
   4337579.777 8   3345849.34545  25485447.441    25485448.9964   25485458.7524
     -3354.764       -2614.102
   3875808.256 9   3006940.30946  24703197.862    24703198.9334   24703205.0644
     -3166.149       -2467.129
  -4354917.277 9  -3376246.20048  21927055.993    21927057.2684   21927064.2024
      3181.839        2479.355
   -638150.753 9   -492772.86348  20289977.083    20289978.2794   20289983.4034
       200.790         156.460
  -2875424.649 9  -2232030.51246  24129338.200    24129339.2084   24129347.0704
      1999.912        1558.373
 97  5  5 15 52 30.0000000  0  7 26  2 19 31  7 27 15                0.000540662
  -3729726.572 9  -2890336.05947  23561554.418    23561556.1354   23561561.5244
      2566.676        2000.007
  -1333505.416 9  -1032716.96648  21276591.796    21276592.8344   21276598.6624
       864.406         673.563
   2416783.618 9   1760326.76847  22472023.262    22472024.8444   22472031.2904
     -2053.886       -1600.431
   3970862.303 9   3081008.33146  24721285.382    24721287.0774   24721293.2474
     -3170.530       -2470.543
  -4450192.446 9  -3450486.55348  21908925.557    21908926.9804   21908933.8734
      3170.357        2470.408
   -643978.199 9   -497313.73448  20288868.135    20288869.3514   20288874.5204
       188.125         146.591
  -2935222.942 9  -2278626.55946  24117958.919    24117959.9124   24117967.7744
      1987.078        1548.372
 97  5  5 15 53  0.0000000  0  7 26  2 19 31  7 27 15                0.000532719
  -3806521.828 9  -2950176.51547  23546940.843    23546942.5074   23546947.8474
      2552.997        1989.348
  -1359342.728 9  -1052849.93148  21271675.057    21271676.1434   21271682.0374
       858.160         668.696
   2478540.828 9   1808449.21747  22483775.244    22483776.9284   22483783.3164
     -2063.154       -1607.652
   4066050.033 9   3155180.53946  24739399.242    24739400.7874   24739406.8504
     -3175.491       -2474.409
  -4545132.249 9  -3524465.57848  21890859.151    21890860.5294   21890867.3654
      3159.138        2461.666
   -649428.760 9   -501560.92948  20287830.982    20287832.1264   20287837.3214
       175.126         136.462
  -2994639.900 9  -2324925.46746  24106652.213    24106653.2224   24106661.0994
      1974.031        1538.206
 97  5  5 15 53 30.0000000  0  7 26  2 19 31  7 27 15                0.000524780
  -3882905.135 9  -3009695.96147  23532405.489    23532407.2844   23532412.6244
      2539.162        1978.568
  -1385002.640 9  -1072844.66048  21266792.067    21266793.2034   21266799.1664
       852.453         664.249
   2540561.783 9   1856777.18347  22495577.610    22495579.2024   22495585.5524
     -2071.647       -1614.270
   4161387.127 9   3229469.14146  24757541.480    24757542.8744   24757548.9034
     -3180.545       -2478.347
  -4639749.345 9  -3598193.14348  21872854.110    21872855.4624   21872862.2604
      3148.570        2453.431
   -654486.142 9   -505501.75648  20286868.592    20286869.7664   20286874.9714
       161.733         126.026
  -3053670.053 9  -2370922.97846  24095418.991    24095420.1144   24095428.0794
      1961.138        1528.159
 97  5  5 15 54  0.0000000  0  7 26  2 19 31  7 27 15                0.000516836
  -3958869.139 9  -3068888.67947  23517950.034    23517951.8404   23517957.1854
      2525.100        1967.610
  -1410495.785 9  -1092709.44248  21261940.941    21261942.0104   21261947.9974
       847.107         660.083
   2602825.822 9   1905294.56347  22507426.033    22507427.7194   22507434.0504
     -2079.230       -1620.179
   4256876.193 9   3303876.15546  24775712.268    24775713.8374   24775719.8404
     -3185.272       -2482.030
  -4734048.482 9  -3671672.95048  21854909.497    21854910.8844   21854917.6654
      3138.019        2445.210
   -659133.599 9   -509123.15648  20285984.145    20285985.3764   20285990.5824
       148.102         115.404
  -3112313.658 9  -2416619.27746  24084259.457    24084260.6074   24084268.5094
      1948.310        1518.164
 97  5  5 15 54 30.0000000  0  7 26  2 19 31  7 27 15                0.000508876
  -4034417.731 9  -3127757.70647  23503573.773    23503575.4304   23503580.7774
      2511.933        1957.350
  -1435832.920 9  -1112452.66048  21257119.548    21257120.5644   21257126.5484
       842.337         656.366
   2665317.126 9   1953989.02947  22519317.956    22519319.4684   22519325.7694
     -2086.630       -1625.945
   4352503.882 9   3378391.17646  24793909.762    24793911.2334   24793917.1674
     -3189.643       -2485.436
  -4828036.572 9  -3744910.38048  21837024.146    21837025.5104   21837032.2824
      3128.168        2437.534
   -663361.929 9   -512417.96348  20285179.602    20285180.8044   20285185.9974
       134.059         104.462
  -3170568.917 9  -2462012.97346  24073173.820    24073175.0364   24073182.9054
      1935.584        1508.247
 97  5  5 15 55  0.0000000  0  7 26  2 19 31  7 27 15                0.000500876
  -4109577.988 9  -3186324.13647  23489271.165    23489272.9274   23489278.2064
      2498.937        1947.224
  -1461025.543 9  -1132083.27548  21252325.624    21252326.6274   21252332.5794
       837.410         652.527
   2728037.734 9   2002862.17847  22531253.243    22531254.8244   22531261.1574
     -2094.634       -1632.182
   4448253.197 9   3453000.97446  24812130.481    24812131.7624   24812137.7594
     -3193.332       -2488.311
  -4921730.117 9  -3817918.29448  21819194.678    21819196.1714   21819202.9684
      3118.092        2429.682
   -667162.931 9   -515379.78948  20284456.405    20284457.5474   20284462.6974
       119.541          93.149
  -3228439.423 9  -2507106.86546  24062161.459    24062162.7134   24062170.4994
      1922.568        1498.105
 97  5  5 15 55 30.0000000  0  7 26  2 19 31  7 27 15                0.000492847
  -4184350.520 9  -3244588.44147  23475042.444    23475044.1644   23475049.4364
      2485.826        1937.007
  -1486075.099 9  -1151602.40448  21247558.912    21247559.9154   21247565.8154
       832.368         648.598
   2791000.436 9   2051923.97247  22543234.797    22543236.2614   22543242.5754
     -2103.079       -1638.763
   4544099.251 9   3527686.18146  24830369.354    24830370.7274   24830376.5754
     -3196.542       -2490.812
  -5015108.366 9  -3890680.52448  21801425.493    21801426.8044   21801433.6404
      3106.921        2420.977
   -670535.885 9   -518008.06948  20283814.590    20283815.7324   20283820.8694
       105.233          82.000
  -3285918.736 9  -2551895.92746  24051223.550    24051224.8134   24051232.4834
      1909.141        1487.642
 97  5  5 15 56  0.0000000  0  7 26  2 19 31  7 27 15                0.000484797
  -4258739.522 9  -3302553.88447  23460886.716    23460888.4014   23460893.6844
      2473.454        1927.367
  -1510965.394 9  -1170997.44148  21242822.534    21242823.4624   21242829.3374
       827.176         644.553
   2854215.394 9   2101182.32647  22555264.057    22555265.6944   22555272.0564
     -2111.134       -1645.039
   4640035.015 9   3602441.26146  24848625.709    24848626.7814   24848632.5214
     -3198.983       -2492.714
  -5108149.197 9  -3963179.83548  21783720.236    21783721.6584   21783728.5074
      3095.935        2412.417
   -673491.522 9   -520311.17848  20283252.157    20283253.3094   20283258.4464
        92.034          71.715
  -3342996.095 9  -2596371.77846  24040362.117    24040363.4184   24040370.9914
      1896.072        1477.459
 97  5  5 15 56 30.0000000  0  7 26  2 19 31  7 27 15                0.000476734
  -4332747.902 9  -3360222.75347  23446803.297    23446805.0834   23446810.3914
      2460.574        1917.330
  -1535694.260 9  -1190266.68148  21238116.760    21238117.7114   21238123.5864
       821.759         640.332
   2917688.174 9   2150641.57747  22567342.665    22567344.2434   22567350.6024
     -2120.069       -1652.002
   4736051.191 9   3677259.04446  24866896.874    24866897.9344   24866903.6724
     -3201.974       -2495.045
  -5200854.322 9  -4035417.55648  21766078.950    21766080.4164   21766087.2324
      3084.603        2403.587
   -676049.211 9   -522304.18848  20282765.379    20282766.6124   20282771.7714
        78.821          61.419
  -3399669.344 9  -2640532.74946  24029577.675    24029578.9604   24029586.2634
      1882.449        1466.843
 97  5  5 15 57  0.0000000  0  7 26  2 19 31  7 27 15                0.000468673
  -4406359.532 9  -3417582.47047  23432795.457    23432797.2774   23432802.5614
      2446.576        1906.423
  -1560266.046 9  -1209413.52448  21233440.889    21233441.8654   21233447.7324
       816.175         635.981
   2981426.196 9   2200307.51747  22579471.586    22579473.2214   22579479.6264
     -2129.264       -1659.167
   4832148.173 9   3752139.73746  24885183.439    24885184.7784   24885190.4884
     -3204.811       -2497.255
  -5293218.155 9  -4107389.34048  21748502.639    21748504.1204   21748510.9064
      3072.584        2394.221
   -678217.039 9   -523993.41748  20282352.913    20282354.1464   20282359.2624
        65.359          50.929
  -3455935.507 9  -2684376.50846  24018870.565    24018871.8724   24018879.1954
      1868.406        1455.901
 97  5  5 15 57 30.0000000  0  7 26  2 19 31  7 27 15                0.000460628
  -4479543.705 9  -3474609.09947  23418869.077    23418870.7344   23418876.0524
      2432.188        1895.211
  -1584666.806 9  -1228427.09648  21228797.535    21228798.5424   21228804.3984
       810.330         631.426
   3045433.729 9   2250183.46447  22591651.923    22591653.5084   22591659.9664
     -2137.964       -1665.946
   4928336.623 9   3827091.75245  24903487.119    24903488.9614   24903494.3814
     -3208.214       -2499.907
  -5385216.063 9  -4179075.98348  21730995.939    21730997.4644   21731004.2554
      3060.582        2384.869
   -679976.419 9   -525364.36848  20282018.146    20282019.3594   20282024.4574
        51.826          40.384
  -3511780.534 9  -2727892.10946  24008243.885    24008244.9554   24008252.3034
      1854.449        1445.025
 97  5  5 15 58  0.0000000  0  7 26  2 19 31  7 27 15                0.000452581
  -4552311.579 9  -3531311.32347  23405021.768    23405023.4334   23405028.8414
      2418.034        1884.182
  -1608895.612 9  -1247306.68748  21224186.955    21224187.9554   21224193.7854
       804.286         626.716
   3109684.471 9   2300248.92247  22603878.356    22603880.0174   22603886.5584
     -2146.278       -1672.424
   5024620.171 9   3902117.85145  24921808.885    24921811.1404   24921816.7704
     -3211.601       -2502.546
  -5476871.627 9  -4250495.87048  21713554.504    21713555.9574   21713562.7774
      3048.969        2375.820
   -681343.501 9   -526429.63548  20281758.020    20281759.2274   20281764.3114
        38.360          29.891
  -3567219.647 9  -2771091.42246  23997694.007    23997695.2364   23997702.5874
      1840.612        1434.243
 97  5  5 15 58 30.0000000  0  7 26  2 19 31  7 27 15                0.000444543
  -4624638.202 9  -3587669.74547  23391258.273    23391260.0964   23391265.5384
      2403.351        1872.741
  -1632943.292 9  -1266045.13548  21219610.873    21219611.8374   21219617.6574
       798.477         622.190
   3174203.478 9   2350523.41747  22616155.825    22616157.5754   22616164.1864
     -2155.235       -1679.404
   5121017.098 9   3977232.27045  24940152.628    24940154.9074   24940160.6864
     -3215.374       -2505.486
  -5568176.232 9  -4321642.28548  21696179.698    21696181.2554   21696188.0524
      3037.598        2366.959
   -682293.306 9   -527169.75048  20281577.293    20281578.4974   20281583.5954
        24.490          19.083
  -3622237.835 9  -2813962.74846  23987224.453    23987225.7054   23987233.0174
      1826.741        1423.435
 97  5  5 15 59  0.0000000  0  7 26  2 19 31  7 27 15                0.000436502
  -4696525.060 9  -3643685.47147  23377578.596    23377580.4504   23377585.9644
      2388.873        1861.459
  -1656810.813 9  -1284643.20448  21215068.974    21215069.9764   21215075.8394
       792.303         617.379
   3238987.317 9   2401004.27147  22628483.797    22628485.5934   22628492.2764
     -2163.953       -1686.197
   5217526.407 9   4052434.32245  24958518.583    24958520.0764   24958525.8704
     -3219.004       -2508.315
  -5659138.964 9  -4392522.30848  21678870.230    21678871.6634   21678878.4084
      3026.231        2358.102
   -682810.363 9   -527572.66648  20281478.928    20281480.1304   20281485.1854
         9.617           7.494
  -3676836.541 9  -2856507.20546  23976834.673    23976835.8644   23976843.2804
      1812.733        1412.519
 97  5  5 15 59 30.0000000  0  7 26  2 19 31  7 27 15                0.000428445
  -4767981.745 9  -3699365.99947  23363980.707    23363982.7194   23363988.2634
      2374.648        1850.375
  -1680488.217 9  -1303093.12748  21210563.295    21210564.3044   21210570.1784
       785.841         612.344
   3304032.340 9   2451688.64047  22640861.525    22640863.3354   22640869.9974
     -2172.762       -1693.061
   5314159.394 8   4127732.69845  24976907.954    24976908.7764   24976914.6754
     -3223.628       -2511.918
  -5749764.784 9  -4463139.79948  21661624.824    21661626.1984   21661632.9034
      3015.165        2349.479
   -682886.733 9   -527632.18848  20281464.485    20281465.6254   20281470.6614
        -4.832          -3.765
  -3731013.223 9  -2898722.82546  23966525.035    23966526.4694   23966533.8464
      1798.612        1401.516
 97  5  5 16  0  0.0000000  0  7 26  2 19 31  7 27 15                0.000420368
  -4839021.616 9  -3754721.73547  23350462.301    23350464.2954   23350469.8844
      2360.993        1839.735
  -1703969.264 9  -1321390.04548  21206094.962    21206095.9864   21206101.8914
       779.524         607.421
   3369341.511 9   2502578.84447  22653289.622    22653291.2934   22653297.9664
     -2181.474       -1699.850
   5410923.313 9   4203133.14545  24995321.586    24995322.3594   24995328.2164
     -3227.716       -2515.103
  -5840055.379 9  -4533496.07948  21644443.120    21644444.5244   21644451.1734
      3003.953        2340.743
   -682529.465 9   -527353.80648  20281532.482    20281533.6304   20281538.6484
       -19.443         -15.150
  -3784765.100 9  -2940607.41946  23956296.536    23956297.8224   23956305.2114
      1784.554        1390.562
 97  5  5 16  0 30.0000000  0  7 26  2 19 31  7 27 15                0.000412269
  -4909629.155 9  -3809740.59547  23337026.155    23337028.1094   23337033.7284
      2346.359        1828.332
  -1727251.903 9  -1339532.36448  21201664.415    21201665.4784   21201671.3364
       772.750         602.143
   3434921.453 9   2553680.04147  22665769.186    22665770.7604   22665777.4934
     -2190.245       -1706.684
   5507829.432 8   4278644.35545  25013762.510    25013763.1464   25013769.0854
     -3232.557       -2518.876
  -5929993.992 9  -4603578.08348  21627328.430    21627329.7974   21627336.4364
      2991.982        2331.415
   -681703.620 9   -526710.30348  20281689.650    20281690.8204   20281695.8354
       -35.498         -27.661
  -3838074.621 9  -2982147.31746  23946152.550    23946153.3464   23946160.6954
      1769.613        1378.919
 97  5  5 16  1  0.0000000  0  7 26  2 19 31  7 27 15                0.000404140
  -4979807.043 9  -3864424.64747  23323671.855    23323673.6604   23323679.2924
      2332.460        1817.501
  -1750334.533 9  -1357518.83148  21197271.961    21197273.0434   21197278.8474
       766.361         597.164
   3500753.669 9   2604977.80547  22678296.599    22678298.2764   22678305.0524
     -2198.325       -1712.981
   5604871.827 8   4354261.80945  25032228.686    25032229.6094   25032235.4724
     -3236.701       -2522.105
  -6019569.906 9  -4673377.47248  21610282.777    21610284.0984   21610290.7154
      2979.931        2322.024
   -680397.258 9   -525692.36848  20281938.244    20281939.4084   20281944.4384
       -51.242         -39.929
  -3890935.783 9  -3023337.84846  23936093.571    23936094.2024   23936101.5324
      1754.765        1367.349
 97  5  5 16  1 30.0000000  0  7 26  2 19 31  7 27 15                0.000395976
  -5049570.742 9  -3918785.97347  23310396.299    23310398.0614   23310403.6404
      2318.410        1806.553
  -1773234.457 9  -1375362.92848  21192914.346    21192915.3364   21192921.1244
       760.333         592.467
   3566824.286 9   2656461.34347  22690869.410    22690871.1554   22690877.9864
     -2206.437       -1719.302
   5702033.929 8   4429972.52245  25050717.741    25050719.0274   25050724.9284
     -3240.617       -2525.156
  -6108787.113 9  -4742897.34048  21593305.340    21593306.6424   21593313.2604
      2967.812        2312.581
   -678638.189 9   -524321.67448  20282273.003    20282274.1794   20282279.1884
       -66.167         -51.559
  -3943357.482 9  -3064185.92846  23926117.807    23926118.6514   23926126.0374
      1739.986        1355.833
 97  5  5 16  2  0.0000000  0  7 26  2 19 31  7 27 15                0.000387793
  -5118907.031 9  -3972814.25047  23297202.031    23297203.8544   23297209.3554
      2304.158        1795.448
  -1795955.817 9  -1393067.88748  21188590.638    21188591.6364   21188597.3934
       754.955         588.277
   3633139.058 9   2708135.13447  22703488.978    22703490.5414   22703497.3354
     -2214.143       -1725.306
   5799296.139 8   4505761.24445  25069226.131    25069227.3554   25069233.4764
     -3243.194       -2527.164
  -6197632.668 9  -4812127.62248  21576398.555    21576399.8704   21576406.5004
      2955.624        2303.084
   -676425.034 9   -522597.15548  20282694.216    20282695.3574   20282700.3434
       -80.975         -63.097
  -3995332.083 9  -3104685.61146  23916227.201    23916228.1654   23916235.5914
      1725.382        1344.454
 97  5  5 16  2 30.0000000  0  7 26  2 19 31  7 27 15                0.000379594
  -5187815.305 9  -4026509.00347  23284089.158    23284091.1234   23284096.5094
      2288.933        1783.584
  -1818533.372 9  -1410660.78248  21184294.271    21184295.2894   21184301.0224
       749.274         583.850
   3699679.896 9   2759985.07647  22716151.213    22716152.9364   22716159.7064
     -2222.909       -1732.137
   5896614.571 8   4581593.79045  25087745.000    25087746.6564   25087752.4934
     -3245.451       -2528.923
  -6286127.821 9  -4881084.85148  21559558.395    21559559.7264   21559566.4214
      2943.159        2293.371
   -673787.510 9   -520541.95448  20283196.111    20283197.2594   20283202.2684
       -95.574         -74.473
  -4046877.508 9  -3144850.86546  23906418.133    23906419.2904   23906426.8474
      1710.133        1332.571
 97  5  5 16  3  0.0000000  0  7 26  2 19 31  7 27 15                0.000371415
  -5256266.042 9  -4079847.22347  23271063.405    23271065.4414   23271070.8174
      2274.956        1772.693
  -1840939.422 9  -1428120.04648  21180030.477    21180031.5234   21180037.2644
       744.888         580.432
   3766493.831 9   2812047.81747  22728865.626    22728867.2884   22728874.0794
     -2231.002       -1738.443
   5993992.185 8   4657472.44745  25106274.844    25106277.0894   25106282.8854
     -3245.986       -2529.340
  -6374251.046 9  -4949752.27748  21542788.993    21542790.3994   21542797.1124
      2932.222        2284.848
   -670725.408 9   -518155.92148  20283778.805    20283779.9624   20283784.9884
      -108.126         -84.254
  -4097964.388 9  -3184658.78846  23896696.258    23896697.7074   23896705.3224
      1696.095        1321.632
 97  5  5 16  3 30.0000000  0  7 26  2 19 31  7 27 15                0.000363258
  -5324263.565 9  -4132832.28347  23258123.975    23258125.9734   23258131.3394
      2258.489        1759.861
  -1863185.962 9  -1445455.00548  21175797.177    21175798.1184   21175803.8744
       738.417         575.390
   3833580.751 9   2864323.28647  22741631.984    22741633.6054   22741640.3334
     -2241.159       -1746.358
   6091413.682 8   4733385.31045  25124813.421    25124815.7964   25124821.5574
     -3248.413       -2531.231
  -6462019.446 9  -5018143.20548  21526087.244    21526088.5764   21526095.3084
      2919.269        2274.755
   -667260.430 9   -515455.94948  20284438.138    20284439.3274   20284444.3694
      -122.793         -95.683
  -4148602.668 9  -3224117.15246  23887059.904    23887061.5464   23887069.1984
      1679.993        1309.085
 97  5  5 16  4  0.0000000  0  7 26  2 19 31  7 27 15                0.000355118
  -5391803.457 9  -4185460.77247  23245271.645    23245273.5924   23245278.9484
      2243.993        1748.566
  -1885267.281 9  -1462661.22648  21171595.175    21171596.1344   21171601.9354
       733.411         571.489
   3900939.391 9   2916810.48147  22754450.102    22754451.6404   22754458.3264
     -2249.538       -1752.887
   6188874.968 8   4809329.18645  25143359.748    25143362.0134   25143367.7934
     -3249.424       -2532.019
  -6549431.730 9  -5086256.65248  21509453.141    21509454.5034   21509461.2434
      2908.022        2265.991
   -663379.130 9   -512431.57748  20285176.746    20285177.9534   20285182.9714
      -136.164        -106.102
  -4198788.979 9  -3263223.30946  23877509.912    23877511.3484   23877519.0334
      1665.517        1297.805
 97  5  5 16  4 30.0000000  0  6 26  2 19  7 27 15                   0.000346958
  -5458931.974 9  -4237768.70447  23232497.742    23232499.4854   23232504.8154
      2230.443        1738.008
  -1907208.924 9  -1479758.61348  21167419.776    21167420.7444   21167426.5594
       728.394         567.580
   3968531.788 9   2969479.82247  22767312.384    22767314.0974   22767320.8144
     -2257.386       -1759.002
  -6636526.916 9  -5154123.00148  21492879.469    21492880.8264   21492887.5764
      2897.350        2257.675
   -659106.711 9   -509102.43648  20285989.831    20285991.0024   20285996.0074
      -149.804        -116.730
  -4248554.214 9  -3302001.34346  23868039.875    23868041.2804   23868048.9554
      1651.251        1286.689
 97  5  5 16  5  0.0000000  0  6 26  2 19  7 27 15                   0.000338777
  -5525626.241 9  -4289738.26447  23219806.296    23219808.0044   23219813.3444
      2215.613        1726.452
  -1928971.442 9  -1496716.41548  21163278.452    21163279.4834   21163285.2524
       722.170         562.730
   4036375.346 9   3022344.87947  22780222.742    22780224.3114   22780231.0354
     -2265.703       -1765.483
  -6723269.877 9  -5221714.89448  21476372.856    21476374.1684   21476380.9514
      2885.147        2248.166
   -654382.669 9   -505421.38148  20286888.782    20286889.9644   20286894.9954
      -165.361        -128.853
  -4297859.677 9  -3340421.10646  23858657.412    23858658.7474   23858666.3604
      1635.590        1274.486
 97  5  5 16  5 30.0000000  0  6 26  2 19  7 27 15                   0.000330578
  -5591866.101 9  -4341353.72547  23207201.385    23207202.9554   23207208.3824
      2200.169        1714.417
  -1950535.794 9  -1513519.80248  21159174.957    21159175.8964   21159181.6454
       715.265         557.349
   4104471.464 9   3075406.73447  22793180.973    22793182.6014   22793189.2984
     -2274.334       -1772.208
  -6809625.008 9  -5289004.57948  21459940.006    21459941.3084   21459948.0834
      2871.597        2237.608
   -649180.275 9   -501367.58148  20287878.774    20287879.9484   20287884.9944
      -181.640        -141.538
  -4346687.731 9  -3378468.84246  23849366.042    23849367.0544   23849374.6414
      1619.353        1261.833
 97  5  5 16  6  0.0000000  0  6 26  2 19  7 27 15                   0.000322362
  -5657656.498 9  -4392618.95647  23194681.802    23194683.4634   23194688.9254
      2185.980        1703.361
  -1971899.482 9  -1530166.82948  21155109.573    21155110.5474   21155116.2624
       709.305         552.705
   4172823.130 9   3128667.71747  22806187.886    22806189.5304   22806196.2124
     -2282.061       -1778.229
  -6895574.205 9  -5355977.94748  21443584.413    21443585.7034   21443592.4784
      2858.599        2227.480
   -643496.680 9   -496938.81948  20288960.340    20288961.5534   20288966.5744
      -196.877        -153.411
  -4395034.975 9  -3416141.92246  23840165.777    23840166.8714   23840174.4324
      1604.089        1249.939
 97  5  5 16  6 30.0000000  0  6 26  2 19  7 27 15                   0.000314121
  -5723008.069 9  -4443542.27647  23182245.844    23182247.4884   23182252.9034
      2170.523        1691.317
  -1993091.860 9  -1546680.37048  21151076.692    21151077.7874   21151083.4824
       703.342         548.059
   4241400.570 9   3182104.63047  22819237.850    22819239.4224   22819246.1064
     -2289.999       -1784.415
  -6981130.753 9  -5422645.36148  21427303.496    21427304.8284   21427311.5454
      2844.974        2216.863
   -637357.993 9   -492155.44248  20290128.543    20290129.7354   20290134.7284
      -212.459        -165.552
  -4442924.073 9  -3453457.99646  23831052.597    23831053.8584   23831061.4114
      1588.329        1237.659
 97  5  5 16  7  0.0000000  0  6 26  2 19  7 27 15                   0.000305889
  -5787884.101 9  -4494095.03047  23169900.548    23169902.0324   23169907.4294
      2154.828        1679.087
  -2014106.846 9  -1563055.68148  21147077.642    21147078.8024   21147084.4924
       697.947         543.855
   4310227.425 9   3235735.89147  22832335.198    22832336.8164   22832343.4894
     -2298.197       -1790.803
  -7066273.315 9  -5488990.18948  21411101.326    21411102.7604   21411109.4204
      2831.598        2206.440
   -630761.444 9   -487015.28948  20291383.852    20291385.0464   20291390.0584
      -226.814        -176.738
  -4490338.058 9  -3490403.84846  23822030.165    23822031.2974   23822038.7254
      1572.942        1225.669
 97  5  5 16  7 30.0000000  0  6 26  2 19  7 27 15                   0.000297657
  -5852306.105 9  -4544294.00247  23157641.443    23157642.9394   23157648.3804
      2140.205        1667.692
  -2034972.819 9  -1579314.87748  21143107.087    21143108.1514   21143113.8634
       693.328         540.255
   4379286.484 9   3289548.08347  22845476.871    22845478.3724   22845485.0124
     -2305.547       -1796.530
  -7151032.003 9  -5555035.89548  21394972.364    21394973.7184   21394980.2964
      2819.263        2196.828
   -623748.805 9   -481550.91248  20292718.372    20292719.5244   20292724.5694
      -240.669        -187.534
  -4537305.213 9  -3527001.51646  23813092.676    23813093.7414   23813101.0914
      1558.238        1214.211
 97  5  5 16  8  0.0000000  0  6 26  2 19  7 27 15                   0.000289426
  -5916261.042 9  -4594129.02547  23145471.241    23145472.7394   23145478.1444
      2123.410        1654.605
  -2055678.356 9  -1595449.05848  21139166.884    21139168.0664   21139173.7944
       687.053         535.366
   4448587.266 9   3343548.64347  22858664.550    22858665.9594   22858672.5704
     -2314.387       -1803.418
  -7235404.551 9  -5620780.70448  21378916.776    21378918.1314   21378924.6844
      2805.658        2186.227
   -616290.448 9   -475739.21948  20294137.714    20294138.8284   20294143.8754
      -256.592        -199.942
  -4583802.997 9  -3563233.43446  23804244.367    23804245.4864   23804252.8004
      1541.612        1201.256
 97  5  5 16  8 30.0000000  0  6 26  2 19  7 27 15                   0.000281207
  -5979720.042 9  -4643577.59647  23133395.497    23133396.8844   23133402.2704
      2107.864        1642.491
  -2076212.769 9  -1611449.89848  21135259.389    21135260.5434   21135266.2514
       682.188         531.575
   4518143.001 9   3397747.85747  22871900.592    22871902.0144   22871908.6564
     -2322.317       -1809.598
  -7319391.317 9  -5686224.90748  21362934.534    21362935.9584   21362942.4944
      2793.840        2177.018
   -608368.840 9   -469566.55248  20295645.196    20295646.3154   20295651.3554
      -271.065        -211.219
  -4629812.014 9  -3599084.50246  23795489.058    23795490.2184   23795497.5344
      1526.084        1189.156
 97  5  5 16  9  0.0000000  0  6 26  2 19  7 27 15                   0.000272981
  -6042721.484 9  -4692669.62147  23121406.510    23121408.0554   23121413.5014
      2092.472        1630.498
  -2096591.164 9  -1627329.17048  21131381.521    21131382.6354   21131388.3294
       676.634         527.247
   4587944.421 9   3452138.50747  22885183.477    22885184.8554   22885191.4864
     -2330.756       -1816.174
  -7403018.646 9  -5751389.03148  21347020.754    21347022.1744   21347028.7054
      2781.535        2167.430
   -600008.331 9   -463051.88348  20297236.131    20297237.2784   20297242.3494
      -286.157        -222.979
  -4675352.190 9  -3634570.23146  23786823.060    23786824.0734   23786831.4084
      1510.119        1176.716
 97  5  5 16  9 30.0000000  0  6 26  2 19  7 27 15                   0.000264747
  -6105259.837 9  -4741400.79747  23109505.800    23109507.3644   23109512.8274
      2076.671        1618.185
  -2116793.757 9  -1643071.44648  21127537.007    21127538.1514   21127543.8684
       670.069         522.132
   4658005.826 9   3506731.75747  22898515.582    22898517.1444   22898523.8474
     -2340.127       -1823.476
  -7486266.294 9  -5816257.30448  21331179.165    21331180.6754   21331187.1644
      2768.072        2156.939
   -591183.454 9   -456175.37248  20298915.454    20298916.5644   20298921.7214
      -302.247        -235.517
  -4720404.698 9  -3669675.97646  23778249.862    23778250.8704   23778258.0414
      1493.184        1163.520
 97  5  5 16 10  0.0000000  0  6 26  2 19  7 27 15                   0.000256515
  -6167332.078 9  -4789768.80547  23097693.820    23097695.4184   23097700.8324
      2061.320        1606.223
  -2136816.867 9  -1658673.86748  21123726.636    21123727.8114   21123733.5784
       664.737         517.977
   4728333.508 9   3561532.48247  22911898.492    22911900.0854   22911906.8704
     -2348.548       -1830.037
  -7569126.613 9  -5880823.75248  21315411.371    21315412.8334   21315419.3594
      2755.737        2147.328
   -581911.018 9   -448950.11548  20300679.981    20300681.0714   20300686.2384
      -315.981        -246.219
  -4764970.371 9  -3704402.36046  23769769.120    23769770.2364   23769777.3974
      1477.790        1151.525
 97  5  5 16 10 30.0000000  0  6 26  2 19  7 27 15                   0.000248301
  -6228929.474 9  -4837766.77547  23085972.251    23085973.8364   23085979.2234
      2045.250        1593.701
  -2156660.686 9  -1674136.58248  21119950.541    21119951.6734   21119957.4594
       658.280         512.945
   4798934.690 9   3616546.32047  22925333.676    22925335.1674   22925341.9554
     -2358.060       -1837.449
  -7651593.548 9  -5945083.67448  21299718.375    21299719.9164   21299726.4384
      2741.948        2136.583
   -572210.120 9   -441390.98848  20302526.045    20302527.1264   20302532.3004
      -330.776        -257.748
  -4809055.183 9  -3738754.06146  23761379.854    23761381.0784   23761388.2334
      1461.242        1138.630
 97  5  5 16 11  0.0000000  0  6 26  2 19  7 27 15                   0.000240087
  -6290076.554 9  -4885413.85547  23074336.102    23074337.8964   23074343.3284
      2030.828        1582.463
  -2176348.140 9  -1689477.45248  21116204.277    21116205.3104   21116211.0854
       653.996         509.607
   4869785.139 9   3671754.39447  22938816.038    22938817.5504   22938824.4574
     -2365.410       -1843.177
  -7733673.068 9  -6009041.71448  21284099.224    21284100.7464   21284107.2544
      2729.838        2127.146
   -562097.041 9   -433510.68248  20304450.543    20304451.6034   20304456.7714
      -343.767        -267.870
  -4852678.241 9  -3772745.97546  23753078.760    23753079.7244   23753086.8804
      1446.722        1127.316
 97  5  5 16 11 30.0000000  0  6 26  2 19  7 27 15                   0.000231871
  -6350765.048 9  -4932703.60347  23062787.666    23062789.3054   23062794.7244
      2014.236        1569.534
  -2195889.562 9  -1704704.52848  21112485.593    21112486.6994   21112492.5054
       647.753         504.743
   4940869.619 9   3727144.83347  22952342.824    22952344.4664   22952351.4224
     -2374.404       -1850.185
  -7815373.681 9  -6072704.49548  21268552.201    21268553.6334   21268560.1374
      2715.928        2116.307
   -551568.846 9   -425306.90948  20306454.028    20306455.0614   20306460.2434
      -359.013        -279.750
  -4895846.004 9  -3806383.10746  23744864.364    23744865.0264   23744872.2464
      1430.237        1114.470
 97  5  5 16 12  0.0000000  0  6 26  2 19  7 27 15                   0.000223662
  -6410965.599 9  -4979613.11247  23051331.812    23051333.5434   23051339.0244
      1999.021        1557.679
  -2215259.466 9  -1719797.96448  21108799.586    21108800.7614   21108806.5634
       643.451         501.390
   5012205.012 9   3782730.77747  22965917.554    22965919.1614   22965926.1804
     -2381.503       -1855.717
  -7896667.555 9  -6136050.34648  21253082.543    21253083.9294   21253090.4524
      2703.539        2106.654
   -540591.671 9   -416753.28448  20308543.022    20308543.9634   20308549.1594
      -373.165        -290.778
  -4938533.879 9  -3839646.30546  23736741.010    23736741.7014   23736748.8344
      1415.370        1102.886
 97  5  5 16 12 30.0000000  0  6 26  2 19  7 27 15                   0.000215456
  -6470666.952 9  -5026133.66147  23039971.065    23039972.7914   23039978.2684
      1982.175        1544.552
  -2234446.729 9  -1734749.07748  21105148.517    21105149.5824   21105155.3864
       636.792         496.202
   5083804.197 9   3838522.29747  22979542.387    22979544.0704   22979551.1184
     -2390.710       -1862.891
  -7977532.429 9  -6199061.90548  21237694.463    21237695.8614   21237702.3854
      2688.648        2095.050
   -529118.564 9   -407813.21548  20310726.290    20310727.2454   20310732.4664
      -390.608        -304.370
  -4980719.336 9  -3872518.02146  23728713.393    23728714.0304   23728721.0754
      1397.983        1089.337
 97  5  5 16 13  0.0000000  0  6 26  2 19  7 27 15                   0.000207231
  -6529896.770 9  -5072286.75547  23028700.017    23028701.7364   23028707.2034
      1966.384        1532.247
  -2253468.447 9  -1749571.19748  21101528.901    21101529.9114   21101535.6984
       631.097         491.764
   5155641.134 9   3894499.05047  22993212.875    22993214.2424   22993221.3054
     -2398.514       -1868.972
  -8057991.548 9  -6261757.29348  21222383.599    21222384.9464   21222391.4804
      2675.158        2084.539
   -517161.553 9   -398496.08348  20313001.648    20313002.6164   20313007.8274
      -406.655        -316.874
  -5022418.498 9  -3905010.82346  23720778.190    23720778.8594   23720785.8104
      1381.789        1076.719
 97  5  5 16 13 30.0000000  0  6 26  2 19  7 27 15                   0.000198985
  -6588644.836 9  -5118064.46747  23017520.566    23017522.3494   23017527.8114
      1950.496        1519.867
  -2272306.371 9  -1764250.10148  21097944.193    21097945.1964   21097950.9744
       625.064         487.063
   5227716.231 9   3950661.40847  23006928.097    23006929.7704   23006936.8114
     -2406.291       -1875.032
  -8138035.139 9  -6324128.89548  21207151.648    21207153.0884   21207159.6514
      2661.238        2073.692
   -504712.807 9   -388795.77948  20315370.568    20315371.5514   20315376.7934
      -422.746        -329.412
  -5063620.038 9  -3937115.87246  23712937.699    23712938.4714   23712945.3604
      1365.169        1063.768
 97  5  5 16 14  0.0000000  0  6 26  2 19  7 27 15                   0.000190722
  -6646926.679 9  -5163478.90047  23006429.837    23006431.7134   23006437.0964
      1934.683        1507.545
  -2290977.624 9  -1778799.12648  21094391.145    21094392.1624   21094397.9434
       619.495         482.723
   5300013.039 9   4006996.50847  23020685.983    23020687.5024   23020694.4954
     -2413.794       -1880.878
  -8217669.090 9  -6386181.29348  21191997.814    21191999.2524   21192005.7914
      2647.474        2062.967
   -491807.415 9   -378739.64048  20317826.387    20317827.3884   20317832.6534
      -437.831        -341.167
  -5104334.362 9  -3968841.28146  23705190.112    23705190.7244   23705197.6924
      1348.745        1050.970
 97  5  5 16 14 30.0000000  0  6 26  2 19  7 27 15                   0.000182451
  -6704732.701 9  -5208522.55447  22995429.786    22995431.6094   22995436.9404
      1918.592        1495.007
  -2309480.354 9  -1793216.83648  21090870.258    21090871.1784   21090876.9854
       613.566         478.103
   5372531.008 9   4063503.95047  23034485.816    23034487.3224   23034494.2834
     -2421.119       -1886.586
  -8296891.269 9  -6447912.83348  21176922.319    21176923.7604   21176930.2684
      2633.596        2052.153
   -478451.969 9   -368332.81348  20320367.948    20320368.8774   20320374.1364
      -452.875        -352.890
  -5144549.433 9  -4000177.66346  23697537.249    23697537.9364   23697544.9774
      1331.798        1037.765
 97  5  5 16 15  0.0000000  0  6 26  2 19  7 27 15                   0.000174164
  -6762071.286 9  -5253201.97447  22984518.708    22984520.4814   22984525.7384
      1903.558        1483.292
  -2327822.622 9  -1807509.50848  21087379.866    21087380.7554   21087386.5814
       608.925         474.487
   5445249.086 9   4120167.32447  23048323.733    23048325.1804   23048332.1624
     -2427.135       -1891.274
  -8375716.080 9  -6509334.73248  21161922.495    21161923.8824   21161930.3734
      2620.996        2042.335
   -464666.279 9   -357590.73448  20322991.319    20322992.2374   20322997.4634
      -466.494        -363.502
  -5184272.490 9  -4031130.66546  23689977.933    23689978.8244   23689986.0004
      1316.054        1025.497
 97  5  5 16 15 30.0000000  0  6 26  2 19  7 27 15                   0.000165871
  -6818934.820 9  -5297511.23048  22973698.099    22973699.7624   22973704.9914
      1887.596        1470.854
  -2346006.613 9  -1821678.85048  21083919.497    21083920.4094   21083926.2194
       603.634         470.364
   5518171.884 9   4176990.22347  23062200.565    23062202.0114   23062208.9214
     -2434.097       -1896.699
  -8454144.320 9  -6570447.61848  21146998.053    21146999.4624   21147005.9104
      2607.923        2032.148
   -450449.898 9   -346513.05648  20325696.568    20325697.5374   20325702.7434
      -480.875        -374.708
  -5223496.479 9  -4061694.79346  23682513.758    23682514.5764   23682521.8304
      1299.204        1012.367
 97  5  5 16 16  0.0000000  0  6 26  2 19  7 27 15                   0.000157576
  -6875314.208 9  -5341443.21547  22962969.497    22962971.1824   22962976.3694
      1871.592        1458.383
  -2364027.331 9  -1835720.96548  21080490.186    21080491.1524   21080496.9104
       598.239         466.160
   5591315.775 9   4233985.39847  23076119.316    23076120.8904   23076127.7924
     -2441.529       -1902.490
  -8532179.636 9  -6631254.32948  21132148.449    21132149.8244   21132156.2164
      2595.018        2022.092
   -435798.233 9   -335096.19548  20328484.693    20328485.7084   20328490.8614
      -495.585        -386.170
  -5262211.037 9  -4091861.94746  23675146.397    23675147.3534   23675154.6034
      1282.236         999.145
 97  5  5 16 16 30.0000000  0  6 26  2 19  7 27 15                   0.000149263
  -6931226.122 9  -5385010.94547  22952329.948    22952331.5244   22952336.6414
      1855.970        1446.210
  -2381895.169 9  -1849643.95848  21077090.142    21077091.0364   21077096.7474
       592.984         462.065
   5664674.274 9   4291147.79247  23090079.007    23090080.5604   23090087.4904
     -2449.000       -1908.312
  -8609842.432 9  -6691770.76548  21117369.738    21117371.0854   21117377.4324
      2582.504        2012.341
   -420705.152 9   -323335.37448  20331356.753    20331357.8554   20331363.0054
      -510.615        -397.882
  -5300426.275 9  -4121640.04246  23667874.375    23667875.2004   23667882.4134
      1265.492         986.098
 97  5  5 16 17  0.0000000  0  6 26  2 19  7 27 15                   0.000140934
  -6986667.583 9  -5428212.08247  22941779.825    22941781.3804   22941786.4654
      1840.338        1434.030
  -2399601.813 9  -1863441.33548  21073720.690    21073721.5774   21073727.3004
       587.758         457.993
   5738269.691 9   4348494.81047  23104083.590    23104085.3374   23104092.3154
     -2457.017       -1914.559
  -8687125.856 9  -6751991.58948  21102663.236    21102664.5714   21102670.8574
      2570.072        2002.654
   -405153.229 9   -311217.01348  20334316.187    20334317.3244   20334322.4354
      -525.898        -409.791
  -5338133.136 9  -4151022.00146  23660699.016    23660699.8594   23660707.0354
      1248.653         972.976
 97  5  5 16 17 30.0000000  0  6 26  2 19  7 27 15                   0.000132590
  -7041635.217 9  -5471044.01547  22931319.616    22931321.3664   22931326.4744
      1824.163        1421.426
  -2417151.109 9  -1877116.10648  21070380.907    21070382.0794   21070387.8004
       582.124         453.603
   5812103.525 9   4406027.60447  23118133.709    23118135.4774   23118142.5284
     -2465.248       -1920.972
  -8764037.247 9  -6811922.51048  21088027.554    21088028.8364   21088035.0884
      2557.228        1992.645
   -389142.982 9   -298741.51848  20337362.876    20337364.0314   20337369.0984
      -541.581        -422.011
  -5375335.387 9  -4180010.75346  23653619.480    23653620.5244   23653627.6974
      1231.462         959.581
 97  5  5 16 18  0.0000000  0  6 26  2 19  7 27 15                   0.000124227
  -7096133.294 9  -5513510.04847  22920948.911    22920950.6964   22920955.8054
      1809.007        1409.616
  -2434543.532 9  -1890668.63848  21067071.320    21067072.4664   21067078.1134
       577.365         449.895
   5886176.977 9   4463747.10447  23132229.572    23132231.2314   23132238.3174
     -2472.841       -1926.889
  -8840569.526 9  -6871558.02448  21073463.977    21073465.2034   21073471.4384
      2544.800        1982.961
   -372669.550 9   -285905.09748  20340497.620    20340498.8464   20340503.8984
      -556.724        -433.811
  -5412036.577 9  -4208609.06746  23646635.676    23646636.5034   23646643.6934
      1215.297         946.985
 97  5  5 16 18 30.0000000  0  6 26  2 19  7 27 15                   0.000115853
  -7150150.860 9  -5555601.66147  22910669.813    22910671.4664   22910676.6334
      1792.345        1396.632
  -2451768.106 9  -1904090.38148  21063793.868    21063794.7784   21063800.4074
       571.271         445.146
   5960496.922 9   4521658.69347  23146372.499    23146373.8924   23146381.0204
     -2481.465       -1933.609
  -8916697.197 9  -6930878.26448  21058977.304    21058978.5794   21058984.8544
      2530.626        1971.916
   -355716.944 9   -272695.29848  20343723.554    20343724.8124   20343729.8814
      -573.129        -446.594
  -5448228.419 9  -4236810.49146  23639748.613    23639749.4704   23639756.5894
      1197.764         933.322
 97  5  5 16 19  0.0000000  0  6 26  2 19  7 27 15                   0.000107473
  -7203667.196 9  -5597302.70747  22900486.118    22900487.6714   22900492.8614
      1775.883        1383.805
  -2468812.704 9  -1917371.88448  21060550.256    21060551.2984   21060556.9534
       565.511         440.658
   6035066.374 9   4579764.69047  23160562.517    23160564.0534   23160571.1984
     -2489.230       -1939.660
  -8992398.295 9  -6989866.10148  21044571.743    21044573.0864   21044579.3904
      2516.689        1961.056
   -338279.358 9   -259107.58548  20347041.752    20347043.0814   20347048.1614
      -588.651        -458.689
  -5483897.319 9  -4264604.43346  23632960.926    23632961.9374   23632969.0294
      1180.694         920.021
 97  5  5 16 19 30.0000000  0  6 26  2 19  7 27 15                   0.000099096
  -7256679.316 9  -5638610.85447  22890398.318    22890399.7934   22890404.9934
      1757.922        1369.809
  -2485678.255 9  -1930513.86748  21057340.922    21057341.8694   21057347.5314
       558.510         435.203
   6109867.270 9   4638051.03647  23174796.699    23174798.2194   23174805.3964
     -2498.011       -1946.502
  -9067672.418 9  -7048521.23648  21030247.576    21030248.8924   21030255.2014
      2501.087        1948.899
   -320389.711 9   -245167.62048  20350446.128    20350447.3924   20350452.4514
      -604.455        -471.004
  -5519054.954 9  -4291999.98446  23626270.495    23626271.7094   23626278.7514
      1162.710         906.008
 97  5  5 16 20  0.0000000  0  6 26  2 19  7 27 15                   0.000090732
  -7309173.956 9  -5679515.77647  22880408.968    22880410.3764   22880415.5734
      1741.536        1357.041
  -2502352.162 9  -1943506.52148  21054168.214    21054168.9354   21054174.5764
       552.961         430.879
   6184915.348 9   4696529.98647  23189077.767    23189079.4494   23189086.6124
     -2505.275       -1952.162
  -9142494.980 9  -7106824.50848  21016009.272    21016010.6244   21016016.9444
      2486.958        1937.889
   -302041.537 9   -230870.36148  20353937.731    20353938.9554   20353944.0264
      -618.828        -482.204
  -5553690.809 9  -4318988.94946  23619679.677    23619680.8084   23619687.7344
      1146.123         893.083
 97  5  5 16 20 30.0000000  0  6 26  2 19  7 27 15                   0.000082377
  -7361155.977 9  -5720021.23847  22870516.962    22870518.4874   22870523.7164
      1723.849        1343.259
  -2518843.633 9  -1956357.02048  21051029.965    21051030.7374   21051036.3184
       546.454         425.808
   6260189.757 9   4755185.29447  23203402.031    23203403.7834   23203410.9094
     -2513.181       -1958.323
  -9216879.670 9  -7164786.57948  21001854.313    21001855.6564   21001861.9864
      2472.028        1926.255
   -283250.588 9   -216228.08748  20357513.615    20357514.7684   20357519.8564
      -634.068        -494.079
  -5587809.298 9  -4345574.77546  23613187.203    23613188.3144   23613195.1984
      1128.276         879.176
 97  5  5 16 21  0.0000000  0  6 26  2 19  7 27 15                   0.000074025
  -7412638.523 9  -5760137.53747  22860720.176    22860721.7074   22860726.9714
      1707.761        1330.723
  -2535171.943 9  -1969080.38048  21047922.715    21047923.5944   21047929.1364
       541.540         421.979
   6335674.737 9   4814004.68447  23217766.438    23217768.1414   23217775.3084
     -2519.793       -1963.475
  -9290853.423 9  -7222428.43548  20987777.611    20987778.8824   20987785.2514
      2458.943        1916.059
   -264037.991 9   -201257.24748  20361169.649    20361170.7804   20361175.9354
      -647.449        -504.506
  -5621420.913 9  -4371765.63446  23606791.462    23606792.3364   23606799.1024
      1111.925         866.435
 97  5  5 16 21 30.0000000  0  6 26  2 19  7 27 15                   0.000065687
  -7463603.647 9  -5799850.61147  22851021.876    22851023.3574   22851028.6514
      1690.292        1317.111
  -2551325.056 9  -1981667.21848  21044849.118    21044849.7704   21044855.2904
       535.743         417.462
   6411396.894 9   4873008.88447  23232175.912    23232177.6804   23232184.8114
     -2528.017       -1969.883
  -9364399.696 9  -7279737.19448  20973782.102    20973783.4434   20973789.8324
      2444.409        1904.734
   -244381.866 9   -185940.80748  20364910.152    20364911.2194   20364916.3964
      -662.868        -516.520
  -5654508.559 9  -4397548.21246  23600494.976    23600495.9684   23600502.8184
      1094.099         852.545
 97  5  5 16 22  0.0000000  0  6 26  2 19  7 27 15                   0.000057360
  -7514052.836 9  -5839161.68448  22841421.578    22841423.2084   22841428.4774
      1673.526        1304.046
  -2567309.887 9  -1994122.93448  21041807.023    21041807.9594   21041813.4544
       530.406         413.303
   6487360.441 9   4932201.17747  23246631.419    23246633.1184   23246640.2474
     -2535.540       -1975.745
  -9437518.239 9  -7336712.65548  20959868.084    20959869.4004   20959875.8234
      2430.633        1894.000
   -224254.146 9   -170256.89048  20368740.357    20368741.4104   20368746.5894
      -678.344        -528.580
  -5687058.598 9  -4422911.86546  23594300.798    23594301.9434   23594308.7364
      1076.327         838.696
 97  5  5 16 22 30.0000000  0  6 26  2 19  7 27 15                   0.000049038
  -7563995.248 9  -5878077.85348  22831917.682    22831919.5274   22831924.7894
      1656.483        1290.766
  -2583131.419 9  -2006451.40148  21038796.236    21038797.2044   21038802.7134
       524.814         408.946
   6563555.379 9   4991573.77447  23261131.061    23261132.6614   23261139.7874
     -2543.648       -1982.063
  -9510217.964 9  -7393361.76648  20946033.773    20946035.1004   20946041.5094
      2416.517        1883.000
   -203660.823 9   -154210.16448  20372659.127    20372660.2064   20372665.3844
      -694.105        -540.861
  -5719070.132 9  -4447855.91046  23588209.402    23588210.3664   23588217.1354
      1058.230         824.595
 97  5  5 16 23  0.0000000  0  6 26  2 19  7 27 15                   0.000040715
  -7613445.443 9  -5916610.47648  22822507.645    22822509.4704   22822514.7824
      1640.350        1278.195
  -2598811.643 9  -2018669.75648  21035812.299    21035813.3944   21035818.9044
       520.632         405.687
   6639973.570 9   5051120.33447  23275673.105    23275674.6194   23275681.7804
     -2550.696       -1987.555
  -9582504.214 9  -7449688.68748  20932278.198    20932279.5304   20932285.9184
      2402.668        1872.209
   -182613.659 9   -137809.79648  20376664.206    20376665.3444   20376670.5484
      -708.965        -552.440
  -5750559.194 9  -4472392.83046  23582217.251    23582218.2334   23582224.9224
      1041.090         811.239
 97  5  5 16 23 30.0000000  0  6 26  2 19  7 27 15                   0.000032390
  -7662401.272 9  -5954757.89048  22813191.821    22813193.5064   22813198.7894
      1623.761        1265.268
  -2614350.382 9  -2030777.86648  21032855.548    21032856.5184   21032861.9924
       515.455         401.653
   6716612.465 9   5110838.86647  23290256.997    23290258.6464   23290265.7984
     -2558.152       -1993.365
  -9654358.632 9  -7505679.11248  20918604.807    20918606.0914   20918612.4664
      2387.893        1860.696
   -161099.868 9   -121045.82248  20380758.047    20380759.3004   20380764.5124
      -725.016        -564.947
  -5781517.014 9  -4496515.79446  23576326.252    23576327.2344   23576333.8234
      1022.953         797.106
 97  5  5 16 24  0.0000000  0  6 26  2 19  7 27 15                   0.000024046
  -7710875.516 9  -5992530.03348  22803967.632    22803969.2004   22803974.4464
      1608.211        1253.151
  -2629734.372 9  -2042765.39348  21029928.098    21029929.0104   21029934.5154
       510.422         397.731
   6793462.003 9   5170721.53647  23304880.983    23304882.6584   23304889.8584
     -2564.821       -1998.562
  -9725777.925 9  -7561330.48448  20905014.130    20905015.4494   20905021.8024
      2373.558        1849.526
   -139111.175 9   -103911.79948  20384942.408    20384943.6294   20384948.8504
      -740.554        -577.055
  -5811938.812 9  -4520221.08146  23570537.192    23570538.1434   23570544.6954
      1005.432         783.454
 97  5  5 16 24 30.0000000  0  6 26  2 19  7 27 15                   0.000015678
  -7758876.050 9  -6029933.04348  22794833.184    22794835.0214   22794840.2454
      1592.149        1240.636
  -2644961.866 9  -2054630.96948  21027030.216    21027031.2534   21027036.8344
       505.262         393.711
   6870523.128 9   5230769.08847  23319545.323    23319546.9734   23319554.2104
     -2572.003       -2004.158
  -9796751.838 9  -7616634.80448  20891508.250    20891509.5294   20891515.8504
      2358.446        1837.750
   -116645.905 9    -86406.41448  20389217.372    20389218.6304   20389223.8804
      -756.692        -589.630
  -5841827.478 9  -4543510.92846  23564849.633    23564850.5804   23564857.0154
       987.600         769.558
 97  5  5 16 25  0.0000000  0  6 26  2 19  7 27 15                   0.000007297
  -7806384.371 9  -6066952.51448  22785792.629    22785794.5144   22785799.7474
      1575.512        1227.672
  -2660034.234 9  -2066375.67048  21024162.105    21024163.0184   21024168.7234
       499.943         389.566
   6947803.811 9   5290987.71147  23334251.390    23334253.1024   23334260.4024
     -2579.555       -2010.043
  -9867259.699 9  -7671575.96348  20878091.033    20878092.2674   20878098.5964
      2342.658        1825.448
    -93690.575 9    -68519.16748  20393585.684    20393586.9444   20393592.1594
      -773.144        -602.450
  -5871174.707 9  -4566378.89046  23559264.874    23559265.8864   23559272.3984
       969.353         755.340
 97  5  5 16 25 30.0000000  0  6 26  2 19  7 27 15                  -0.000001098
  -7853402.336 9  -6103589.89348  22776845.544    22776847.3234   22776852.6004
      1558.886        1214.716
  -2674947.052 9  -2077996.04948  21021324.108    21021325.2274   21021330.9294
       494.153         385.054
   7025300.846 9   5351374.92947  23348998.570    23349000.3704   23349007.6974
     -2587.102       -2015.924
  -9937314.794 9  -7726164.32548  20864759.968    20864761.2174   20864767.5424
      2327.613        1813.724
    -70255.575 9    -50258.14548  20398045.352    20398046.5424   20398051.7344
      -789.195        -614.957
  -5899987.686 9  -4588830.53246  23553781.959    23553782.9484   23553789.4704
       951.460         741.397
 97  5  5 16 25 59.9990000  0  6 26  2 19  7 27 15                  -0.000009498
  -7899910.710 9  -6139830.19348  22767995.234    22767997.0964   22768002.3594
      1542.002        1201.560
  -2689687.987 9  -2089482.49648  21018519.001    21018520.1734   21018525.8624
       488.952         381.002
   7103025.481 9   5411939.49747  23363789.051    23363790.8964   23363798.2324
     -2594.482       -2021.674
 -10006915.425 9  -7780398.56148  20851515.405    20851516.6424   20851522.9664
      2312.905        1802.264
    -46346.575 9    -31627.78148  20402595.221    20402596.3254   20402601.4894
      -804.487        -626.873
  -5928265.377 9  -4610865.07446  23548400.955    23548401.8084   23548408.4524
       934.029         727.815
 97  5  5 16 26 29.9990000  0  6 26  2 19  7 27 15                  -0.000017889
  -7945899.996 9  -6175666.01048  22759243.839    22759245.6504   22759250.9274
      1523.752        1187.339
  -2704274.578 9  -2100848.66948  21015743.454    21015744.4414   21015750.1554
       483.369         376.651
   7180977.507 9   5472681.24747  23378622.914    23378624.7014   23378632.0754
     -2602.303       -2027.769
 -10076082.405 9  -7834294.88148  20838353.353    20838354.6094   20838360.9054
      2298.299        1790.882
    -21983.269 9    -12643.40948  20407231.438    20407232.5254   20407237.7054
      -819.854        -638.847
  -5956017.684 9  -4632490.21846  23543119.920    23543120.7074   23543127.3214
       916.084         713.832
 97  5  5 16 26 59.9990000  0  6 26  2 19  7 27 15                  -0.000026263
  -7991350.031 9  -6211081.61248  22750595.085    22750596.8104   22750602.0574
      1505.651        1173.235
  -2718688.633 9  -2112080.40448  21013000.723    21013001.5714   21013007.2614
       476.786         371.522
   7259157.611 9   5533600.73047  23393500.142    23393501.9454   23393509.2664
     -2610.239       -2033.952
 -10144828.249 9  -7887863.04348  20825271.455    20825272.7034   20825279.0064
      2284.159        1779.864
      2827.598 9      6689.71248  20411952.776    20411953.9034   20411959.0544
      -834.929        -650.594
  -5983238.833 9  -4653701.47246  23537939.865    23537940.6384   23537947.2864
       897.908         699.668
 97  5  5 16 27 29.9990000  0  6 26  2 19  7 27 15                  -0.000034618
  -8036243.048 9  -6246063.20548  22742052.374    22742053.9874   22742059.1974
      1487.447        1159.050
  -2732881.433 9  -2123139.73148  21010299.740    21010300.7824   21010306.4794
       469.579         365.906
   7337582.446 9   5594710.91147  23408424.143    23408425.8254   23408433.0034
     -2617.897       -2039.920
 -10213143.475 9  -7941095.65648  20812271.446    20812272.7714   20812279.0814
      2270.145        1768.944
     28105.797 9     26386.98848  20416763.023    20416764.1714   20416769.3504
      -850.230        -662.517
  -6009899.305 9  -4674475.83846  23532866.439    23532867.3024   23532873.9014
       879.455         685.290
 97  5  5 16 27 59.9990000  0  6 26  2 19  7 27 15                  -0.000042989
  -8080622.843 9  -6280644.85648  22733607.390    22733608.7844   22733614.0174
      1470.263        1145.659
  -2746891.328 9  -2134056.53748  21007633.751    21007634.7744   21007640.4914
       463.473         361.148
   7416200.212 9   5655971.43047  23423384.738    23423386.4144   23423393.5044
     -2624.122       -2044.770
 -10281061.037 9  -7994018.40648  20799347.160    20799348.4814   20799354.7974
      2256.738        1758.497
     53819.670 9     46423.75148  20421656.165    20421657.3744   20421662.5724
      -865.037        -674.055
  -6036028.462 9  -4694836.18646  23527894.119    23527895.0484   23527901.6664
       861.463         671.270
 97  5  5 16 28 29.9990000  0  6 26  2 19  7 27 15                  -0.000051382
  -8124492.902 9  -6314829.32848  22725259.130    22725260.5744   22725265.8014
      1453.711        1132.762
  -2760710.450 9  -2144824.69248  21005004.111    21005005.0864   21005010.7574
       457.199         356.259
   7495002.076 9   5717375.40847  23438380.389    23438382.0474   23438389.0754
     -2629.977       -2049.333
 -10348572.887 9  -8046625.01648  20786500.098    20786501.4094   20786507.7024
      2243.264        1747.998
     79978.522 9     66807.24348  20426634.006    20426635.2034   20426640.4614
      -879.554        -685.367
  -6061613.891 9  -4714772.85346  23523025.395    23523026.2274   23523032.8774
       843.572         657.329
 97  5  5 16 28 59.9990000  0  6 26  2 19  7 27 15                  -0.000059803
  -8167863.287 9  -6348624.43448  22717005.892    22717007.3704   22717012.6094
      1437.414        1120.063
  -2774336.909 9  -2155442.71348  21002411.255    21002412.0684   21002417.7164
       451.248         351.622
   7573983.989 9   5778919.68047  23453410.469    23453411.8924   23453418.9374
     -2635.718       -2053.806
 -10415661.030 9  -8098901.46548  20773733.622    20773734.9724   20773741.2074
      2228.870        1736.782
    106577.630 9     87533.79948  20431695.663    20431696.8314   20431702.1524
      -894.085        -696.690
  -6086654.054 9  -4734284.62546  23518260.193    23518261.1794   23518267.8804
       825.518         643.261
 97  5  5 16 29 29.9990000  0  6 26  2 19  7 27 15                  -0.000068245
  -8210735.299 9  -6382031.21148  22708847.775    22708849.1134   22708854.3564
      1420.867        1107.169
  -2787791.025 9  -2165926.44548  20999851.032    20999851.8644   20999857.4924
       445.945         347.490
   7653144.999 9   5840603.50447  23468474.252    23468475.8444   23468482.8844
     -2641.751       -2058.507
 -10482299.087 9  -8150827.19548  20761052.883    20761054.1664   20761060.3654
      2213.747        1724.998
    133628.161 9    108612.11148  20436843.313    20436844.3954   20436849.7474
      -909.348        -708.583
  -6111143.331 9  -4753367.14246  23513599.922    23513600.9534   23513607.7194
       807.203         628.989
 97  5  5 16 29 59.9990000  0  6 26  2 19  7 27 15                  -0.000076701
  -8253100.660 9  -6415043.18548  22700786.010    22700787.2454   22700792.5524
      1403.697        1093.790
  -2801085.848 9  -2176286.04648  20997321.254    20997321.9254   20997327.5494
       440.699         343.402
   7732497.620 9   5902436.64847  23483574.587    23483576.1824   23483583.3364
     -2648.213       -2063.543
 -10548473.568 9  -8202391.69548  20748460.273    20748461.5314   20748467.7234
      2198.286        1712.950
    161151.922 9    130059.17448  20442080.933    20442082.0124   20442087.3924
      -925.233        -720.961
  -6135076.060 9  -4772015.98646  23509045.668    23509046.6934   23509053.4584
       788.608         614.500
 97  5  5 16 30 29.9990000  0  6 26  2 19  7 27 15                  -0.000085162
  -8294954.247 9  -6447656.37048  22692821.285    22692822.7484   22692828.1234
      1386.249        1080.194
  -2814223.984 9  -2186523.56348  20994820.912    20994821.8204   20994827.4294
       435.107         339.044
   7812055.274 9   5964429.54246  23498714.003    23498715.5344   23498722.7424
     -2655.852       -2069.495
 -10614186.545 9  -8253596.58248  20735955.438    20735956.7184   20735962.9374
      2182.427        1700.592
    189150.233 9    151876.01348  20447408.803    20447409.9024   20447415.3434
      -941.553        -733.678
  -6158453.219 9  -4790231.93646  23504597.151    23504598.1294   23504604.8994
       769.701         599.767
 97  5  5 16 30 59.9990000  0  6 26  2 19  7 27 15                  -0.000093616
  -8336285.977 9  -6479862.92248  22684956.201    22684957.6264   22684962.9814
      1369.583        1067.207
  -2827215.021 9  -2196646.45148  20992348.915    20992349.7414   20992355.3524
       431.127         335.943
   7891836.171 9   6026596.40446  23513896.015    23513897.3674   23513904.6294
     -2662.587       -2074.743
 -10679439.628 9  -8304443.11148  20723538.192    20723539.4664   20723545.6774
      2168.116        1689.441
    217637.076 9    174073.52548  20452829.667    20452830.8014   20452836.2394
      -957.392        -746.020
  -6181273.109 9  -4808013.63146  23500254.667    23500255.6314   23500262.3344
       751.851         585.858
 97  5  5 16 31 29.9990000  0  6 26  2 19  7 27 15                  -0.000102076
  -8377109.642 9  -6511673.57748  22677187.694    22677189.1334   22677194.4624
      1352.111        1053.593
  -2840077.635 9  -2206669.27348  20989901.126    20989902.0404   20989907.7034
       426.280         332.166
   7971823.571 9   6088924.16946  23529117.258    23529118.4664   23529125.7934
     -2669.852       -2080.404
 -10744265.703 9  -8354956.90648  20711202.178    20711203.4734   20711209.6934
      2153.683        1678.195
    246609.747 9    196649.60648  20458342.957    20458344.1374   20458349.5694
      -973.955        -758.926
  -6203552.149 9  -4825373.89646  23496015.086    23496016.1274   23496022.7334
       733.408         571.487
 97  5  5 16 31 59.9990000  0  6 26  2 19  7 27 15                  -0.000110525
  -8417402.384 9  -6543070.52948  22669520.105    22669521.7494   22669527.0434
      1334.268        1039.689
  -2852789.212 9  -2216574.40448  20987482.055    20987483.1224   20987488.7914
       421.494         328.437
   8052037.028 9   6151428.07546  23544381.368    23544382.6434   23544390.0084
     -2677.490       -2086.356
 -10808659.320 9  -8405133.72548  20698948.494    20698949.7774   20698955.9684
      2139.366        1667.038
    276069.720 9    219605.40148  20463949.155    20463950.2414   20463955.6604
      -989.671        -771.172
  -6225274.221 9  -4842300.16846  23491881.641    23491882.5294   23491889.1164
       714.943         557.098
 97  5  5 16 32 29.9990000  0  6 26  2 19  7 27 15                  -0.000118949
  -8457164.445 9  -6574053.94848  22661953.741    22661955.3494   22661960.6604
      1316.922        1026.173
  -2865362.964 9  -2226372.13748  20985089.366    20985090.4044   20985096.0474
       417.212         325.100
   8132486.422 9   6214115.83846  23559690.283    23559691.6784   23559699.1674
     -2685.322       -2092.459
 -10872614.954 9  -8454969.25448  20686778.161    20686779.4324   20686785.6004
      2124.737        1655.639
    305995.581 9    242924.23048  20469643.846    20469644.9554   20469650.3614
     -1004.927        -783.060
  -6246443.458 9  -4858795.64346  23487853.265    23487854.1604   23487860.6704
       696.773         542.940
 97  5  5 16 32 59.9990000  0  6 26  2 19  7 27 15                  -0.000127343
  -8496391.395 9  -6604620.41048  22654489.153    22654490.7024   22654496.0404
      1298.773        1012.031
  -2877805.377 9  -2236067.52948  20982721.722    20982722.7194   20982728.3334
       412.573         321.485
   8213171.245 9   6276987.04846  23575044.101    23575045.4934   23575053.0974
     -2693.231       -2098.622
 -10936120.961 9  -8504454.42448  20674693.360    20674694.6164   20674700.7864
      2109.276        1643.592
    336385.110 9    266604.35548  20475426.835    20475427.9484   20475433.3394
     -1020.547        -795.231
  -6267056.895 9  -4874858.03946  23483930.528    23483931.4974   23483938.0564
       677.893         528.228
 97  5  5 16 33 29.9990000  0  6 26  2 19  7 27 15                  -0.000135706
  -8535081.273 9  -6634768.37448  22647126.681    22647128.2244   22647133.5824
      1280.386         997.703
  -2890109.859 9  -2245655.44048  20980380.201    20980381.2584   20980386.8894
       407.487         317.522
   8294086.020 9   6340037.44946  23590441.587    23590443.0774   23590450.7934
     -2701.285       -2104.897
 -10999158.560 9  -8553574.60548  20662697.680    20662698.9424   20662705.0874
      2092.992        1630.903
    367230.287 9    290639.53648  20481296.464    20481297.6264   20481303.0234
     -1036.004        -807.276
  -6287108.645 9  -4890482.75046  23480114.670    23480115.7134   23480122.2354
       658.643         513.228
 97  5  5 16 33 59.9990000  0  6 26  2 19  7 27 15                  -0.000144039
  -8573234.774 9  -6664498.39448  22639866.293    22639867.8434   22639873.2214
      1263.162         984.282
  -2902275.030 9  -2255134.79748  20978065.286    20978066.3324   20978071.9404
       403.468         314.391
   8375228.714 9   6403265.43646  23605882.411    23605884.0564   23605891.8304
     -2708.065       -2110.180
 -11061718.494 9  -8602322.57748  20650792.902    20650794.1464   20650800.3154
      2077.669        1618.963
    398526.721 9    315026.34748  20487251.953    20487253.1324   20487258.5594
     -1050.635        -818.677
  -6306596.240 9  -4905667.86746  23476406.224    23476407.2134   23476413.8124
       640.549         499.129
 97  5  5 16 34 29.9990000  0  6 26  2 19  7 27 15                  -0.000152360
  -8610853.626 9  -6693811.78348  22632707.578    22632709.2454   22632714.7034
      1245.781         970.738
  -2914289.453 9  -2264496.68148  20975779.049    20975780.0604   20975785.6724
       398.249         310.324
   8456582.874 9   6466658.21346  23621363.538    23621365.3004   23621373.1584
     -2714.336       -2115.067
 -11123799.381 9  -8650697.26648  20638979.241    20638980.5364   20638986.7144
      2062.154        1606.873
    430299.676 9    339784.47348  20493298.257    20493299.3504   20493304.7734
     -1066.574        -831.097
  -6325517.987 9  -4920412.05846  23472805.580    23472806.5074   23472813.1054
       621.883         484.584
 97  5  5 16 34 59.9990000  0  6 26  2 19  7 27 15                  -0.000160704
  -8647955.106 9  -6722722.02348  22625647.442    22625649.0994   22625654.5744
      1228.066         956.935
  -2926142.366 9  -2273732.72048  20973523.694    20973524.5254   20973530.1424
       392.250         305.649
   8538099.050 9   6530177.23646  23636875.687    23636877.4844   23636885.2854
     -2719.771       -2119.302
 -11185431.152 9  -8698721.99148  20627251.109    20627252.4244   20627258.5884
      2047.060        1595.112
    462546.181 9    364911.59848  20499434.635    20499435.6914   20499441.0884
     -1082.755        -843.705
  -6343888.114 9  -4934726.42046  23469309.805    23469310.8104   23469317.3014
       603.149         469.986
 97  5  5 16 35 29.9990000  0  6 26  2 19  7 27 15                  -0.000169078
  -8684529.669 9  -6751221.69548  22618687.605    22618689.2224   22618694.6404
      1210.373         943.148
  -2937808.186 9  -2282822.97048  20971303.827    20971304.5944   20971310.2094
       385.581         300.453
   8619771.755 9   6593818.22546  23652417.781    23652419.2994   23652427.1594
     -2724.998       -2123.375
 -11246620.776 9  -8746402.19348  20615607.138    20615608.4414   20615614.5734
      2032.395        1583.684
    495275.394 9    390414.85448  20505662.827    20505663.8774   20505669.2514
     -1099.114        -856.452
  -6361702.222 9  -4948607.52246  23465920.174    23465920.9504   23465927.3154
       584.520         455.470
 97  5  5 16 35 59.9990000  0  6 26  2 19  7 27 15                  -0.000177486
  -8720571.510 9  -6779306.25248  22611829.242    22611830.6734   22611836.1194
      1192.620         929.314
  -2949268.348 9  -2291752.96448  20969123.340    20969123.7804   20969129.4074
       378.682         295.077
   8701603.919 9   6657583.46746  23667989.850    23667991.5904   23667999.3194
     -2730.381       -2127.570
 -11307371.952 9  -8793740.74248  20604046.567    20604047.8684   20604053.9984
      2017.899        1572.389
    528500.534 9    416304.54848  20511985.316    20511986.4164   20511991.8094
     -1115.740        -869.408
  -6378953.133 9  -4962049.75946  23462637.286    23462638.2114   23462644.5534
       565.733         440.831
 97  5  5 16 36 29.9990000  0  6 26  2 19  7 27 15                  -0.000185923
  -8756080.187 9  -6806975.36148  22605072.238    22605073.5934   22605079.0904
      1174.618         915.287
  -2960519.709 9  -2300520.25748  20966982.139    20966982.7164   20966988.3734
       371.255         289.290
   8783603.762 9   6721479.38346  23683594.116    23683595.7514   23683603.4144
     -2736.647       -2132.452
 -11367687.804 9  -8840740.08048  20592568.846    20592570.1104   20592576.2634
      2002.852        1560.664
    562223.235 9    442581.95248  20518402.537    20518403.6314   20518409.0534
     -1132.445        -882.425
  -6395638.251 9  -4975051.12246  23459462.211    23459463.1374   23459469.4294
       546.382         425.752
 97  5  5 16 36 59.9990000  0  6 26  2 19  7 27 15                  -0.000194379
  -8791060.820 9  -6834233.00148  22598415.559    22598416.9854   22598422.5244
      1157.513         901.958
  -2971563.512 9  -2309125.81948  20964880.587    20964881.1734   20964886.8324
       365.280         284.634
   8865792.063 9   6785522.13446  23699234.095    23699235.7294   23699243.3564
     -2742.537       -2137.042
 -11427552.635 9  -8887387.97248  20581176.962    20581178.2024   20581184.3344
      1988.253        1549.288
    596422.427 9    469230.65048  20524910.482    20524911.5684   20524916.9784
     -1147.292        -893.994
  -6411750.656 9  -4987606.21746  23456396.121    23456397.0414   23456403.3424
       527.923         411.369
 97  5  5 16 37 29.9990000  0  6 26  2 19  7 27 15                  -0.000202847
  -8825528.259 9  -6861090.76348  22591856.725    22591858.0134   22591863.5544
      1140.206         888.472
  -2982435.738 9  -2317597.68248  20962811.899    20962812.2624   20962817.8994
       359.498         280.128
   8948163.117 9   6849707.30446  23714908.848    23714910.4554   23714918.0984
     -2749.028       -2142.100
 -11486974.500 9  -8933690.69748  20569869.345    20569870.5674   20569876.7244
      1973.076        1537.462
    631058.709 9    496219.94148  20531501.601    20531502.6744   20531508.0794
     -1161.941        -905.409
  -6427308.026 9  -4999728.82646  23453435.706    23453436.5924   23453442.7954
       509.063         396.672
 97  5  5 16 37 59.9990000  0  6 26  2 19  7 27 15                  -0.000211304
  -8859465.859 9  -6887535.65448  22585398.385    22585399.8714   22585405.4264
      1122.286         874.509
  -2993130.797 9  -2325931.49248  20960776.523    20960777.0274   20960782.7034
       353.538         275.484
   9030747.845 9   6914058.96146  23730624.382    23730625.8274   23730633.5234
     -2756.553       -2147.963
 -11545924.795 9  -8979625.96748  20558651.416    20558652.6614   20558658.8184
      1957.024        1524.954
    666138.931 9    523555.15548  20538177.165    20538178.2474   20538183.6434
     -1176.814        -916.998
  -6442286.029 9  -5011399.96746  23450585.592    23450586.3434   23450592.5594
       489.522         381.446
 97  5  5 16 38 29.9990000  0  6 26  2 19  7 27 15                  -0.000219754
  -8892881.702 9  -6913573.97848  22579039.495    22579041.0534   22579046.6364
      1105.162         861.165
  -3003661.845 9  -2334137.50548  20958772.418    20958773.0204   20958778.6864
       348.146         271.283
   9113538.238 9   6978570.88846  23746378.814    23746380.3724   23746388.0954
     -2763.043       -2153.021
 -11604410.153 9  -9025198.95048  20547522.010    20547523.2484   20547529.3844
      1941.555        1512.900
    701644.503 9    551221.81848  20544933.681    20544934.8004   20544940.1444
     -1190.409        -927.591
  -6456697.719 9  -5022629.83046  23447843.029    23447843.8764   23447850.0784
       470.945         366.970
 97  5  5 16 38 59.9990000  0  6 26  2 19  7 27 15                  -0.000228199
  -8925771.258 9  -6939202.21148  22572780.869    22572782.3574   22572787.9184
      1087.280         847.231
  -3014030.139 9  -2342216.70048  20956799.428    20956800.0264   20956805.6364
       342.982         267.259
   9196519.829 9   7043231.77946  23762169.759    23762171.2484   23762179.0034
     -2769.187       -2157.808
 -11662426.035 9  -9070406.10848  20536481.934    20536483.1384   20536489.2774
      1926.181        1500.920
    737555.584 9    579204.45648  20551767.408    20551768.4784   20551773.8334
     -1203.963        -938.153
  -6470549.052 9  -5033423.05646  23445207.346    23445208.0614   23445214.2914
       452.445         352.555
 97  5  5 16 39 29.9990000  0  6 26  2 19  7 27 15                  -0.000236633
  -8958119.798 9  -6964408.87848  22566624.950    22566626.6344   22566632.1864
      1069.221         833.159
  -3024238.297 9  -2350171.11148  20954856.827    20954857.5154   20954863.0744
       337.308         262.837
   9279696.364 9   7108044.58246  23777997.466    23777999.1734   23778007.0814
     -2776.074       -2163.175
 -11719980.242 9  -9115253.51548  20525529.701    20525530.9114   20525537.0834
      1910.470        1488.678
    773889.064 9    607516.23548  20558681.492    20558682.5144   20558687.8874
     -1218.718        -949.650
  -6483841.138 9  -5043780.50846  23442677.865    23442678.6444   23442684.8904
       433.418         337.728
 97  5  5 16 39 59.9990000  0  6 26  2 19  7 27 15                  -0.000245054
  -8989924.780 9  -6989191.98148  22560572.583    22560574.3274   22560579.9224
      1050.690         818.719
  -3034271.398 9  -2357989.11248  20952947.377    20952948.2634   20952953.8334
       331.179         258.062
   9363088.318 9   7173025.23846  23793866.457    23793868.1384   23793876.1504
     -2783.530       -2168.984
 -11777054.206 9  -9159726.71348  20514668.853    20514670.0644   20514676.2294
      1894.107        1475.928
    810684.435 9    636187.92748  20565683.427    20565684.4424   20565689.8374
     -1234.802        -962.183
  -6496558.824 9  -5053690.38346  23440257.729    23440258.4874   23440264.8044
       413.998         322.596
 97  5  5 16 40 29.9990000  0  6 26  2 19  7 27 15                  -0.000253451
  -9021161.250 9  -7013532.10148  22554628.618    22554630.2684   22554635.8444
      1032.161         804.281
  -3044115.108 9  -2365659.53348  20951074.039    20951075.0444   20951080.6144
       325.554         253.678
   9446705.602 9   7238181.48146  23809778.376    23809780.0344   23809787.9734
     -2790.438       -2174.367
 -11833632.041 9  -9203813.31548  20503902.446    20503903.6814   20503909.8214
      1878.152        1463.495
    847973.693 9    665244.47248  20572779.241    20572780.3354   20572785.7874
     -1250.674        -974.551
  -6508684.562 9  -5063138.99646  23437950.283    23437951.0504   23437957.3794
       394.742         307.591
 97  5  5 16 40 59.9990000  0  6 26  2 19  7 27 15                  -0.000261834
  -9051849.293 9  -7037444.86848  22548789.050    22548790.5744   22548796.1014
      1013.245         789.542
  -3053813.193 9  -2373216.48548  20949228.362    20949229.6004   20949235.1614
       320.470         249.717
   9530515.499 9   7303487.81046  23825727.031    23825728.5584   23825736.5534
     -2797.474       -2179.850
 -11889745.401 9  -9247537.98948  20493224.400    20493225.6324   20493231.7254
      1862.365        1451.194
    885735.373 9    694669.13348  20579965.020    20579966.1574   20579971.6244
     -1267.449        -987.623
  -6520243.955 9  -5072146.30146  23435750.619    23435751.3784   23435757.6664
       375.326         292.462
 97  5  5 16 41 29.9990000  0  6 26  2 19  7 27 15                  -0.000270202
  -9081990.018 9  -7060931.16048  22543053.758    22543055.0634   22543060.4954
       995.219         775.495
  -3063365.587 9  -2380659.91148  20947410.483    20947411.8804   20947417.3964
       315.374         245.746
   9614523.834 9   7368948.77046  23841713.485    23841714.8774   23841722.9924
     -2803.760       -2184.748
 -11945396.716 9  -9290902.63048  20482634.264    20482635.5574   20482641.5854
      1846.754        1439.029
    923995.875 9    724482.49148  20587245.694    20587246.8864   20587252.3984
     -1284.126       -1000.618
  -6531226.560 9  -5080704.17046  23433660.731    23433661.4744   23433667.7484
       355.868         277.300
 97  5  5 16 41 59.9990000  0  6 26  2 19  7 27 15                  -0.000278556
  -9111574.976 9  -7083984.38548  22537424.041    22537425.2414   22537430.6604
       976.905         761.225
  -3072757.587 9  -2387978.35948  20945623.461    20945624.6614   20945630.1244
       310.535         241.975
   9698723.437 9   7434558.75346  23857736.112    23857737.6084   23857745.7884
     -2809.539       -2189.251
 -12000575.254 9  -9333898.87248  20472134.172    20472135.4344   20472141.4734
      1831.727        1427.320
    962760.275 9    754688.49548  20594622.366    20594623.4904   20594629.0504
     -1300.231       -1013.167
  -6541614.797 9  -5088798.89546  23431683.845    23431684.6404   23431690.8784
       336.580         262.270
 97  5  5 16 42 29.9990000  0  6 26  2 19  7 27 15                  -0.000286901
  -9140611.378 9  -7106610.15948  22531898.470    22531899.8294   22531905.2464
       959.066         747.324
  -3081993.276 9  -2395175.00448  20943865.899    20943867.1404   20943872.5934
       305.198         237.817
   9783092.458 9   7500300.75446  23873791.167    23873792.5384   23873800.8134
     -2814.999       -2193.506
 -12055306.092 9  -9376546.25548  20461719.245    20461720.5044   20461726.5504
      1816.906        1415.771
   1001997.250 9    785262.73248  20602088.967    20602090.0594   20602095.6484
     -1315.504       -1025.068
  -6551424.053 9  -5096442.47346  23429817.313    23429817.9834   23429824.2814
       317.432         247.350
 97  5  5 16 42 59.9990000  0  6 26  2 19  7 27 15                  -0.000295261
  -9169127.765 9  -7128830.73148  22526472.106    22526473.3804   22526478.7554
       941.938         733.978
  -3091065.602 9  -2402244.35348  20942139.482    20942140.7504   20942146.1774
       299.542         233.409
   9867617.905 9   7566164.65946  23889875.643    23889877.2834   23889885.5604
     -2820.249       -2197.597
 -12109585.564 9  -9418841.92248  20451390.172    20451391.4524   20451397.5064
      1801.707        1403.928
   1041695.564 9    816196.45848  20609643.250    20609644.4344   20609650.0174
     -1331.166       -1037.272
  -6560659.893 9  -5103639.21946  23428059.802    23428060.4914   23428066.7824
       298.189         232.355
 97  5  5 16 43 29.9990000  0  6 26  2 19  7 27 15                  -0.000303648
  -9197139.480 9  -7150658.05348  22521141.903    22521142.9644   22521148.3174
       925.581         721.232
  -3099964.465 9  -2409178.53948  20940446.244    20940447.3304   20940452.7614
       293.907         229.018
   9952301.159 9   7632151.52446  23905990.549    23905992.1614   23906000.4394
     -2825.133       -2201.402
 -12163409.609 9  -9460782.71748  20441147.860    20441149.0524   20441155.1244
      1786.526        1392.098
   1081857.562 9    847491.49748  20617285.901    20617287.0424   20617292.6224
     -1346.210       -1048.995
  -6569322.221 9  -5110389.09046  23426411.480    23426412.0914   23426418.3414
       279.409         217.721
 97  5  5 16 43 59.9990000  0  6 26  2 19  7 27 15                  -0.000312057
  -9224639.841 9  -7172086.92148  22515908.755    22515909.8474   22515915.1634
       907.674         707.278
  -3108685.371 9  -2415974.05548  20938786.414    20938787.7604   20938793.2554
       287.466         223.999
  10037154.281 9   7698270.75746  23922138.043    23922139.3624   23922147.6034
     -2831.739       -2206.550
 -12216758.699 9  -9502353.41648  20430995.771    20430997.0414   20431003.1514
      1770.054        1379.263
   1122486.826 9    879150.63548  20625017.465    20625018.5714   20625024.1574
     -1362.462       -1061.659
  -6577407.525 9  -5116689.34246  23424872.756    23424873.5134   23424879.7974
       259.616         202.298
 97  5  5 16 44 29.9990000  0  6 26  2 19  7 27 15                  -0.000320477
  -9251614.100 9  -7193105.83148  22510775.720    22510776.8194   22510782.1354
       890.500         693.896
  -3117217.412 9  -2422622.40048  20937162.982    20937164.1654   20937169.7054
       281.460         219.319
  10122199.668 9   7764539.80746  23938321.731    23938323.1954   23938331.2674
     -2837.959       -2211.397
 -12269614.057 9  -9543539.38348  20420937.805    20420938.9984   20420945.0694
      1753.546        1366.399
   1163595.931 9    911183.67748  20632840.278    20632841.3934   20632847.0034
     -1378.270       -1073.977
  -6584905.425 9  -5122531.87046  23423446.012    23423446.7044   23423453.0134
       240.127         187.112
 97  5  5 16 44 59.9990000  0  6 26  2 19  7 27 15                  -0.000328904
  -9278062.579 9  -7213715.05348  22505742.682    22505743.8674   22505749.1344
       871.958         679.448
  -3125579.626 9  -2429138.41848  20935571.954    20935572.9034   20935578.4804
       275.453         214.639
  10207431.898 9   7830954.44046  23954540.919    23954542.4794   23954550.5074
     -2844.812       -2216.737
 -12321975.410 9  -9584340.41848  20410973.670    20410974.9344   20410980.9574
      1736.764        1353.322
   1205182.458 9    943588.73748  20640753.943    20640755.0814   20640760.6944
     -1394.748       -1086.817
  -6591819.373 9  -5127919.38346  23422130.496    23422131.0174   23422137.3054
       220.142         171.539
 97  5  5 16 45 29.9990000  0  6 26  2 19  7 27 15                  -0.000337308
  -9303949.505 9  -7233886.69548  22500816.457    22500817.7804   22500823.0084
       853.565         665.115
  -3133769.942 9  -2435520.48448  20934013.382    20934014.3304   20934019.9114
       270.155         210.510
  10292866.303 9   7897526.62746  23970798.703    23970800.2174   23970808.1724
     -2851.059       -2221.604
 -12373851.541 9  -9624763.35148  20401102.015    20401103.2414   20401109.2284
      1721.168        1341.170
   1247249.289 9    976368.06448  20648759.057    20648760.1614   20648765.7934
     -1410.055       -1098.744
  -6598142.231 9  -5132846.30146  23420927.091    23420927.7944   23420934.0854
       200.959         156.591
 97  5  5 16 45 59.9990000  0  6 26  2 19  7 27 15                  -0.000345689
  -9329272.920 9  -7253619.24348  22495997.617    22495998.9164   22496004.1124
       835.064         650.699
  -3141795.115 9  -2441773.87648  20932486.198    20932487.2304   20932492.7434
       265.069         206.547
  10378489.565 9   7964245.95246  23987092.655    23987093.8864   23987101.7654
     -2856.655       -2225.965
 -12425256.954 9  -9664819.49348  20391319.897    20391321.1044   20391327.0804
      1706.324        1329.603
   1289776.690 9   1009506.27748  20656851.770    20656852.8804   20656858.5514
     -1424.772       -1110.212
  -6603880.760 9  -5137317.90846  23419834.970    23419835.7964   23419842.0514
       181.929         141.763
 97  5  5 16 46 29.9990000  0  6 26  2 19  7 27 15                  -0.000354062
  -9354045.125 9  -7272922.26948  22491283.451    22491284.8924   22491290.1354
       817.205         636.783
  -3149651.996 9  -2447896.12548  20930991.079    20930992.1674   20930997.6394
       259.574         202.265
  10464276.037 9   8031092.47346  24003417.217    24003418.5634   24003426.4714
     -2861.662       -2229.866
 -12476216.741 9  -9704528.39948  20381622.540    20381623.7964   20381629.7434
      1691.740        1318.239
   1332747.360 9   1042989.89048  20665028.833    20665029.9494   20665035.6414
     -1439.190       -1121.447
  -6609043.895 9  -5141341.15746  23418852.595    23418853.2784   23418859.5444
       163.053         127.054
 97  5  5 16 46 59.9990000  0  6 26  2 19  7 27 15                  -0.000362425
  -9378259.225 9  -7291790.42148  22486675.662    22486677.0944   22486682.3104
       798.148         621.933
  -3157328.203 9  -2453877.59348  20929530.394    20929531.4254   20929536.8944
       253.169         197.275
  10550224.458 9   8098065.18346  24019772.347    24019773.9944   24019782.0094
     -2867.340       -2234.291
 -12526727.721 9  -9743887.58048  20372010.672    20372011.8894   20372017.8034
      1676.643        1306.475
   1376171.167 9   1076826.60048  20673292.066    20673293.2564   20673298.9644
     -1454.768       -1133.585
  -6613625.253 9  -5144911.06646  23417980.775    23417981.4404   23417987.8084
       143.336         111.690
 97  5  5 16 47 29.9990000  0  6 26  2 19  7 27 15                  -0.000370781
  -9401919.462 9  -7310226.98448  22482173.146    22482174.7394   22482179.9154
       780.095         607.866
  -3164818.409 9  -2459714.12348  20928105.389    20928106.0964   20928111.5794
       246.910         192.397
  10636339.481 9   8165167.69646  24036159.677    24036161.2314   24036169.1374
     -2872.929       -2238.646
 -12576788.677 9  -9782896.09648  20362484.313    20362485.6264   20362491.4794
      1661.269        1294.495
   1420062.137 9   1111027.32748  20681644.282    20681645.4634   20681651.1814
     -1470.589       -1145.914
  -6617619.741 9  -5148023.69046  23417220.736    23417221.3884   23417227.7044
       123.597          96.309
 97  5  5 16 47 59.9990000  0  6 26  2 19  7 27 15                  -0.000379149
  -9425057.315 9  -7328256.49948  22477770.245    22477771.7724   22477776.9414
       762.083         593.831
  -3172133.729 9  -2465414.38048  20926713.289    20926714.0634   20926719.4974
       240.434         187.351
  10722604.267 9   8232386.91946  24052575.537    24052576.8294   24052584.7354
     -2878.469       -2242.963
 -12626395.091 9  -9821550.42148  20353044.582    20353045.8424   20353051.6894
      1645.453        1282.171
   1464416.360 9   1145589.03148  20690084.756    20690085.8454   20690091.5534
     -1486.717       -1158.481
  -6621033.423 9  -5150683.73046  23416571.194    23416571.7924   23416578.1734
       103.643          80.761
 97  5  5 16 48 29.9990000  0  6 26  2 19  7 27 15                  -0.000387529
  -9447673.970 9  -7345879.87148  22473466.526    22473467.9414   22473473.1814
       744.764         580.336
  -3179272.009 9  -2470976.69148  20925354.869    20925355.7174   20925361.0934
       234.666         182.857
  10809029.020 9   8299730.79346  24069021.856    24069022.9604   24069030.8734
     -2884.222       -2247.446
 -12675534.480 9  -9859840.83248  20343693.639    20343694.8854   20343700.7514
      1629.612        1269.828
   1509238.509 9   1180515.34648  20698614.085    20698615.2464   20698620.9584
     -1502.317       -1170.637
  -6623863.046 9  -5152888.65546  23416032.623    23416033.3524   23416039.6764
        84.127          65.553
 97  5  5 16 48 59.9990000  0  6 26  2 19  7 27 15                  -0.000395902
  -9469754.425 9  -7363085.44148  22469264.553    22469266.1664   22469271.4644
       726.737         566.288
  -3186231.905 9  -2476399.98548  20924030.266    20924031.2484   20924036.6724
       228.807         178.291
  10895647.072 9   8367225.28246  24085504.669    24085505.7574   24085513.8764
     -2890.889       -2252.641
 -12724183.010 9  -9897748.75748  20334436.205    20334437.4034   20334443.2194
      1613.081        1256.946
   1554542.587 9   1215817.19448  20707235.217    20707236.3464   20707242.0574
     -1518.430       -1183.192
  -6626093.573 9  -5154626.76646  23415608.238    23415608.9484   23415615.2264
        64.028          49.892
 97  5  5 16 49 29.9990000  0  6 26  2 19  7 27 15                  -0.000404263
  -9491296.181 9  -7379871.24048  22465165.158    22465166.9294   22465172.2594
       709.174         552.603
  -3193015.614 9  -2481686.00248  20922739.440    20922740.3094   20922745.7524
       223.157         173.889
  10982469.087 9   8434878.71446  24102026.206    24102027.4574   24102035.5184
     -2897.246       -2257.594
 -12772328.055 9  -9935264.35748  20325274.516    20325275.7024   20325281.5074
      1596.383        1243.935
   1600327.053 9   1251493.37048  20715947.762    20715948.8664   20715954.5694
     -1533.891       -1195.240
  -6627719.357 9  -5155893.64946  23415298.921    23415299.5584   23415305.8624
        44.255          34.484
 97  5  5 16 49 59.9990000  0  6 26  2 19  7 27 15                  -0.000412605
  -9512280.998 9  -7396223.06548  22461172.113    22461173.6724   22461179.0104
       690.411         537.983
  -3199607.921 9  -2486822.87148  20921485.131    20921485.8524   20921491.2404
       216.960         169.060
  11069497.788 9   8502693.20746  24118586.887    24118588.4374   24118596.6104
     -2903.993       -2262.852
 -12819954.604 9  -9972375.93648  20316211.459    20316212.6324   20316218.4464
      1579.506        1230.784
   1646584.934 9   1287538.44048  20724750.378    20724751.4564   20724757.1394
     -1549.388       -1207.315
  -6628735.214 9  -5156685.25746  23415105.407    23415106.1734   23415112.5614
        24.163          18.828
 97  5  5 16 50 29.9990000  0  6 26  2 19  7 27 15                  -0.000420923
  -9532700.816 9  -7412134.62248  22457286.539    22457287.9584   22457293.2884
       671.413         523.179
  -3206019.164 9  -2491818.65248  20920264.937    20920265.8414   20920271.2234
       211.003         164.418
  11156728.121 8   8570664.78946  24135186.173    24135187.8024   24135196.2244
     -2910.706       -2268.082
 -12867075.998 9 -10009093.88848  20307244.446    20307245.6384   20307251.4924
      1562.482        1217.518
   1693302.558 9   1323941.75848  20733640.418    20733641.5304   20733647.2104
     -1564.711       -1219.255
  -6629153.194 9  -5157010.98646  23415025.985    23415026.6054   23415033.0774
         4.220           3.288
 97  5  5 16 50 59.9990000  0  6 26  2 19  7 27 15                  -0.000429220
  -9552550.832 9  -7427602.17248  22453509.216    22453510.6544   22453515.9924
       651.552         507.703
  -3212261.978 9  -2496683.18848  20919076.886    20919077.8994   20919083.2724
       204.770         159.561
  11244136.531 9   8638775.14846  24151819.470    24151821.2134   24151829.5244
     -2916.686       -2272.742
 -12913701.550 9 -10045425.47348  20298371.802    20298373.0324   20298378.9104
      1545.476        1204.267
   1740470.970 9   1360696.33648  20742616.337    20742617.4204   20742623.0664
     -1580.277       -1231.385
  -6628984.834 9  -5156879.82646  23415057.795    23415058.6974   23415065.1774
       -15.828         -12.334
 97  5  5 16 51 29.9990000  0  6 26  2 19  7 27 15                  -0.000437486
  -9571800.863 9  -7442602.21748  22449846.081    22449847.5154   22449852.8084
       631.500         492.078
  -3218309.982 9  -2501395.92548  20917926.181    20917927.0544   20917932.3984
       197.943         154.241
  11331719.891 9   8707021.83546  24168486.160    24168487.7564   24168496.1774
     -2922.537       -2277.302
 -12959817.770 9 -10081360.17148  20289596.149    20289597.3994   20289603.2954
      1528.506        1191.044
   1788113.264 9   1397820.17148  20751682.341    20751683.4754   20751689.0794
     -1596.251       -1243.832
  -6628211.701 9  -5156277.41146  23415205.122    23415205.8414   23415212.3334
       -36.132         -28.155
 97  5  5 16 51 59.9990000  0  6 26  2 19  7 27 15                  -0.000445744
  -9590482.363 9  -7457159.24448  22446291.019    22446292.5554   22446297.8014
       613.272         477.874
  -3224174.200 9  -2505965.45148  20916810.104    20916811.1364   20916816.5084
       192.386         149.911
  11419449.050 9   8775382.12746  24185180.976    24185182.3304   24185190.6014
     -2926.882       -2280.687
 -13005455.345 9 -10116921.90448  20280911.648    20280912.8504   20280918.7394
      1513.309        1179.202
   1836203.127 9   1435292.75948  20760833.638    20760834.6904   20760840.2894
     -1610.520       -1254.951
  -6626859.268 9  -5155223.57946  23415462.344    23415463.1814   23415469.7344
       -54.781         -42.686
 97  5  5 16 52 29.9990000  0  6 26  2 19  7 27 15                  -0.000453998
  -9608607.032 9  -7471282.38548  22442842.065    22442843.5234   22442848.7534
       594.596         463.322
  -3229860.031 9  -2510395.97948  20915728.476    20915729.1474   20915734.5564
       186.203         145.093
  11507325.962 9   8843857.54646  24201903.570    24201904.8644   24201913.2284
     -2931.966       -2284.649
 -13050619.794 9 -10152114.96748  20272317.081    20272318.3734   20272324.2444
      1497.160        1166.618
   1884736.280 9   1473110.76848  20770069.137    20770070.2364   20770075.8334
     -1625.563       -1266.672
  -6624931.338 9  -5153721.32446  23415829.163    23415830.0264   23415836.6824
       -74.273         -57.875
 97  5  5 16 52 59.9990000  0  6 26  2 19  7 27 15                  -0.000462246
  -9626171.374 9  -7484968.90148  22439499.710    22439501.1084   22439506.3904
       576.562         449.269
  -3235356.700 9  -2514679.10648  20914682.287    20914683.1334   20914688.5844
       180.358         140.539
  11595356.069 9   8912452.33646  24218655.087    24218656.6574   24218664.9624
     -2936.688       -2288.328
 -13095303.402 9 -10186933.34648  20263814.147    20263815.3494   20263821.2034
      1481.699        1154.571
   1933729.001 9   1511286.88248  20779392.158    20779393.2114   20779398.8264
     -1640.610       -1278.397
  -6622416.247 9  -5151761.52646  23416307.732    23416308.6364   23416315.3294
       -93.457         -72.824
 97  5  5 16 53 29.9990000  0  6 26  2 19  7 27 15                  -0.000470499
  -9643207.342 9  -7498243.69448  22436257.858    22436259.3194   22436264.5134
       558.274         435.019
  -3240677.846 9  -2518825.45948  20913670.024    20913670.6024   20913676.0314
       173.499         135.194
  11683540.592 8   8981167.45746  24235435.973    24235437.7104   24235446.1764
     -2943.184       -2293.390
 -13139520.593 9 -10221388.28648  20255399.774    20255401.0844   20255406.9104
      1465.189        1141.706
   1983175.243 9   1549816.39048  20788801.465    20788802.5234   20788808.1554
     -1656.645       -1290.892
  -6619318.896 9  -5149348.01647  23416897.037    23416898.0884   23416904.8094
      -113.964         -88.803
 97  5  5 16 53 59.9990000  0  6 26  2 19  7 27 15                  -0.000478733
  -9659687.881 9  -7511085.69248  22433121.781    22433123.1954   22433128.3384
       539.744         420.580
  -3245793.789 9  -2522811.91848  20912696.426    20912697.1084   20912702.5214
       167.136         130.236
  11771919.753 9   9050034.21646  24252254.094    24252255.8884   24252264.2174
     -2949.182       -2298.064
 -13183235.022 9 -10255451.46548  20247081.230    20247082.4964   20247088.3304
      1448.576        1128.761
   2033100.084 9   1588718.82348  20798301.945    20798302.9424   20798308.5494
     -1672.382       -1303.155
  -6615604.550 9  -5146453.73147  23417604.003    23417604.9344   23417611.6324
      -134.292        -104.643
 97  5  5 16 54 29.9990000  0  6 26  2 19  7 27 15                  -0.000486957
  -9675626.718 9  -7523505.58748  22430088.870    22430090.1264   22430095.2864
       522.676         407.280
  -3250748.262 9  -2526672.55448  20911753.602    20911754.3454   20911759.7644
       162.917         126.948
  11860453.934 9   9119021.80246  24269101.770    24269103.3814   24269111.9564
     -2953.272       -2301.251
 -13226473.054 9 -10289143.42648  20238853.320    20238854.5944   20238860.3884
      1433.677        1117.151
   2083488.627 9   1627982.60448  20807890.574    20807891.5904   20807897.2274
     -1687.138       -1314.653
  -6611296.682 9  -5143096.96847  23418423.931    23418424.7804   23418431.4524
      -153.190        -119.369
 97  5  5 16 54 59.9990000  0  6 26  2 19  7 27 15                  -0.000495170
  -9691026.260 9  -7535505.25248  22427158.491    22427159.7144   22427164.8524
       504.484         393.104
  -3255547.112 9  -2530411.92748  20910840.525    20910841.1814   20910846.6104
       157.406         122.654
  11949137.956 9   9188126.11746  24285977.810    24285979.5914   24285988.0854
     -2958.641       -2305.435
 -13269231.275 9 -10322461.50548  20230716.800    20230717.9674   20230723.7924
      1417.304        1104.393
   2134355.884 9   1667619.40448  20817570.275    20817571.3514   20817576.9924
     -1703.478       -1327.385
  -6606388.823 9  -5139272.67447  23419357.943    23419358.8094   23419365.4004
      -173.583        -135.259
 97  5  5 16 55 29.9990000  0  6 26  2 19  7 27 15                  -0.000503377
  -9705898.200 9  -7547093.79448  22424328.310    22424329.7044   22424334.8414
       486.347         378.972
  -3260190.853 9  -2534030.43348  20909956.498    20909957.4954   20909962.9564
       151.685         118.196
  12037968.789 9   9257344.84446  24302881.941    24302883.6264   24302892.1434
     -2963.737       -2309.405
 -13311518.585 9 -10355412.63748  20222669.747    20222670.9364   20222676.7894
      1401.391        1091.993
   2185689.147 9   1707619.32548  20827338.719    20827339.7884   20827345.4204
     -1719.184       -1339.624
  -6600888.074 9  -5134986.37946  23420404.602    23420405.5664   23420412.1504
      -193.580        -150.841
 97  5  5 16 55 59.9990000  0  6 26  2 19  7 27 15                  -0.000511575
  -9720225.398 9  -7558257.86548  22421601.802    22421603.3344   22421608.5254
       468.706         365.225
  -3264668.676 9  -2537519.65648  20909104.220    20909105.4344   20909110.8584
       146.851         114.429
  12126938.673 9   9326671.91146  24319812.812    24319814.1424   24319822.6594
     -2967.684       -2312.481
 -13353331.971 9 -10387994.48048  20214712.917    20214714.1094   20214719.9574
      1386.098        1080.076
   2237491.593 9   1747984.84448  20837196.518    20837197.5064   20837203.1204
     -1734.501       -1351.559
  -6594797.848 9  -5130240.76446  23421563.757    23421564.5184   23421571.1184
      -212.555        -165.627
 97  5  5 16 56 29.9990000  0  6 26  2 19  7 27 15                  -0.000519763
  -9734013.761 9  -7569002.06048  22418977.925    22418979.4434   22418984.7554
       450.456         351.005
  -3268994.205 9  -2540890.20648  20908281.416    20908282.3454   20908287.7634
       141.236         110.054
  12216048.284 8   9396107.83946  24336769.683    24336771.1774   24336779.7854
     -2973.145       -2316.736
 -13394679.726 9 -10420213.49548  20206844.664    20206845.8824   20206851.7214
      1370.238        1067.718
   2289768.064 9   1788719.73848  20847144.326    20847145.4004   20847150.9914
     -1750.515       -1364.038
  -6588128.063 9  -5125043.54346  23422832.939    23422833.6814   23422840.2994
      -232.207        -180.941
 97  5  5 16 56 59.9990000  0  6 26  2 19  7 27 15                  -0.000527937
  -9747256.089 9  -7579320.78548  22416457.887    22416459.4864   22416464.8674
       432.308         336.863
  -3273137.373 9  -2544118.66048  20907493.282    20907493.9324   20907499.3674
       134.822         105.056
  12305331.396 8   9465678.95946  24353759.436    24353761.1284   24353769.7654
     -2978.874       -2321.200
 -13435552.250 9 -10452062.20348  20199066.807    20199068.0834   20199073.8934
      1354.639        1055.563
   2342512.635 9   1829819.37748  20857181.267    20857182.3724   20857187.9924
     -1765.617       -1375.805
  -6580871.576 9  -5119389.14846  23424213.689    23424214.5114   23424221.1674
      -251.541        -196.006
 97  5  5 16 57 29.9990000  0  6 26  2 19  7 27 15                  -0.000536097
  -9759947.025 9  -7589209.85648  22414042.878    22414044.5194   22414049.8974
       413.332         322.077
  -3277084.192 9  -2547194.11848  20906742.120    20906742.8974   20906748.3424
       127.979          99.724
  12394779.490 8   9535378.64746  24370780.954    24370782.5824   24370791.2704
     -2984.637       -2325.691
 -13475956.901 9 -10483546.33548  20191377.995    20191379.2924   20191385.1064
      1338.534        1043.014
   2395701.975 9   1871265.59848  20867302.922    20867303.9564   20867309.6304
     -1780.780       -1387.621
  -6573034.919 9  -5113282.66846  23425705.000    23425705.7394   23425712.4254
      -271.296        -211.399
 97  5  5 16 57 59.9990000  0  6 26  2 19  7 27 15                  -0.000544230
  -9772056.610 9  -7598645.91248  22411738.352    22411740.1304   22411745.5804
       393.512         306.633
  -3280815.527 9  -2550101.66048  20906032.128    20906032.8844   20906038.3284
       120.232          93.687
  12484413.360 8   9605223.07946  24387837.683    24387839.4164   24387848.1944
     -2991.509       -2331.046
 -13515854.318 9 -10514635.21648  20183785.776    20183787.0824   20183792.8284
      1320.781        1029.180
   2449362.356 9   1913078.86448  20877514.150    20877515.1914   20877520.9204
     -1797.102       -1400.339
  -6564591.319 9  -5106703.24846  23427311.944    23427312.5664   23427319.1774
      -292.270        -227.743
 97  5  5 16 58 29.9990000  0  7 26  2 19  4  7 27 15               -0.000552246
  -9783609.616 9  -7607648.27748  22409540.121    22409541.7024   22409547.1404
       376.250         293.182
  -3284338.347 9  -2552846.72148  20905361.952    20905362.5024   20905367.9484
       114.058          88.876
  12574220.625 8   9675202.61645  24404927.487    24404929.1154   24404938.0044
     -2996.092       -2334.617
  -2985112.10418  -1507946.83355  24946447.169    24946448.5315   24946457.0415
      3825.530        2980.932
 -13555253.476 9 -10545335.84548  20176288.353    20176289.6694   20176295.3974
      1305.206        1017.044
   2503472.313 9   1955242.44448  20887811.014    20887812.0204   20887817.7744
     -1810.743       -1410.969
  -6555548.003 9  -5099656.52046  23429032.585    23429033.5234   23429040.0324
      -311.196        -242.490
 97  5  5 16 58 59.9990000  0  7 26  2 19  4  7 27 15               -0.000560388
  -9794631.031 9  -7616236.41448  22407442.963    22407444.4274   22407449.8344
       358.546         279.386
  -3287656.522 9  -2555432.32748  20904730.460    20904731.0864   20904736.5414
       107.396          83.685
  12664168.736 8   9745291.89745  24422044.099    24422045.7754   24422054.7364
     -3000.191       -2337.811
  -3099935.181 8  -1597419.31645  24924597.845    24924598.6144   24924607.0574
      3829.307        2983.876
 -13594162.312 9 -10575654.41148  20168884.292    20168885.5764   20168891.2974
      1288.714        1004.193
   2558007.194 9   1997737.13448  20898188.727    20898189.6924   20898195.4654
     -1824.949       -1422.038
  -6545918.327 9  -5092152.88446  23430865.323    23430865.9434   23430872.5874
      -330.778        -257.749
 97  5  5 16 59 29.9990000  0  7 26  2 19  4  7 27 15               -0.000568545
  -9805117.952 9  -7624408.07048  22405447.575    22405448.8474   22405454.3174
       340.930         265.660
  -3290790.785 9  -2557874.62248  20904133.783    20904134.6354   20904140.1114
       101.887          79.392
  12754229.349 8   9815468.84145  24439182.570    24439183.7244   24439192.8624
     -3003.707       -2340.551
  -3214864.310 8  -1686974.40145  24902727.794    24902728.3364   24902736.6864
      3833.030        2986.777
 -13632571.191 9 -10605583.39648  20161575.401    20161576.6144   20161582.3094
      1272.155         991.290
   2612975.032 9   2040569.18948  20908648.744    20908649.7674   20908655.5734
     -1839.472       -1433.355
  -6535698.419 9  -5084189.34346  23432810.118    23432810.7164   23432817.3844
      -350.330        -272.984
 97  5  5 16 59 59.9990000  0  7 26  2 19  4  7 27 15               -0.000576719
  -9815095.078 9  -7632182.48248  22403549.070    22403550.3034   22403555.7934
       323.881         252.375
  -3293766.170 9  -2560193.11648  20903567.449    20903568.4204   20903573.9364
        96.095          74.879
  12844388.612 8   9885722.62445  24456339.257    24456340.5234   24456349.6404
     -3007.230       -2343.296
  -3329917.737 8  -1776626.40445  24880833.640    24880834.0834   24880842.7884
      3836.691        2989.629
 -13670493.633 9 -10635133.34148  20154359.046    20154360.2164   20154365.8734
      1255.726         978.488
   2668373.955 9   2083737.15448  20919190.888    20919191.8604   20919197.6974
     -1854.141       -1444.785
  -6524902.147 9  -5075776.67846  23434864.332    23434865.1134   23434871.8564
      -369.760        -288.125
 97  5  5 17  0 29.9990000  0  7 26  2 19  4  7 27 15               -0.000584907
  -9824554.809 9  -7639553.73048  22401748.969    22401750.2264   22401755.7414
       307.008         239.227
  -3296560.269 9  -2562370.34848  20903035.707    20903036.7154   20903042.2364
        90.628          70.619
  12934655.199 8   9956060.03945  24473516.352    24473517.8684   24473526.8104
     -3010.398       -2345.765
  -3445075.519 8  -1866359.72845  24858919.196    24858920.2434   24858929.0954
      3840.959        2992.955
 -13707921.697 9 -10664298.05048  20147236.670    20147237.8514   20147243.5034
      1239.792         966.072
   2724220.092 9   2127253.60048  20929818.115    20929819.0654   20929824.9104
     -1868.533       -1456.000
  -6513516.827 9  -5066905.01446  23437030.863    23437031.6334   23437038.4064
      -388.873        -303.018
 97  5  5 17  0 59.9990000  0  7 26  2 19  4  7 27 15               -0.000593101
  -9833491.291 9  -7646517.23948  22400048.355    22400049.7394   22400055.2404
       288.571         224.861
  -3299186.499 9  -2564416.76848  20902535.882    20902536.9714   20902542.4804
        84.370          65.743
  13025027.934 8  10026480.17445  24490714.030    24490715.3364   24490724.1294
     -3014.763       -2349.166
  -3560355.233 8  -1956188.06345  24836982.214    24836983.0714   24836992.0844
      3844.176        2995.462
 -13744863.854 9 -10693084.13548  20140206.859    20140207.9744   20140213.6474
      1222.955         952.952
   2780502.797 9   2171110.22548  20940528.349    20940529.3324   20940535.1894
     -1883.842       -1467.929
  -6501549.452 9  -5057579.80446  23439308.412    23439308.9604   23439315.7544
      -409.188        -318.848
 97  5  5 17  1 29.9990000  0  7 26  2 19  4  7 27 15               -0.000601283
  -9841884.938 9  -7653057.76648  22398450.825    22398452.4934   22398457.9604
       270.861         211.061
  -3301630.249 9  -2566321.00148  20902071.100    20902071.9634   20902077.4554
        78.153          60.898
  13115541.751 8  10097010.22645  24507938.531    24507939.7844   24507948.4354
     -3019.837       -2353.120
  -3675733.393 8  -2046093.10045  24815026.034    24815027.2364   24815036.4964
      3847.494        2998.047
 -13781315.013 9 -10721487.62748  20133270.394    20133271.5544   20133277.2104
      1206.999         940.519
   2837239.925 9   2215320.94448  20951325.047    20951326.0534   20951331.9264
     -1898.919       -1479.677
  -6488981.885 9  -5047786.90046  23441699.634    23441700.4564   23441707.3184
      -428.911        -334.216
 97  5  5 17  1 59.9990000  0  7 26  2 19  4  7 27 15               -0.000609469
  -9849756.586 9  -7659191.54348  22396952.867    22396954.5834   22396960.0804
       253.068         197.196
  -3303881.004 9  -2568074.84548  20901642.985    20901643.6934   20901649.1884
        71.289          55.550
  13206212.459 8  10167662.51645  24525192.970    24525194.1754   24525202.6964
     -3025.341       -2357.409
  -3791217.042 8  -2136080.37445  24793049.917    24793051.5434   24793060.6094
      3850.678        3000.528
 -13817297.664 9 -10749526.04848  20126423.053    20126424.2294   20126429.9234
      1191.063         928.101
   2894420.780 9   2259877.41748  20962206.266    20962207.2154   20962213.1244
     -1913.732       -1491.220
  -6475828.339 9  -5037537.40246  23444202.614    23444203.4724   23444210.3624
      -448.655        -349.601
 97  5  5 17  2 29.9990000  0  7 26  2 19  4  7 27 15               -0.000617648
  -9857081.980 9  -7664899.66448  22395559.091    22395560.6584   22395566.1484
       235.071         183.172
  -3305937.029 9  -2569676.95448  20901251.858    20901252.4734   20901257.9564
        65.706          51.199
  13297050.368 8  10238445.08645  24542479.387    24542480.1424   24542488.9334
     -3030.707       -2361.590
  -3906797.383 8  -2226142.98145  24771055.467    24771057.5774   24771066.2724
      3854.548        3003.544
 -13852803.146 9 -10777192.64748  20119666.593    20119667.7334   20119673.4734
      1175.809         916.215
   2952038.202 9   2304774.07648  20973170.407    20973171.4244   20973177.3564
     -1927.567       -1502.000
  -6462081.116 9  -5026825.29646  23446818.605    23446819.4654   23446826.3794
      -468.004        -364.678
 97  5  5 17  2 59.9990000  0  7 26  2 19  4  7 27 15               -0.000625804
  -9863855.184 9  -7670177.52148  22394270.262    22394271.7374   22394277.2374
       216.297         168.543
  -3307819.049 9  -2571143.47848  20900893.667    20900894.3324   20900899.7974
        59.539          46.394
  13388057.703 8  10309359.66245  24559797.799    24559798.4114   24559807.2454
     -3036.608       -2366.188
  -4022479.335 8  -2316284.73245  24749042.158    24749044.2304   24749052.6784
      3857.140        3005.564
 -13887844.644 9 -10804497.70548  20112998.465    20112999.5604   20113005.3264
      1160.051         903.936
   3010081.481 9   2350002.56648  20984215.673    20984216.7174   20984222.6374
     -1942.317       -1513.494
  -6447744.725 9  -5015654.10946  23449546.745    23449547.5034   23449554.5404
      -487.987        -380.250
 97  5  5 17  3 29.9990000  0  7 26  2 19  4  7 27 15               -0.000633929
  -9870068.219 9  -7675018.86448  22393087.737    22393089.4454   22393094.9674
       198.348         154.557
  -3309517.661 9  -2572467.08448  20900570.601    20900571.1324   20900576.5774
        54.087          42.146
  13479239.602 8  10380410.25345  24577148.881    24577149.8994   24577158.8044
     -3041.470       -2369.977
  -4138234.703 8  -2406483.72445  24727014.628    24727016.7504   24727024.8464
      3860.434        3008.130
 -13922411.398 9 -10831432.83348  20106420.544    20106421.7064   20106427.4834
      1144.803         892.054
   3068572.010 9   2395579.56748  20995346.010    20995347.1174   20995353.0454
     -1956.619       -1524.638
  -6432812.456 9  -5004018.58846  23452388.085    23452389.0544   23452396.0414
      -507.001        -395.066
 97  5  5 17  3 59.9990000  0  7 26  2 19  4  7 27 15               -0.000642031
  -9875735.013 9  -7679434.57548  22392009.578    22392011.1354   22392016.6244
       179.498         139.869
  -3311055.711 9  -2573665.57148  20900278.024    20900278.4664   20900283.9094
        48.634          37.897
  13570550.841 8  10451561.61345  24594524.772    24594525.9744   24594534.9714
     -3045.804       -2373.354
  -4254095.549 8  -2496764.84345  24704966.660    24704969.0614   24704977.3124
      3863.536        3010.548
 -13956516.669 9 -10858008.36248  20099930.623    20099931.6934   20099937.4564
      1128.842         879.617
   3127490.603 9   2441490.12248  21006557.846    21006558.9814   21006564.8914
     -1971.282       -1536.064
  -6417308.456 9  -4991937.56746  23455338.390    23455339.4234   23455346.4044
      -526.509        -410.267
 97  5  5 17  4 29.9990000  0  7 26  2 19  4  7 27 15               -0.000650087
  -9880832.443 9  -7683406.62248  22391039.548    22391041.1244   22391046.6464
       161.003         125.457
  -3312431.916 9  -2574737.95948  20900016.121    20900016.6194   20900022.0064
        43.457          33.863
  13661994.974 8  10522816.53745  24611925.736    24611927.3484   24611936.4054
     -3050.032       -2376.648
  -4370041.289 8  -2587112.11545  24682903.369    24682905.2034   24682913.3594
      3866.727        3013.034
 -13990140.854 9 -10884209.02148  20093532.139    20093533.2444   20093539.0224
      1113.246         867.464
   3186860.101 9   2487752.03448  21017855.519    21017856.6264   21017862.5394
     -1986.419       -1547.859
  -6401213.374 9  -4979395.98646  23458401.222    23458402.2234   23458409.2184
      -546.000        -425.454
 97  5  5 17  4 59.9990000  0  7 26  2 19  4  7 27 15               -0.000658104
  -9885377.323 9  -7686948.11048  22390174.636    22390176.2784   22390181.8414
       142.623         111.135
  -3313630.467 9  -2575671.90848  20899788.096    20899788.5484   20899793.9504
        36.928          28.775
  13753564.398 8  10594169.08745  24629351.247    24629352.5934   24629361.7014
     -3053.997       -2379.738
  -4486075.586 8  -2677528.38045  24660822.271    24660824.6364   24660832.8874
      3869.455        3015.160
 -14023284.190 9 -10910034.98948  20087225.134    20087226.2644   20087232.1064
      1096.721         854.588
   3246698.913 9   2534379.64148  21029242.547    21029243.6264   21029249.5114
     -2002.269       -1560.210
  -6384528.180 9  -4966394.54646  23461576.399    23461577.3134   23461584.2894
      -565.785        -440.871
 97  5  5 17  5 29.9990000  0  7 26  2 19  4  7 27 15               -0.000666104
  -9889381.301 9  -7690068.12648  22389412.692    22389414.3164   22389419.9194
       124.429          96.958
  -3314633.331 9  -2576453.37448  20899597.241    20899597.7114   20899603.1434
        30.048          23.414
  13845248.887 8  10665611.30645  24646798.551    24646799.7434   24646808.8954
     -3058.077       -2382.917
  -4602201.707 8  -2768016.20645  24638724.413    24638726.7124   24638734.9624
      3872.526        3017.553
 -14055931.270 9 -10935474.27448  20081012.612    20081013.7634   20081019.5814
      1079.944         841.515
   3307008.944 9   2581374.43148  21040719.165    21040720.2744   21040726.1314
     -2018.208       -1572.630
  -6367253.910 9  -4952934.11146  23464863.927    23464864.5614   23464871.5594
      -585.650        -456.351
 97  5  5 17  5 59.9990000  0  7 26  2 19  4  7 27 15               -0.000674096
  -9892854.959 9  -7692774.90148  22388751.696    22388753.2644   22388758.9044
       107.195          83.529
  -3315448.054 9  -2577088.23648  20899442.338    20899442.6874   20899448.1284
        24.268          18.910
  13937041.298 8  10737137.63445  24664266.575    24664267.4874   24664276.5404
     -3061.553       -2385.626
  -4718442.179 8  -2858593.10745  24616604.074    24616606.7474   24616614.9384
      3876.775        3020.864
 -14088093.918 9 -10960536.07048  20074892.261    20074893.3734   20074899.1974
      1064.295         829.321
   3367775.021 9   2628724.58848  21052282.616    21052283.6734   21052289.5584
     -2032.785       -1583.988
  -6349399.595 9  -4939021.67846  23468261.508    23468262.2114   23468269.1644
      -604.651        -471.157
 97  5  5 17  6 29.9990000  0  7 26  2 19  4  7 27 15               -0.000682080
  -9895792.950 9  -7695064.27448  22388192.744    22388194.1734   22388199.8914
        89.004          69.354
  -3316061.595 9  -2577566.33048  20899325.355    20899325.9434   20899331.4094
        16.952          13.209
  14028966.341 8  10808767.30445  24681759.415    24681760.4644   24681769.5064
     -3066.177       -2389.229
  -4834792.836 8  -2949255.83745  24594463.660    24594465.7414   24594474.2334
      3880.324        3023.629
 -14119767.572 9 -10985216.83348  20068864.837    20068866.0414   20068871.9354
      1047.592         816.305
   3428990.047 9   2676424.57348  21063931.388    21063932.5214   21063938.4054
     -2047.811       -1595.697
  -6330956.937 9  -4924650.81546  23471771.166    23471771.8114   23471778.7394
      -624.553        -486.665
 97  5  5 17  6 59.9990000  0  7 26  2 19  4  7 27 15               -0.000690075
  -9898198.178 9  -7696938.50048  22387735.053    22387736.5104   22387742.2224
        70.779          55.152
  -3316469.119 9  -2577883.89348  20899247.704    20899248.4264   20899253.8314
         9.786           7.625
  14121012.060 8  10880490.99745  24699275.426    24699276.5124   24699285.6474
     -3070.744       -2392.787
  -4951261.927 8  -3040010.84345  24572300.503    24572302.1154   24572310.9374
      3883.633        3026.207
 -14150947.142 9 -11009512.59548  20062931.549    20062932.7614   20062938.6544
      1030.602         803.066
   3490631.958 9   2724457.19848  21075661.404    21075662.6044   21075668.4704
     -2062.214       -1606.920
  -6311929.986 9  -4909824.65546  23475391.875    23475392.5244   23475399.4664
      -644.483        -502.195
 97  5  5 17  7 29.9990000  0  7 26  2 19  4  7 27 15               -0.000698063
  -9900056.045 9  -7698386.21448  22387381.678    22387383.0004   22387388.7324
        53.292          41.526
  -3316670.779 9  -2578041.04448  20899209.302    20899210.0924   20899215.4564
         3.925           3.058
  14213202.321 8  10952327.30545  24716818.595    24716820.0234   24716829.2864
     -3074.972       -2396.082
  -5067825.164 8  -3130839.21245  24550119.405    24550120.8984   24550129.8174
      3887.555        3029.264
 -14181633.037 9 -11033423.67648  20057092.289    20057093.4214   20057099.3514
      1015.394         791.216
   3552704.324 9   2772825.23448  21087473.536    21087474.6374   21087480.4664
     -2075.737       -1617.457
  -6292306.709 9  -4894533.82146  23479126.172    23479126.7044   23479133.7284
      -663.492        -517.007
 97  5  5 17  7 59.9990000  0  7 26  2 19  4  7 27 15               -0.000706051
  -9901388.478 9  -7699424.49048  22387128.027    22387129.4704   22387135.2414
        35.624          27.759
  -3316693.237 9  -2578058.55448  20899204.957    20899205.8364   20899211.2334
        -2.401          -1.871
  14305513.594 8  11024257.91145  24734384.599    24734386.6494   24734395.8374
     -3079.088       -2399.289
  -5184494.333 8  -3221750.13645  24527918.080    24527919.5254   24527928.3844
      3890.320        3031.418
 -14211858.727 9 -11056976.16248  20051340.425    20051341.6804   20051347.6014
       999.567         778.883
   3615179.316 9   2821507.01348  21099362.081    21099363.2624   21099369.0894
     -2089.296       -1628.023
  -6272110.069 9  -4878796.21446  23482969.268    23482970.0284   23482977.0204
      -682.975        -532.188
 97  5  5 17  8 29.9990000  0  7 26  2 19  4  7 27 15               -0.000714040
  -9902192.520 9  -7700051.04848  22386974.844    22386976.4804   22386982.2304
        18.093          14.098
  -3316527.129 9  -2577929.13548  20899236.902    20899237.4724   20899242.8784
        -8.405          -6.549
  14397952.469 8  11096287.92545  24751975.090    24751977.2764   24751986.6914
     -3083.270       -2402.548
  -5301233.007 8  -3312715.20645  24505703.900    24505704.8654   24505713.6264
      3892.184        3032.871
 -14241606.876 9 -11080156.53648  20045679.579    20045680.7634   20045686.7174
       983.634         766.468
   3678066.214 9   2870509.75448  21111329.223    21111330.3084   21111336.0994
     -2103.173       -1638.836
  -6251327.708 9  -4862602.19646  23486924.221    23486924.8424   23486931.7784
      -702.474        -547.382
 97  5  5 17  8 59.9990000  0  7 26  2 19  4  7 27 15               -0.000722018
  -9902475.298 9  -7700271.42948  22386920.892    22386922.6834   22386928.4404
         1.144           0.891
  -3316191.012 9  -2577667.23748  20899300.679    20899301.4434   20899306.8514
       -13.643         -10.631
  14490515.963 8  11168415.06845  24769589.096    24769591.7924   24769601.0034
     -3087.435       -2405.794
  -5418017.970 8  -3403716.35345  24483480.458    24483481.3714   24483490.2334
      3893.720        3034.068
 -14270877.635 9 -11102964.91948  20040109.512    20040110.7114   20040116.6604
       968.227         754.463
   3741375.918 9   2919841.95848  21123376.616    21123377.7974   21123383.5744
     -2117.117       -1649.702
  -6229960.247 9  -4845952.26546  23490990.338    23490990.9964   23490997.9314
      -721.652        -562.326
 97  5  5 17  9 29.9990000  0  7 26  2 19  4  7 27 15               -0.000729989
  -9902247.789 9  -7700094.17848  22386964.386    22386965.9874   22386971.7904
       -16.124         -12.564
  -3315698.869 9  -2577283.75748  20899394.084    20899395.0974   20899400.5404
       -19.046         -14.841
  14583204.413 8  11240639.58945  24787227.568    24787229.9004   24787239.2674
     -3091.594       -2409.034
  -5534843.488 8  -3494749.12945  24461248.915    24461250.0504   24461258.8294
      3894.968        3035.040
 -14299688.692 9 -11125415.08748  20034626.969    20034628.1174   20034634.0734
       952.493         742.202
   3805098.891 9   2969496.18848  21135502.765    21135503.9134   21135509.6864
     -2130.786       -1660.353
  -6208023.491 9  -4828858.72046  23495164.807    23495165.4914   23495172.3194
      -740.654        -577.133
 97  5  5 17  9 59.9990000  0  7 26  2 19  4  7 27 15               -0.000737963
  -9901497.095 9  -7699509.24848  22387107.424    22387108.9244   22387114.6774
       -33.332         -25.973
  -3315037.919 9  -2576768.74748  20899519.879    20899520.9004   20899526.3244
       -24.440         -19.044
  14676019.989 8  11312963.21345  24804890.237    24804892.3654   24804901.7744
     -3095.702       -2412.235
  -5651695.913 8  -3585802.81945  24439012.311    24439013.4824   24439022.2914
      3895.903        3035.769
 -14328011.579 9 -11147484.86748  20029237.259    20029238.4674   20029244.4284
       936.277         729.566
   3869232.223 9   3019470.17548  21147707.112    21147708.1514   21147713.9124
     -2144.388       -1670.952
  -6185511.996 9  -4811317.32046  23499448.525    23499449.3374   23499456.1574
      -759.639        -591.926
 97  5  5 17 10 29.9990000  0  7 26  2 19  4  7 27 15               -0.000745940
  -9900236.534 9  -7698527.02248  22387347.229    22387348.8654   22387354.5974
       -51.041         -39.772
  -3314228.476 9  -2576138.01948  20899673.864    20899674.9184   20899680.3664
       -29.962         -23.347
  14768954.870 8  11385379.76545  24822575.211    24822577.3274   24822587.1044
     -3100.131       -2415.686
  -5768593.293 8  -3676891.56046  24416767.891    24416768.5074   24416777.2484
      3897.008        3036.630
 -14355861.260 9 -11169185.91948  20023937.677    20023938.8834   20023944.8194
       920.041         716.915
   3933774.305 9   3069762.66848  21159989.091    21159990.1634   21159995.9164
     -2158.777       -1682.164
  -6162438.808 9  -4793338.25246  23503839.145    23503840.0594   23503846.7804
      -778.891        -606.928
 97  5  5 17 10 59.9990000  0  7 26  2 19  4  7 27 15               -0.000753903
  -9898440.311 9  -7697127.38948  22387688.896    22387690.6724   22387696.4334
       -69.010         -53.774
  -3313231.942 9  -2575361.51348  20899863.581    20899864.5784   20899870.0004
       -37.021         -28.848
  14862017.837 8  11457896.11545  24840284.711    24840286.8214   24840296.6524
     -3104.305       -2418.939
  -5885523.267 9  -3768005.71746  24394517.198    24394517.3194   24394526.0454
      3898.116        3037.493
 -14383221.391 9 -11190505.50048  20018731.322    20018732.4774   20018738.3594
       903.550         704.065
   3998752.427 9   3120394.93648  21172354.054    21172355.1324   21172360.8834
     -2173.522       -1693.654
  -6138786.717 9  -4774908.07646  23508340.358    23508340.9164   23508347.6464
      -798.281        -622.037
 97  5  5 17 11 29.9990000  0  7 26  2 19  4  7 27 15               -0.000761864
  -9896110.936 9  -7695312.32548  22388132.171    22388133.9844   22388139.7174
       -86.064         -67.063
  -3312016.800 9  -2574414.66248  20900094.895    20900095.8514   20900101.2504
       -43.754         -34.094
  14955187.748 8  11530495.82745  24858014.554    24858016.2394   24858026.3264
     -3106.858       -2420.928
  -6002497.530 9  -3859154.36045  24372257.291    24372257.8124   24372266.5174
      3900.609        3039.436
 -14410086.107 9 -11211439.04348  20013619.089    20013620.3204   20013626.1914
       887.581         691.622
   4064172.890 9   3171371.88448  21184803.226    21184804.2734   21184810.0464
     -2187.679       -1704.685
  -6114558.366 9  -4756028.85546  23512950.759    23512951.4464   23512958.1204
      -816.877        -636.528
 97  5  5 17 11 59.9990000  0  6 26  2  4  7 27 15                  -0.000769811
  -9893261.850 9  -7693092.27748  22388674.440    22388676.0704   22388681.8294
      -103.786         -80.872
  -3310585.360 9  -2573299.26548  20900367.519    20900368.2804   20900373.6474
       -51.442         -40.085
  -6119544.838 9  -3950359.94946  24349983.357    24349984.4184   24349993.1194
      3902.645        3041.022
 -14436458.064 9 -11231988.61548  20008600.720    20008601.9384   20008607.7594
       870.729         678.490
   4130034.521 9   3222692.59648  21197336.315    21197337.3324   21197343.1674
     -2203.114       -1716.712
  -6089758.642 9  -4736704.42446  23517669.882    23517670.6414   23517677.4624
      -836.412        -651.750
 97  5  5 17 12 29.9990000  0  6 26  2  4  7 27 15                  -0.000777761
  -9889898.765 9  -7690471.72548  22389314.526    22389316.1024   22389321.7884
      -120.663         -94.023
  -3308953.295 9  -2572027.53948  20900678.010    20900678.8494   20900684.2444
       -57.615         -44.895
  -6236678.796 9  -4041633.07846  24327693.691    24327694.7614   24327703.2264
      3906.062        3043.685
 -14462350.168 9 -11252164.28348  20003673.672    20003674.8524   20003680.6544
       855.140         666.343
   4196332.143 9   3274353.03948  21209952.311    21209953.3604   21209959.2554
     -2216.741       -1727.331
  -6064396.503 9  -4716941.74346  23522496.110    23522496.8934   23522503.6954
      -854.583        -665.909
 97  5  5 17 12 59.9990000  0  6 26  2  4  7 27 15                  -0.000785714
  -9885997.453 9  -7687431.76548  22390057.110    22390058.5514   22390064.2064
      -139.074        -108.369
  -3307105.868 9  -2570588.00148  20901029.619    20901030.4234   20901035.7984
       -65.027         -50.670
  -6353887.635 9  -4132964.54145  24305389.307    24305390.6254   24305399.0284
      3908.308        3045.435
 -14487741.841 9 -11271950.00248  19998841.942    19998843.0264   19998848.7684
       838.059         653.033
   4263053.993 9   3326344.05048  21222649.094    21222650.0894   21222656.0544
     -2230.980       -1738.426
  -6038463.242 9  -4696734.02646  23527430.830    23527431.7984   23527438.6324
      -874.027        -681.060
 97  5  5 17 13 29.9990000  0  6 26  2  4  7 27 15                  -0.000793672
  -9881565.928 9  -7683978.65248  22390900.434    22390901.8594   22390907.5514
      -156.916        -122.272
  -3305073.328 9  -2569004.22648  20901416.308    20901417.2454   20901422.5684
       -70.778         -55.152
  -6471181.945 9  -4224362.62846  24283068.810    24283070.2764   24283078.5544
      3910.742        3047.331
 -14512644.328 9 -11291354.54148  19994103.110    19994104.1874   19994109.9684
       821.615         640.219
   4330174.252 9   3378645.51048  21235421.470    21235422.6164   21235428.6284
     -2244.238       -1748.757
  -6011965.087 9  -4676086.14546  23532473.462    23532474.1764   23532481.1464
      -893.092        -695.916
 97  5  5 17 13 59.9990000  0  6 26  2  4  7 27 15                  -0.000801622
  -9876591.143 9  -7680102.23048  22391847.086    22391848.5744   22391854.2464
      -175.018        -136.378
  -3302880.003 9  -2567295.15548  20901833.680    20901834.6544   20901839.9574
       -75.916         -59.155
  -6588538.914 9  -4315809.55846  24260736.255    24260737.8804   24260746.0674
      3912.426        3048.644
 -14537055.901 9 -11310376.54148  19989457.712    19989458.8194   19989464.6024
       805.529         627.685
   4397691.576 9   3431256.36748  21248269.635    21248270.7294   21248276.7784
     -2257.384       -1759.001
  -5984891.885 9  -4654990.17346  23537625.141    23537626.0814   23537633.0254
      -912.128        -710.749
 97  5  5 17 14 29.9990000  0  6 26  2  4  7 27 15                  -0.000809557
  -9871080.922 9  -7675808.58148  22392895.776    22392897.1394   22392902.8414
      -192.730        -150.179
  -3300530.266 9  -2565464.20648  20902280.759    20902281.7884   20902287.1204
       -81.422         -63.446
  -6705937.060 8  -4407288.56646  24238396.444    24238397.7624   24238405.7934
      3913.658        3049.604
 -14560997.015 9 -11329031.95148  19984901.850    19984902.9734   19984908.7594
       790.079         615.646
   4465605.831 9   3484176.52548  21261193.287    21261194.4054   21261200.4944
     -2270.715       -1769.388
  -5957254.536 9  -4633454.59346  23542884.279    23542885.2734   23542892.3214
      -930.884        -725.364
 97  5  5 17 14 59.9990000  0  6 26  2  4  7 27 15                  -0.000817470
  -9865043.918 9  -7671104.45748  22394044.589    22394045.9274   22394051.6634
      -209.106        -162.940
  -3297992.550 9  -2563486.78948  20902763.773    20902764.7214   20902770.0294
       -87.196         -67.945
  -6823361.185 9  -4498787.78945  24216051.267    24216052.6564   24216060.7154
      3915.036        3050.677
 -14584476.996 9 -11347328.03748  19980433.836    19980434.9224   19980440.6844
       775.841         604.551
   4533933.961 9   3537419.17748  21274195.728    21274196.8614   21274202.9674
     -2284.169       -1779.872
  -5929045.161 9  -4611473.29446  23548252.449    23548253.2914   23548260.4444
      -949.288        -739.705
 97  5  5 17 15 29.9990000  0  6 26  2  4  7 27 15                  -0.000825359
  -9858506.117 9  -7666010.09648  22395288.409    22395290.0944   22395295.7984
      -226.208        -176.266
  -3295262.915 9  -2561359.81648  20903282.973    20903284.1624   20903289.4714
       -94.302         -73.482
  -6940798.713 9  -4590297.49146  24193703.579    24193705.0454   24193713.0514
      3914.605        3050.341
 -14607516.049 9 -11365280.54248  19976049.693    19976050.7374   19976056.4814
       760.572         592.654
   4602693.720 9   3590998.16348  21287280.281    21287281.4484   21287287.5454
     -2299.331       -1791.686
  -5900264.131 9  -4589046.54646  23553729.272    23553730.1594   23553737.2994
      -968.880        -754.971
 97  5  5 17 15 59.9990000  0  6 26  2  4  7 27 15                  -0.000833246
  -9851505.104 9  -7660554.78948  22396620.664    22396622.3584   22396628.0424
      -240.920        -187.730
  -3292364.057 9  -2559100.98648  20903834.723    20903835.8404   20903841.1534
       -99.579         -77.594
  -7058279.869 9  -4681841.18146  24171347.368    24171349.0214   24171357.0504
      3916.886        3052.119
 -14630150.499 9 -11382917.77048  19971742.530    19971743.5434   19971749.2554
       747.885         582.768
   4671858.889 9   3644893.05248  21300442.058    21300443.1964   21300449.2784
     -2312.048       -1801.596
  -5870950.149 9  -4566204.50346  23559307.440    23559308.4994   23559315.6124
      -985.856        -768.199
 97  5  5 17 16 29.9990000  0  6 26  2  4  7 27 15                  -0.000841115
  -9844018.876 9  -7654721.39648  22398045.448    22398046.9914   22398052.6304
      -258.061        -201.086
  -3289252.833 9  -2556676.67248  20904426.793    20904427.8794   20904433.2344
      -107.596         -83.841
  -7175784.729 9  -4773403.34245  24148986.308    24148988.4714   24148996.4994
      3917.019        3052.223
 -14652359.785 9 -11400223.70748  19967516.311    19967517.2754   19967522.9844
       732.802         571.014
   4741446.606 9   3699117.20248  21313684.278    21313685.3694   21313691.4444
     -2326.844       -1813.125
  -5841081.942 9  -4542930.61246  23564991.510    23564992.1794   23564999.4044
     -1005.270        -783.327
 97  5  5 17 16 59.9990000  0  6 26  2  4  7 27 15                  -0.000848964
  -9836035.625 9  -7648500.70748  22399564.583    22399566.1104   22399571.7624
      -274.135        -213.612
  -3285927.780 9  -2554085.74948  20905059.861    20905060.6264   20905065.9704
      -113.779         -88.659
  -7293319.900 9  -4864989.11345  24126619.992    24126622.2224   24126630.2874
      3918.657        3053.499
 -14674134.425 9 -11417190.95648  19963372.712    19963373.7054   19963379.4024
       718.778         560.087
   4811447.986 9   3753663.68248  21327005.166    21327006.2434   21327012.2934
     -2339.823       -1823.239
  -5810646.055 9  -4519214.37846  23570783.284    23570784.0314   23570791.1414
     -1023.691        -797.681
 97  5  5 17 17 29.9990000  0  6 26  2  4  7 27 15                  -0.000856817
  -9827572.112 9  -7641905.78048  22401175.350    22401176.7294   22401182.3774
      -291.069        -226.807
  -3282442.791 9  -2551370.18548  20905722.865    20905723.7684   20905729.1524
      -119.461         -93.086
  -7410915.864 8  -4956622.26345  24104242.281    24104244.3924   24104252.3194
      3920.306        3054.784
 -14695484.613 9 -11433827.46448  19959309.907    19959310.8944   19959316.5934
       703.646         548.296
   4881818.037 9   3808497.44448  21340396.166    21340397.2634   21340403.3004
     -2352.331       -1832.985
  -5779673.778 9  -4495080.16246  23576677.012    23576677.9234   23576684.9814
     -1041.946        -811.906
 97  5  5 17 17 59.9990000  0  6 26  2  4  7 27 15                  -0.000864666
  -9818590.501 9  -7634907.15548  22402884.145    22402885.9344   22402891.5554
      -308.135        -240.105
  -3278784.240 9  -2548519.38748  20906419.327    20906420.0124   20906425.3814
      -124.951         -97.364
  -7528557.944 8  -5048291.32245  24081855.704    24081857.8994   24081865.7504
      3921.999        3056.103
 -14716371.423 9 -11450102.89948  19955335.257    19955336.2544   19955341.9514
       688.371         536.393
   4952563.855 9   3863624.00948  21353858.784    21353859.8404   21353865.8174
     -2364.432       -1842.415
  -5748149.911 9  -4470516.14346  23582675.580    23582676.7424   23582683.8264
     -1060.142        -826.085
 97  5  5 17 18 29.9990000  0  6 26  2  4  7 27 15                  -0.000872510
  -9809091.959 9  -7627505.72948  22404691.908    22404693.5164   22404699.0434
      -325.810        -253.878
  -3274948.274 9  -2545530.34248  20907149.402    20907150.0204   20907155.3804
      -131.530        -102.491
  -7646242.985 9  -5139993.87245  24059460.996    24059463.1634   24059470.9144
      3922.998        3056.881
 -14736793.193 9 -11466015.96748  19951449.132    19951450.1494   19951455.8244
       672.278         523.853
   5023677.641 9   3919037.29948  21367391.319    21367392.3974   21367398.3874
     -2377.365       -1852.492
  -5716075.083 9  -4445522.80846  23588779.544    23588780.4904   23588787.5214
     -1079.001        -840.780
 97  5  5 17 18 59.9990000  0  7 26  2  4  9  7 27 15               -0.000880355
  -9799073.313 9  -7619699.03148  22406598.077    22406599.9724   22406605.5254
      -342.559        -266.929
  -3270924.919 9  -2542395.27948  20907914.728    20907915.6164   20907921.0334
      -137.127        -106.852
  -7763958.297 9  -5231720.02146  24037060.782    24037062.4964   24037070.1794
      3924.076        3057.722
   -275212.66618   -199036.08456  24202605.646           0.0005   24202615.3785
      3737.856        2912.615
 -14756727.026 9 -11481548.82748  19947655.977    19947656.8554   19947662.5494
       656.097         511.244
   5095175.156 9   3974749.59348  21380996.851    21380997.9574   21381003.9424
     -2389.717       -1862.117
  -5683442.075 9  -4420094.52346  23594989.521    23594990.3604   23594997.3404
     -1097.097        -854.881
 97  5  5 17 19 29.9990000  0  7 26  2  4  9  7 27 15               -0.000888197
  -9788518.361 9  -7611474.41948  22408606.825    22408608.5104   22408614.1304
      -360.520        -280.925
  -3266698.640 9  -2539102.09848  20908719.000    20908719.8574   20908725.2854
      -144.225        -112.383
  -7881659.460 9  -5323435.13946  24014662.933    24014664.5194   24014672.2744
      3923.188        3057.030
   -387298.722 9   -286375.84746  24181279.420    24181280.2115   24181287.4594
      3734.851        2910.274
 -14776131.995 9 -11496669.58548  19943963.344    19943964.2184   19943969.9094
       638.261         497.346
   5167080.914 9   4030780.00748  21394680.163    21394681.1814   21394687.1854
     -2403.562       -1872.905
  -5650235.973 9  -4394219.68246  23601308.128    23601309.2894   23601316.3184
     -1116.210        -869.774
 97  5  5 17 19 59.9990000  0  7 26  2  4  9  7 27 15               -0.000896055
  -9777461.253 9  -7602858.52948  22410710.653    22410712.6294   22410718.2064
      -376.867        -293.663
  -3262280.225 9  -2535659.19448  20909559.775    20909560.6244   20909566.0874
      -150.554        -117.315
  -7999357.735 9  -5415147.99446  23992265.926    23992267.1924   23992275.0564
      3923.070        3056.938
   -499302.688 9   -373651.62856  24159967.357    24159967.4534   24159973.6985
      3731.607        2907.746
 -14795039.740 9 -11511402.88748  19940365.327    19940366.1954   19940371.8334
       622.065         484.726
   5239378.168 9   4087115.48148  21408437.962    21408438.9454   21408444.9354
     -2416.463       -1882.958
  -5616481.134 9  -4367917.25046  23607731.700    23607732.6934   23607739.6664
     -1134.419        -883.963
 97  5  5 17 20 29.9990000  0  7 26  2  4  9  7 27 15               -0.000903916
  -9765913.648 9  -7593860.42448  22412908.271    22412910.0424   22412915.6794
      -393.023        -306.252
  -3257667.779 9  -2532065.10448  20910437.434    20910438.3674   20910443.8474
      -156.789        -122.173
  -8117046.985 9  -5506853.79846  23969870.071    23969871.4934   23969879.3324
      3922.818        3056.741
   -611203.685 9   -460847.19046  24138672.889    24138673.0005   24138679.7154
      3728.502        2905.326
 -14813458.721 9 -11525755.34148  19936860.284    19936861.1914   19936866.8024
       605.867         472.104
   5312068.488 9   4143757.23848  21422270.397    21422271.4614   21422277.4784
     -2429.632       -1893.220
  -5582177.079 9  -4341186.86046  23614259.621    23614260.5124   23614267.5714
     -1152.552        -898.092
 97  5  5 17 20 59.9990000  0  7 26  2  4  9  7 27 15               -0.000911767
  -9753869.101 9  -7584475.10148  22415200.232    22415202.0704   22415207.7174
      -409.365        -318.986
  -3252874.126 9  -2528329.80848  20911349.794    20911350.5994   20911356.1074
      -162.097        -126.309
  -8234717.935 9  -5598545.34146  23947478.124    23947479.4094   23947487.2524
      3922.515        3056.505
   -723007.355 9   -547966.91746  24117396.791    24117397.4574   24117404.1134
      3725.895        2903.295
 -14831386.034 9 -11539724.67648  19933448.753    19933449.7234   19933455.3704
       590.168         459.871
   5385164.475 9   4200715.09848  21436180.235    21436181.1684   21436187.2344
     -2442.668       -1903.378
  -5547322.275 9  -4314027.30846  23620892.547    23620893.1724   23620900.2824
     -1170.456        -912.044
 97  5  5 17 21 29.9990000  0  7 26  2  4  9  7 27 15               -0.000919603
  -9741328.193 9  -7574703.00948  22417586.618    22417588.5864   22417594.1814
      -426.299        -332.181
  -3247912.789 9  -2524463.85348  20912293.835    20912294.7444   20912300.2744
      -168.366        -131.194
  -8352377.417 9  -5690227.94846  23925087.801    23925089.4494   23925097.5834
      3922.089        3056.173
   -834723.145 9   -635018.15546  24096138.259    24096138.6794   24096145.1654
      3722.319        2900.508
 -14848850.340 9 -11553333.22448  19930125.474    19930126.3684   19930132.0254
       574.664         447.790
   5458656.452 9   4257981.52248  21450165.211    21450166.2294   21450172.3224
     -2456.389       -1914.069
  -5511924.387 9  -4286444.56246  23627628.842    23627629.1834   23627636.3764
     -1188.975        -926.474
 97  5  5 17 21 59.9990000  0  7 26  2  4  9  7 27 15               -0.000927427
  -9728298.570 9  -7564550.08948  22420066.640    22420068.0394   22420073.7044
      -442.281        -344.635
  -3242786.756 9  -2520469.56348  20913269.361    20913270.2404   20913275.7784
      -173.328        -135.061
  -8470057.622 9  -5781926.73246  23902693.879    23902695.5444   23902703.7284
      3923.330        3057.140
   -946358.466 9   -722006.70446  24074894.578    24074895.2354   24074901.6474
      3720.173        2898.836
 -14865887.681 9 -11566609.07548  19926883.333    19926884.2624   19926889.9304
       561.037         437.172
   5532537.990 9   4315551.49748  21464224.512    21464225.4724   21464231.5354
     -2468.949       -1923.856
  -5475995.542 9  -4258448.10446  23634465.692    23634466.2744   23634473.4714
     -1206.212        -939.905
 97  5  5 17 22 29.9990000  0  7 26  2  4  9  7 27 15               -0.000935249
  -9714775.904 9  -7554012.99148  22422639.560    22422641.3994   22422647.0124
      -459.250        -357.857
  -3237503.842 9  -2516353.02748  20914274.831    20914275.5484   20914281.1114
      -178.967        -139.455
  -8587771.107 9  -5873651.49146  23880293.572    23880295.4834   23880303.3954
      3923.925        3057.604
  -1057929.803 9   -808945.39746  24053662.837    24053663.9514   24053670.3184
      3717.780        2896.971
 -14882500.105 9 -11579553.81848  19923722.093    19923723.0114   19923728.6804
       546.282         425.674
   5606804.380 9   4373421.36148  21478356.939    21478357.9374   21478363.9934
     -2482.225       -1934.201
  -5439540.217 9  -4230041.39446  23641403.222    23641403.5204   23641410.7424
     -1224.211        -953.931
 97  5  5 17 22 59.9990000  0  7 26  2  4  9  7 27 15               -0.000943061
  -9700750.604 9  -7543084.21848  22425308.613    22425310.3654   22425315.9094
      -475.630        -370.621
  -3232056.305 9  -2512108.21848  20915311.440    20915312.2064   20915317.7714
      -184.251        -143.572
  -8705501.828 8  -5965389.66446  23857889.373    23857892.0484   23857899.9584
      3924.902        3058.365
  -1169421.917 9   -895822.34346  24032446.912    24032447.6874   24032454.0184
      3715.169        2894.937
 -14898670.833 9 -11592154.38748  19920644.913    19920645.8114   19920651.4574
       531.819         414.404
   5681466.730 9   4431599.76548  21492564.735    21492565.7184   21492571.8104
     -2494.953       -1944.119
  -5402544.349 9  -4201213.49146  23648443.208    23648443.6854   23648450.8334
     -1241.995        -967.788
 97  5  5 17 23 29.9990000  0  7 26  2  4  9  7 27 15               -0.000950867
  -9686228.069 9  -7531767.98548  22428072.031    22428073.9324   22428079.5024
      -492.331        -383.635
  -3226428.555 9  -2507722.97548  20916382.309    20916383.1324   20916388.6954
      -190.815        -148.687
  -8823249.904 9  -6057141.31946  23835482.866    23835485.2484   23835493.2664
      3925.135        3058.547
  -1280822.843 9   -982628.24846  24011248.031    24011248.7294   24011255.0814
      3711.816        2892.324
 -14914387.770 9 -11604401.34648  19917654.020    19917654.9144   19917660.5864
       516.025         402.097
   5756514.196 9   4490078.25548  21506845.768    21506846.8064   21506852.9264
     -2508.044       -1954.320
  -5365007.825 9  -4171964.28546  23655586.220    23655586.6334   23655593.7644
     -1260.314        -982.063
 97  5  5 17 23 59.9990000  0  7 26  2  4  9  7 27 15               -0.000958676
  -9671210.984 9  -7520066.39048  22430929.925    22430931.6454   22430937.2114
      -508.990        -396.615
  -3220614.027 9  -2503192.19148  20917488.636    20917489.6094   20917495.1904
      -197.142        -153.617
  -8941005.639 9  -6148898.96146  23813074.540    23813077.0254   23813085.1314
      3924.946        3058.399
  -1392131.675 9  -1069362.39446  23990065.951    23990067.3534   23990073.6484
      3708.493        2889.735
 -14929633.122 9 -11616280.84448  19914752.939    19914753.8124   19914759.5294
       499.956         389.576
   5831942.059 9   4548853.15848  21521199.314    21521200.2804   21521206.4064
     -2520.621       -1964.120
  -5326929.009 9  -4142292.51846  23662832.166    23662832.7164   23662839.9734
     -1278.542        -996.266
 97  5  5 17 24 29.9990000  0  7 26  2  4  9  7 27 15               -0.000966489
  -9655702.860 9  -7507982.17848  22433881.169    22433882.7844   22433888.3734
      -524.979        -409.075
  -3214605.444 9  -2498510.20048  20918632.035    20918633.0294   20918638.5814
      -203.506        -158.576
  -9058748.148 9  -6240646.31246  23790669.131    23790671.3454   23790679.4154
      3924.450        3058.013
  -1503337.749 9  -1156016.48746  23968904.259    23968905.5394   23968911.7224
      3705.192        2887.163
 -14944387.428 9 -11627777.70348  19911945.253    19911946.1624   19911951.9064
       483.746         376.945
   5907737.041 9   4607914.13448  21535622.610    21535623.6174   21535629.7564
     -2532.526       -1973.397
  -5288303.265 9  -4112194.57846  23670182.865    23670182.9674   23670190.3014
     -1296.634       -1010.364
 97  5  5 17 24 59.9990000  0  7 26  2  4  9  7 27 15               -0.000974304
  -9639708.922 9  -7495519.41148  22436924.671    22436926.4154   22436932.0364
      -542.210        -422.501
  -3208395.303 9  -2493671.14748  20919813.785    20919814.8044   20919820.3804
      -211.445        -164.762
  -9176466.254 9  -6332374.66046  23768268.515    23768270.3184   23768278.3244
      3922.648        3056.609
  -1614440.276 9  -1242589.88646  23947762.536    23947763.4134   23947769.4694
      3700.854        2883.782
 -14958664.479 9 -11638902.67948  19909228.438    19909229.3274   19909235.0834
       467.302         364.131
   5983895.234 9   4667258.11648  21550115.076    21550116.0674   21550122.2114
     -2545.576       -1983.566
  -5249133.111 9  -4081672.42246  23677636.076    23677636.7734   23677644.1124
     -1315.566       -1025.116
 97  5  5 17 25 29.9990000  0  7 26  2  4  9  7 27 15               -0.000982106
  -9623213.476 9  -7482665.85448  22440063.917    22440065.3504   22440071.0584
      -557.977        -434.787
  -3201965.312 9  -2488660.78048  20921037.276    20921038.3674   20921044.0034
      -217.797        -169.712
  -9294150.646 9  -6424076.74246  23745874.255    23745875.7614   23745883.5674
      3922.316        3056.350
  -1725438.042 9  -1329081.64546  23926640.208    23926641.2364   23926647.2964
      3698.353        2881.834
 -14972481.396 9 -11649669.10748  19906599.164    19906600.0384   19906605.7994
       453.372         353.277
   6060423.191 9   4726890.23748  21564677.820    21564678.9094   21564685.0364
     -2557.029       -1992.490
  -5209414.390 9  -4050722.80446  23685193.946    23685194.9654   23685202.4004
     -1332.906       -1038.628
 97  5  5 17 25 59.9990000  0  7 26  2  4  9  7 27 15               -0.000989890
  -9606240.012 9  -7469439.81048  22443294.481    22443295.3744   22443300.9704
      -574.240        -447.460
  -3195336.445 9  -2483495.44748  20922298.965    20922299.8804   20922305.4814
      -224.847        -175.205
  -9411816.187 9  -6515764.16346  23723483.718    23723484.8204   23723492.5684
      3921.329        3055.581
  -1836343.062 9  -1415501.13146  23905535.457    23905536.6264   23905542.7874
      3694.562        2878.879
 -14985888.441 9 -11660116.15748  19904047.799    19904048.7454   19904054.5244
       439.631         342.570
   6137309.671 9   4786801.72848  21579308.861    21579309.9804   21579316.0844
     -2569.415       -2002.142
  -5169165.435 9  -4019360.01146  23692853.094    23692854.1304   23692861.5184
     -1350.970       -1052.704
 97  5  5 17 26 29.9990000  0  7 26  2  4  9  7 27 15               -0.000997650
  -9588792.611 9  -7455844.46948  22446614.199    22446615.4894   22446621.1364
      -589.757        -459.551
  -3188500.544 9  -2478168.78648  20923599.748    20923600.7334   20923606.2804
      -231.503        -180.392
  -9529456.593 9  -6607431.96546  23701097.773    23701098.6024   23701106.3204
      3920.564        3054.985
  -1947141.849 9  -1501837.82946  23884451.144    23884452.2794   23884458.4754
      3691.178        2876.243
 -14998893.941 9 -11670250.31948  19901572.997    19901573.9204   19901579.6654
       426.475         332.318
   6214567.519 9   4847002.59248  21594010.663    21594011.7164   21594017.8314
     -2582.092       -2012.020
  -5128387.144 9  -3987584.76346  23700613.258    23700614.1154   23700621.4024
     -1368.434       -1066.312
 97  5  5 17 26 59.9990000  0  7 26  2  4  9  7 27 15               -0.001005381
  -9570872.253 9  -7441880.58548  22450024.297    22450025.6474   22450031.3094
      -605.458        -471.785
  -3181469.837 9  -2472690.32948  20924937.700    20924938.6724   20924944.2014
      -237.803        -185.301
  -9647070.281 9  -6699078.94946  23678716.279    23678717.3614   23678725.1794
      3919.835        3054.417
  -2057837.268 9  -1588093.98446  23863386.195    23863387.6094   23863393.8654
      3687.972        2873.744
 -15011505.552 9 -11680077.54848  19899173.259    19899174.0334   19899179.7324
       413.481         322.193
   6292216.843 9   4907508.50048  21608786.819    21608787.9444   21608794.0904
     -2595.030       -2022.101
  -5087083.270 9  -3955399.94746  23708473.146    23708474.0494   23708481.2614
     -1385.797       -1079.842
 97  5  5 17 27 29.9980000  0  7 26  2  4  9  7 27 15               -0.001013086
  -9552475.680 9  -7427545.62348  22453525.237    22453526.4174   22453532.1014
      -621.586        -484.353
  -3174241.008 9  -2467057.49148  20926313.535    20926314.2944   20926319.7964
      -244.732        -190.700
  -9764650.454 9  -6790699.83346  23656341.684    23656342.6684   23656350.4334
      3918.391        3053.292
  -2168420.204 9  -1674262.50046  23842342.711    23842344.3554   23842350.5844
      3683.883        2870.558
 -15023696.435 9 -11689576.94048  19896853.367    19896854.1724   19896859.8794
       398.479         310.503
   6370261.367 9   4968322.35148  21623638.361    21623639.3474   21623645.5654
     -2608.585       -2032.664
  -5045249.511 9  -3922802.26946  23716433.874    23716434.7304   23716441.9754
     -1403.816       -1093.883
 97  5  5 17 27 59.9980000  0  7 26  2  4  9  7 27 15               -0.001020782
  -9533604.704 9  -7412841.00848  22457116.381    22457117.5204   22457123.1584
      -636.808        -496.214
  -3166807.102 9  -2461264.84748  20927728.167    20927728.9424   20927734.4474
      -251.082        -195.648
  -9882192.342 9  -6882290.84446  23633974.105    23633975.1104   23633982.8634
      3917.456        3052.563
  -2278891.976 9  -1760344.38246  23821320.835    23821322.2214   23821328.5494
      3680.717        2868.091
 -15035427.431 9 -11698717.97848  19894621.019    19894621.8424   19894627.5434
       383.178         298.580
   6448698.823 9   5029442.38748  21638564.367    21638565.5434   21638571.8184
     -2620.799       -2042.181
  -5002882.436 9  -3889788.99446  23724495.800    23724496.9824   23724504.2174
     -1420.860       -1107.164
 97  5  5 17 28 29.9980000  0  7 26  2  4  9  7 27 15               -0.001028478
  -9514248.365 9  -7397758.17448  22460799.927    22460800.9334   22460806.5944
      -652.977        -508.813
  -3159158.734 9  -2455305.09748  20929183.804    20929184.4414   20929189.9014
      -257.972        -201.017
  -9999680.668 9  -6973840.10846  23611616.533    23611617.6944   23611625.5074
      3915.725        3051.214
  -2389253.495 9  -1846340.32546  23800320.185    23800321.0924   23800327.4774
      3677.406        2865.511
 -15046660.233 9 -11707470.82148  19892483.337    19892484.2854   19892490.0224
       366.385         285.495
   6527520.333 9   5090861.67847  21653563.754    21653564.8024   21653571.1464
     -2633.149       -2051.804
  -4959982.343 9  -3856360.38646  23732660.199    23732660.7384   23732667.8234
     -1438.453       -1120.872
 97  5  5 17 28 59.9980000  0  7 26  2  4  9  7 27 15               -0.001036197
  -9494409.390 9  -7382299.27547  22464575.078    22464576.1794   22464581.8684
      -669.376        -521.592
  -3151308.479 9  -2449188.02748  20930677.648    20930678.3014   20930683.7664
      -265.275        -206.708
 -10117122.395 9  -7065353.06546  23589268.105    23589269.3404   23589277.1414
      3913.865        3049.765
  -2499525.306 9  -1932266.37646  23779336.197    23779337.0114   23779343.4704
      3674.168        2862.988
 -15057389.549 9 -11715831.33248  19890441.692    19890442.6284   19890448.3594
       349.204         272.107
   6606692.567 9   5152554.26047  21668629.757    21668630.8144   21668637.1844
     -2644.771       -2060.861
  -4916559.859 9  -3822524.71746  23740922.836    23740923.7674   23740930.9164
     -1456.205       -1134.705
 97  5  5 17 29 29.9980000  0  7 26  2  4  9  7 27 15               -0.001043935
  -9474089.421 9  -7366465.55948  22468441.705    22468442.9384   22468448.6894
      -684.772        -533.589
  -3143243.161 9  -2442903.37848  20932212.215    20932213.0624   20932218.5164
      -271.699        -211.714
 -10234508.975 9  -7156823.02546  23566929.674    23566931.3374   23566939.1554
      3912.434        3048.650
  -2609695.737 9  -2018113.42846  23758371.001    23758372.2354   23758378.7034
      3671.154        2860.639
 -15067613.433 9 -11723797.99348  19888496.223    19888497.0904   19888502.8144
       333.201         259.637
   6686207.125 9   5214513.59447  21683760.888    21683761.9634   21683768.3094
     -2655.655       -2069.341
  -4872610.985 9  -3788278.86246  23749286.252    23749286.9394   23749294.0874
     -1473.080       -1147.855
 97  5  5 17 29 59.9980000  0  7 26  2  4  9  7 27 15               -0.001051687
  -9453300.710 9  -7350266.60448  22472397.555    22472398.9154   22472404.7114
      -700.943        -546.189
  -3134984.529 9  -2436468.09248  20933783.732    20933784.6284   20933790.1004
      -278.699        -217.168
 -10351842.966 9  -7248252.05246  23544601.427    23544603.4624   23544611.1864
      3910.006        3046.758
  -2719768.743 9  -2103884.56246  23737424.864    23737426.0744   23737432.5334
      3667.128        2857.502
 -15077364.695 9 -11731396.37848  19886640.581    19886641.4774   19886647.2114
       317.084         247.078
   6766056.389 9   5276733.73447  21698955.734    21698956.7984   21698963.1564
     -2667.747       -2078.764
  -4828151.462 9  -3753635.11846  23757746.524    23757747.2784   23757754.4454
     -1490.859       -1161.708
 97  5  5 17 30 29.9980000  0  7 26  2  4  9  7 27 15               -0.001059440
  -9432040.738 9  -7333700.43248  22476443.153    22476444.5594   22476450.3694
      -716.888        -558.614
  -3126540.362 9  -2429888.23248  20935390.627    20935391.5174   20935396.9954
      -284.748        -221.882
 -10469118.783 9  -7339635.69646  23522284.576    23522286.5824   23522294.1944
      3907.769        3045.015
  -2829730.428 9  -2189568.97346  23716499.852    23716501.0474   23716507.4954
      3662.930        2854.231
 -15086651.896 9 -11738633.15848  19884873.334    19884874.1894   19884879.9204
       301.618         235.027
   6846262.474 9   5339231.91647  21714218.470    21714219.5764   21714225.8994
     -2679.872       -2088.212
  -4783171.429 9  -3718585.76346  23766305.880    23766306.8004   23766313.9414
     -1508.393       -1175.371
 97  5  5 17 30 59.9980000  0  7 26  2  4  9  7 27 15               -0.001067182
  -9410321.038 9  -7316776.02348  22480576.226    22480577.7294   22480583.5344
      -731.743        -570.189
  -3117925.346 9  -2423175.24948  20937030.092    20937030.9294   20937036.4114
      -290.219        -226.145
 -10586336.389 9  -7430973.97246  23499979.195    23499980.8134   23499988.4054
      3906.222        3043.809
  -2939562.106 9  -2275152.06946  23695599.423    23695600.7514   23695607.1964
      3658.431        2850.725
 -15095500.909 9 -11745528.49548  19883189.440    19883190.3104   19883196.0164
       287.875         224.318
   6926828.749 9   5402010.76047  21729549.840    21729550.8504   21729557.2114
     -2691.943       -2097.618
  -4737671.957 9  -3683131.65746  23774964.020    23774965.1014   23774972.1924
     -1525.478       -1188.684
 97  5  5 17 31 29.9980000  0  7 26  2  4  9  7 27 15               -0.001074898
  -9388140.008 9  -7299492.13748  22484797.232    22484798.7074   22484804.5294
      -747.783        -582.688
  -3109133.496 9  -2416324.46748  20938703.104    20938703.9744   20938709.4604
      -296.694        -231.190
 -10703499.830 9  -7522270.04246  23477683.938    23477685.2784   23477692.8264
      3903.942        3042.033
  -3049243.357 9  -2360617.95947  23674727.925    23674729.1164   23674735.5734
      3652.898        2846.414
 -15103932.030 9 -11752098.19448  19881585.047    19881585.9024   19881591.5994
       273.329         212.984
   7007772.179 9   5465083.49147  21744952.772    21744953.9124   21744960.2784
     -2704.922       -2107.731
  -4691653.877 9  -3647273.43746  23783720.959    23783722.1244   23783729.2054
     -1543.141       -1202.447
 97  5  5 17 31 59.9980000  0  7 26  2  4  9  7 27 15               -0.001082593
  -9365493.663 9  -7281845.67748  22489106.680    22489108.2054   22489113.9814
      -762.439        -594.108
  -3100150.227 9  -2409324.53648  20940412.486    20940413.4364   20940418.9064
      -302.762        -235.918
 -10820610.386 9  -7613524.91746  23455398.765    23455399.8314   23455407.2374
      3902.843        3041.176
  -3158769.786 9  -2445963.23446  23653886.130    23653886.9274   23653893.3624
      3648.238        2842.783
 -15111934.602 9 -11758333.96648  19880062.215    19880063.0854   19880068.7644
       259.535         202.235
   7089081.697 9   5528441.49347  21760425.574    21760426.7064   21760433.0824
     -2716.284       -2116.585
  -4645120.710 9  -3611013.85846  23792576.508    23792577.0844   23792584.2164
     -1559.724       -1215.369
 97  5  5 17 32 29.9980000  0  7 26  2  4  9  7 27 15               -0.001090286
  -9342410.030 9  -7263858.46348  22493499.474    22493500.8954   22493506.6644
      -777.256        -605.654
  -3090985.874 9  -2402183.49448  20942156.522    20942157.3554   20942162.8584
      -309.158        -240.902
 -10937696.410 9  -7704760.65846  23433117.859    23433119.0844   23433126.4414
      3901.884        3040.429
  -3268154.828 9  -2531198.32246  23633071.094    23633071.6644   23633078.0214
      3643.287        2838.925
 -15119530.886 9 -11764253.14848  19878616.743    19878617.5694   19878623.2544
       246.123         191.784
   7170721.125 9   5592056.56047  21775961.284    21775962.2954   21775968.6164
     -2727.153       -2125.054
  -4598095.495 9  -3574370.86246  23801525.044    23801525.6044   23801532.9064
     -1576.206       -1228.212
 97  5  5 17 32 59.9980000  0  7 26  2  4  9  7 27 15               -0.001097958
  -9318870.780 9  -7245516.22848  22497979.045    22497980.3344   22497986.0744
      -792.689        -617.680
  -3081603.521 9  -2394872.59048  20943942.012    20943942.7744   20943948.2494
      -316.910        -246.943
 -11054741.882 9  -7795964.79646  23410844.782    23410845.9794   23410853.2544
      3900.532        3039.376
  -3377382.525 9  -2616310.80046  23612285.995    23612286.3074   23612292.6894
      3638.108        2834.889
 -15126721.594 9 -11769856.29948  19877248.362    19877249.2274   19877254.9164
       232.495         181.165
   7252699.998 9   5655936.13547  21791561.299    21791562.4294   21791568.8104
     -2738.680       -2134.036
  -4550562.463 9  -3537332.17246  23810569.902    23810570.8364   23810578.1824
     -1593.218       -1241.468
 97  5  5 17 33 29.9980000  0  7 26  2  4  9  7 27 15               -0.001105607
  -9294853.087 9  -7226801.18348  22502549.320    22502550.7534   22502556.5134
      -808.490        -629.992
  -3071981.275 9  -2387374.75448  20945773.069    20945773.8614   20945779.3124
      -324.624        -252.954
 -11171721.589 9  -7887117.67746  23388584.531    23388585.4084   23388592.7274
      3897.986        3037.392
  -3486455.515 9  -2701302.72046  23591529.973    23591530.2824   23591536.7004
      3633.359        2831.189
 -15133482.213 9 -11775124.30848  19875961.900    19875962.7524   19875968.4234
       218.007         169.876
   7335028.696 9   5720088.29747  21807228.139    21807229.1144   21807235.5394
     -2749.994       -2142.852
  -4502509.815 9  -3499888.58346  23819713.817    23819715.0004   23819722.2914
     -1610.392       -1254.851
 97  5  5 17 33 59.9980000  0  7 26  2  4  9  7 27 15               -0.001113252
  -9270394.056 9  -7207742.23848  22507203.863    22507205.1764   22507211.0074
      -822.802        -641.144
  -3062154.030 9  -2379717.17448  20947643.123    20947643.9214   20947649.4144
      -330.998        -257.921
 -11288646.214 9  -7978227.69846  23366334.276    23366335.3024   23366342.5284
      3896.296        3036.075
  -3595407.402 9  -2786200.28846  23570796.671    23570797.3954   23570803.7564
      3629.632        2828.285
 -15139835.015 9 -11780074.54348  19874752.992    19874753.8624   19874759.5164
       204.924         159.681
   7417677.467 9   5784489.86647  21822955.548    21822956.6594   21822963.1954
     -2760.617       -2151.130
  -4453961.295 9  -3462058.61046  23828952.744    23828953.4824   23828960.8394
     -1626.790       -1267.629
 97  5  5 17 34 29.9980000  0  7 26  2  4  9  7 27 15               -0.001120883
  -9245479.258 9  -7188328.15348  22511945.288    22511946.3374   22511952.1984
      -837.865        -652.882
  -3052127.106 9  -2371904.00648  20949551.263    20949551.9954   20949557.5064
      -337.289        -262.822
 -11405499.445 9  -8069282.03846  23344097.217    23344098.6324   23344106.0214
      3893.953        3034.249
  -3704238.193 9  -2871003.47246  23550086.068    23550087.5504   23550093.9474
      3626.029        2825.477
 -15145779.293 9 -11784706.45448  19873621.856    19873622.7214   19873628.3214
       191.392         149.137
   7500663.278 9   5849154.06547  21838747.323    21838748.3544   21838754.9034
     -2771.575       -2159.669
  -4404906.139 9  -3423833.86046  23838288.055    23838288.4444   23838295.8454
     -1643.357       -1280.538
 97  5  5 17 34 59.9980000  0  7 26  2  4  9  7 27 15               -0.001128508
  -9220103.143 9  -7168554.59448  22516773.998    22516775.2534   22516781.1424
      -854.074        -665.512
  -3041906.796 9  -2363940.14448  20951496.136    20951496.8284   20951502.3834
      -344.245        -268.243
 -11522267.890 9  -8160270.33646  23321876.444    23321878.2764   23321885.8034
      3890.366        3031.454
  -3812956.210 9  -2955718.77746  23529396.954    23529399.1064   23529405.4874
      3621.549        2821.986
 -15151298.760 9 -11789007.33748  19872571.585    19872572.4524   19872577.9934
       176.005         137.147
   7583986.726 9   5914081.36147  21854603.285    21854604.3414   21854610.8934
     -2783.599       -2169.038
  -4355350.548 9  -3385219.15446  23847718.086    23847718.5854   23847725.8824
     -1660.598       -1293.972
 97  5  5 17 35 29.9980000  0  7 26  2  4  9  7 27 15               -0.001136128
  -9194258.352 9  -7148415.82748  22521692.092    22521693.4094   22521699.3094
      -869.035        -677.170
  -3031489.627 9  -2355822.88848  20953478.322    20953479.1614   20953484.7324
      -350.623        -273.213
 -11638934.959 9  -8251179.63746  23299675.251    23299677.1434   23299684.6244
      3887.271        3029.042
  -3921538.863 9  -3040328.58446  23508734.528    23508736.4174   23508742.8944
      3616.954        2818.406
 -15156352.610 9 -11792945.40948  19871609.884    19871610.7354   19871616.2394
       160.700         125.221
   7667661.391 9   5979282.33147  21870526.068    21870527.0834   21870533.6614
     -2795.051       -2177.962
  -4305285.811 9  -3346207.70846  23857245.224    23857245.6024   23857252.8624
     -1677.370       -1307.042
 97  5  5 17 35 59.9980000  0  7 26  2  4  9  7 27 15               -0.001143750
  -9167967.885 9  -7127929.78148  22526695.078    22526696.3594   22526702.2404
      -884.227        -689.008
  -3020873.428 9  -2347550.54248  20955498.776    20955499.3974   20955504.9534
      -357.582        -278.635
 -11755519.458 9  -8342024.58446  23277490.300    23277491.6954   23277499.1444
      3884.567        3026.935
  -4029979.032 9  -3124827.39246  23488099.585    23488100.9514   23488107.4734
      3611.893        2814.462
 -15160946.432 9 -11796525.00948  19870735.738    19870736.5874   19870742.0594
       145.052         113.028
   7751681.734 9   6044752.66247  21886514.713    21886515.6644   21886522.2724
     -2806.729       -2187.062
  -4254719.453 9  -3306805.38546  23866867.766    23866868.0344   23866875.3504
     -1694.165       -1320.129
 97  5  5 17 36 29.9980000  0  7 26  2  4  9  7 27 15               -0.001151376
  -9141216.236 9  -7107084.37447  22531785.811    22531787.0294   22531792.9434
      -899.342        -700.786
  -3010048.177 9  -2339115.29448  20957558.610    20957559.3604   20957564.9694
      -364.291        -283.863
 -11872020.937 9  -8432804.88046  23255320.889    23255322.1874   23255329.7254
      3881.946        3024.893
  -4138258.983 9  -3209201.35847  23467494.711    23467495.9324   23467502.4774
      3606.499        2810.259
 -15165063.939 9 -11799733.45848  19869952.316    19869953.0944   19869958.5574
       129.373         100.810
   7836049.531 9   6110493.73647  21902569.397    21902570.3724   21902577.0214
     -2818.059       -2195.890
  -4203651.466 9  -3267012.18346  23876585.458    23876585.9384   23876593.2434
     -1710.609       -1332.942
 97  5  5 17 36 59.9980000  0  7 26  2  4  9  7 27 15               -0.001159003
  -9114018.287 9  -7085891.20247  22536961.203    22536962.6084   22536968.6004
      -913.961        -712.177
  -2999021.322 9  -2330522.95948  20959656.980    20959657.7334   20959663.3664
      -370.893        -289.007
 -11988439.977 9  -8523520.88646  23233166.875    23233168.2384   23233175.9414
      3879.285        3022.819
  -4246371.794 9  -3293445.08347  23446921.893    23446922.7534   23446929.2974
      3600.968        2805.949
 -15168717.558 9 -11802580.43848  19869256.915    19869257.7854   19869263.3184
       114.284          89.052
   7920761.740 9   6176503.17947  21918689.818    21918690.6394   21918697.3064
     -2829.519       -2204.820
  -4152088.238 9  -3226833.07846  23886397.678    23886398.2924   23886405.4324
     -1727.118       -1345.806
 97  5  5 17 37 29.9980000  0  7 26  2  4  9  7 27 15               -0.001166620
  -9086378.394 9  -7064353.67547  22542220.877    22542222.3204   22542228.3204
      -928.601        -723.585
  -2987784.576 9  -2321767.06648  20961795.136    20961796.0104   20961801.6634
      -378.002        -294.547
 -12104769.693 9  -8614167.33946  23211029.830    23211031.2954   23211038.9814
      3876.137        3020.366
  -4354307.177 9  -3377550.54947  23426382.617    23426383.3284   23426389.9134
      3595.133        2801.402
 -15171918.758 9 -11805074.88648  19868647.683    19868648.5674   19868654.1144
        99.549          77.571
   8005823.668 9   6242785.14047  21934876.554    21934877.4204   21934884.0994
     -2840.964       -2213.738
  -4100020.801 9  -3186261.06646  23896306.005    23896306.5994   23896313.5674
     -1743.833       -1358.831
 97  5  5 17 37 59.9980000  0  7 26  2  4  9  7 27 15               -0.001174225
  -9058283.754 9  -7042461.78347  22547567.053    22547568.5384   22547574.5084
      -944.224        -735.759
  -2976340.714 9  -2312849.78748  20963972.734    20963973.6804   20963979.3484
      -384.780        -299.829
 -12221003.840 9  -8704739.34646  23188911.176    23188912.6684   23188920.2714
      3872.825        3017.786
  -4462075.276 9  -3461525.67547  23405875.120    23405875.8164   23405882.2764
      3589.611        2797.099
 -15174682.389 9 -11807228.36748  19868121.878    19868122.6634   19868128.2164
        84.882          66.142
   8091224.121 9   6309330.87247  21951127.670    21951128.5614   21951135.3534
     -2852.150       -2222.455
  -4047455.001 9  -3145300.74946  23906308.930    23906309.4704   23906316.5014
     -1760.378       -1371.723
 97  5  5 17 38 29.9980000  0  7 26  2  4  9  7 27 15               -0.001181820
  -9029733.556 9  -7020214.91047  22553000.304    22553001.5294   22553007.4314
      -958.659        -747.007
  -2964702.338 9  -2303780.93848  20966187.488    20966188.3814   20966194.0554
      -390.778        -304.502
 -12337134.859 9  -8795230.94946  23166812.268    23166813.5704   23166821.1844
      3869.564        3015.245
  -4569693.107 9  -3545383.70047  23385396.008    23385396.8004   23385403.3054
      3585.273        2793.719
 -15177023.890 9 -11809052.92048  19867676.306    19867677.0924   19867682.7114
        71.539          55.745
   8176947.273 9   6376128.06647  21967440.191    21967441.1874   21967448.0024
     -2862.376       -2230.423
  -3994402.772 9  -3103961.36846  23916404.352    23916404.9854   23916412.0814
     -1776.138       -1384.004
 97  5  5 17 38 59.9980000  0  7 26  2  4  9  7 27 15               -0.001189401
  -9000736.669 9  -6997619.96147  22558518.326    22558519.5124   22558525.3314
      -973.613        -758.659
  -2952855.432 9  -2294549.59548  20968441.997    20968442.8184   20968448.4884
      -398.092        -310.202
 -12453145.329 9  -8885628.65246  23144736.246    23144737.4784   23144745.0644
      3865.413        3012.010
  -4677157.006 9  -3629121.74746  23364946.150    23364947.1034   23364953.6214
      3579.823        2789.472
 -15178941.153 9 -11810546.89548  19867311.422    19867312.2384   19867317.8684
        57.099          44.493
   8263000.136 9   6443182.19047  21983815.694    21983816.5514   21983823.3844
     -2873.547       -2239.128
  -3940855.966 9  -3062236.61246  23926594.057    23926594.5774   23926601.8104
     -1792.790       -1396.979
 97  5  5 17 39 29.9980000  0  7 26  2  4  9  7 27 15               -0.001196976
  -8971302.245 9  -6974684.08147  22564119.437    22564120.6904   22564126.5454
      -988.437        -770.211
  -2940797.368 9  -2285153.72148  20970736.666    20970737.4164   20970743.1094
      -405.608        -316.058
 -12569046.746 9  -8975941.38946  23122680.651    23122682.0964   23122689.6324
      3861.588        3009.030
  -4784466.396 9  -3712739.43546  23344526.159    23344526.7904   23344533.2924
      3574.335        2785.196
 -15180429.508 9 -11811706.66248  19867028.193    19867029.0084   19867034.6224
        42.382          33.025
   8349375.410 9   6510487.51547  22000252.356    22000253.2964   22000260.1154
     -2884.501       -2247.663
  -3886821.990 9  -3020132.24346  23936876.226    23936876.9404   23936884.1844
     -1809.251       -1409.806
 97  5  5 17 39 59.9980000  0  7 26  2  4  9  7 27 15               -0.001204541
  -8941423.154 9  -6951401.72047  22569805.107    22569806.5154   22569812.3104
     -1003.377        -781.852
  -2928515.035 9  -2275583.08748  20973073.957    20973074.6634   20973080.3994
      -413.369        -322.106
 -12684836.557 9  -9066167.13746  23100646.482    23100647.9254   23100655.4304
      3857.590        3005.914
  -4891609.979 9  -3796227.91446  23324137.436    23324137.9894   23324144.5034
      3568.464        2780.621
 -15181481.660 9 -11812526.52548  19866827.970    19866828.7924   19866834.4124
        27.783          21.649
   8436076.975 9   6578047.09547  22016751.236    22016752.1694   22016758.9684
     -2895.753       -2256.431
  -3832296.396 9  -2977644.78846  23947252.303    23947252.8304   23947259.9654
     -1825.904       -1422.782
 97  5  5 17 40 29.9980000  0  7 26  2  4  9  7 27 15               -0.001212098
  -8911126.209 9  -6927793.74647  22575570.386    22575571.8144   22575577.5944
     -1016.494        -792.073
  -2916011.237 9  -2265839.87748  20975453.388    20975454.0524   20975459.8504
      -420.235        -327.456
 -12800517.043 9  -9156307.69846  23078633.076    23078634.5804   23078642.1164
      3854.493        3003.501
  -4998593.305 9  -3879591.49646  23303778.784    23303779.6694   23303786.2724
      3563.471        2776.731
 -15182118.905 9 -11813023.08448  19866706.760    19866707.5564   19866713.1794
        14.579          11.360
   8523102.354 9   6645859.00947  22033311.661    22033312.6404   22033319.3904
     -2906.117       -2264.507
  -3777287.587 9  -2934780.80346  23957720.112    23957720.5704   23957727.9154
     -1841.542       -1434.968
 97  5  5 17 40 59.9980000  0  7 26  2  4  9  7 27 15               -0.001219647
  -8880425.078 9  -6903870.82747  22581412.741    22581414.0794   22581419.8834
     -1030.472        -802.965
  -2903302.533 9  -2255937.01048  20977871.971    20977872.4514   20977878.2564
      -427.278        -332.944
 -12916106.316 9  -9246377.20346  23056637.073    23056638.5994   23056646.1114
      3851.149        3000.895
  -5105408.285 9  -3962823.92546  23283452.505    23283453.4624   23283459.9524
      3557.520        2772.093
 -15182353.230 9 -11813205.68048  19866662.175    19866662.9684   19866668.5904
         0.943           0.735
   8610448.965 9   6713921.23147  22049933.262    22049934.2844   22049940.9624
     -2917.114       -2273.076
  -3721805.430 9  -2891547.97646  23968278.045    23968278.4494   23968285.8084
     -1857.479       -1447.386
 97  5  5 17 41 29.9980000  0  7 26  2  4  9  7 27 15               -0.001227174
  -8849287.256 9  -6879607.62247  22587338.097    22587339.4224   22587345.2774
     -1044.983        -814.272
  -2890363.925 9  -2245854.99248  20980334.297    20980334.6044   20980340.4014
      -434.978        -338.944
 -13031578.792 9  -9336355.68446  23034663.423    23034664.8164   23034672.3764
      3847.223        2997.836
  -5212041.931 9  -4045915.04947  23263160.965    23263161.7694   23263168.1754
      3551.802        2767.638
 -15182171.155 9 -11813063.80948  19866696.808    19866697.6204   19866703.2254
       -12.722          -9.913
   8698127.426 9   6782242.02647  22066618.133    22066619.0884   22066625.7044
     -2927.657       -2281.291
  -3665836.331 9  -2847935.73746  23978928.540    23978929.0734   23978936.4124
     -1873.363       -1459.763
 97  5  5 17 41 59.9980000  0  7 26  2  4  9  7 27 15               -0.001234687
  -8817715.126 9  -6855006.00847  22593346.110    22593347.4394   22593353.2394
     -1059.326        -825.449
  -2877200.541 9  -2235597.82048  20982839.218    20982839.4824   20982845.3144
      -442.193        -344.566
 -13146925.148 9  -9426235.90546  23012713.606    23012714.9814   23012722.5414
      3842.779        2994.373
  -5318508.732 9  -4128876.16247  23242901.114    23242901.8014   23242908.1454
      3546.264        2763.323
 -15181585.857 9 -11812607.73748  19866808.198    19866808.9854   19866814.6214
       -26.007         -20.265
   8786113.828 9   6850802.78947  22083361.346    22083362.4084   22083369.0894
     -2937.752       -2289.157
  -3609394.502 9  -2803955.10146  23989668.927    23989669.6654   23989676.8164
     -1888.934       -1471.897
 97  5  5 17 42 29.9980000  0  7 26  2  4  9  7 27 15               -0.001242169
  -8785692.544 9  -6830053.38047  22599439.806    22599441.1614   22599446.9694
     -1075.158        -837.785
  -2863797.053 9  -2225153.55948  20985389.552    20985390.0544   20985395.9384
      -450.934        -351.377
 -13262108.228 9  -9515988.91146  22990794.896    22990796.3204   22990803.7814
      3836.470        2989.457
  -5424772.864 9  -4211679.36447  23222679.907    23222680.4684   23222686.6684
      3538.337        2757.146
 -15180572.935 9 -11811818.45148  19867000.973    19867001.7504   19867007.4314
       -41.271         -32.159
   8874423.560 9   6919615.49047  22100166.230    22100167.3074   22100173.9994
     -2949.088       -2297.991
  -3552462.911 9  -2759592.84946  24000502.563    24000503.3684   24000510.6094
     -1906.132       -1485.298
 97  5  5 17 42 59.9980000  0  7 26  2  4  9  7 27 15               -0.001249621
  -8753217.236 9  -6804747.97947  22605619.753    22605621.0654   22605626.9204
     -1089.459        -848.929
  -2850151.650 9  -2214520.79448  20987986.072    20987986.7264   20987992.6164
      -458.509        -357.280
 -13377123.334 9  -9605611.00146  22968907.937    22968909.6194   22968917.0574
      3831.369        2985.482
  -5530823.213 9  -4294315.97347  23202499.359    23202499.8074   23202505.9974
      3532.143        2752.319
 -15179123.785 9 -11810689.25048  19867276.706    19867277.5284   19867283.2044
       -55.055         -42.900
   8963049.388 9   6988674.49247  22117031.410    22117032.2794   22117039.0594
     -2958.929       -2305.659
  -3495039.450 9  -2714847.33746  24011430.087    24011430.6904   24011437.9544
     -1921.799       -1497.506
 97  5  5 17 43 29.9980000  0  7 26  2  4  9  7 27 15               -0.001257042
  -8720316.651 9  -6779111.20047  22611880.588    22611881.8644   22611887.7134
     -1103.034        -859.507
  -2836272.947 9  -2203706.24048  20990627.044    20990627.7674   20990633.6504
      -465.661        -362.853
 -13491977.455 9  -9695107.67446  22947051.915    22947053.6084   22947061.0674
      3826.458        2981.656
  -5636677.113 9  -4376799.50547  23182356.055    23182356.4104   23182362.5814
      3525.490        2747.135
 -15177252.539 9 -11809231.14148  19867632.786    19867633.6084   19867639.2764
       -68.923         -53.706
   9051964.909 9   7057959.24547  22133951.497    22133952.4094   22133959.1584
     -2968.173       -2312.862
  -3437145.547 9  -2669735.23246  24022447.085    24022447.5074   24022454.8864
     -1937.078       -1509.411
 97  5  5 17 43 59.9980000  0  7 26  2  4  9  7 27 15               -0.001264440
  -8687016.541 9  -6753163.10247  22618217.387    22618218.7274   22618224.5584
     -1117.231        -870.570
  -2822197.779 9  -2192738.59648  20993305.641    20993306.2024   20993312.0864
      -472.899        -368.493
 -13606690.512 9  -9784494.41746  22925222.597    22925224.3754   22925231.8074
      3820.927        2977.346
  -5742331.213 9  -4459127.33947  23162250.968    23162251.1014   23162257.2724
      3517.911        2741.229
 -15174966.087 9 -11807449.49648  19868067.839    19868068.7024   19868074.3484
       -83.647         -65.179
   9141165.102 9   7127465.81047  22150925.615    22150926.6684   22150933.4774
     -2978.875       -2321.201
  -3378793.842 9  -2624266.38546  24033550.801    24033551.4564   24033558.6554
     -1953.280       -1522.036
 97  5  5 17 44 29.9980000  0  7 26  2  4  9  7 27 15               -0.001271835
  -8653317.170 9  -6726903.89847  22624630.005    22624631.4964   22624637.4334
     -1130.199        -880.675
  -2807934.548 9  -2181624.40548  20996019.610    20996020.3754   20996026.2484
      -478.671        -372.990
 -13721277.762 9  -9873783.13647  22903417.618    22903419.1104   22903426.6014
      3817.478        2974.658
  -5847792.606 9  -4541305.02047  23142182.313    23142182.4504   23142188.6744
      3512.226        2736.799
 -15172274.635 9 -11805352.26548  19868580.054    19868580.8344   19868586.4654
       -96.560         -75.242
   9230665.091 9   7197205.98047  22167956.986    22167957.9884   22167964.8034
     -2988.530       -2328.725
  -3319983.637 9  -2578440.30046  24044741.890    24044742.8464   24044750.0544
     -1968.126       -1533.605
 97  5  5 17 44 59.9980000  0  7 26  2  4  9  7 27 15               -0.001279242
  -8619225.264 9  -6700338.82547  22631117.456    22631119.0004   22631124.9744
     -1143.328        -890.905
  -2793496.029 9  -2170373.63248  20998767.266    20998767.9514   20998773.7904
      -484.532        -377.557
 -13835760.973 9  -9962990.76547  22881631.899    22881633.6704   22881641.1034
      3813.985        2971.936
  -5953091.479 9  -4623356.06647  23122144.772    23122144.7814   23122150.9274
      3507.019        2732.742
 -15169188.727 9 -11802947.66448  19869167.280    19869168.0754   19869173.7024
      -109.860         -85.605
   9320462.145 9   7267177.62647  22185044.925    22185045.8884   22185052.6364
     -2998.651       -2336.611
  -3260723.402 9  -2532263.50446  24056018.962    24056019.7794   24056026.9574
     -1983.128       -1545.294
 97  5  5 17 45 29.9980000  0  7 26  2  4  9  7 27 15               -0.001286663
  -8584718.630 9  -6673450.57847  22637683.874    22637685.4604   22637691.4444
     -1157.149        -901.675
  -2778868.674 9  -2158975.70948  21001550.720    21001551.4474   21001557.2214
      -490.594        -382.281
 -13950121.542 9 -10052102.84047  22859869.847    22859871.5844   22859878.9914
      3810.048        2968.869
  -6058218.118 9  -4705272.90147  23102139.630    23102139.8194   23102146.0024
      3501.538        2728.471
 -15165685.902 9 -11800218.19448  19869833.861    19869834.6704   19869840.3144
      -123.722         -96.407
   9410579.216 9   7337398.64047  22202193.730    22202194.6514   22202201.3994
     -3009.138       -2344.783
  -3200999.521 9  -2485725.47646  24067383.679    24067384.8014   24067392.2244
     -1998.451       -1557.235
 97  5  5 17 45 59.9980000  0  7 26  2  4  9  7 27 15               -0.001294098
  -8549780.190 9  -6646225.86047  22644332.504    22644334.0724   22644340.0364
     -1171.605        -912.939
  -2764045.097 9  -2147424.88548  21004371.755    21004372.3054   21004378.0854
      -497.487        -387.652
 -14064354.430 9 -10141115.42847  22838132.028    22838133.7674   22838141.0724
      3805.653        2965.444
  -6163178.122 9  -4787059.89147  23082166.206    23082166.5994   23082172.7944
      3496.072        2724.212
 -15161760.015 9 -11797159.06648  19870581.006    19870581.7924   19870587.3944
      -137.505        -107.147
   9501028.329 9   7407878.38447  22219405.731    22219406.5934   22219413.4194
     -3020.247       -2353.439
  -3140804.429 9  -2438820.21446  24078838.495    24078839.6504   24078846.9164
     -2014.134       -1569.455
 97  5  5 17 46 29.9980000  0  7 26  2  4  9  7 27 15               -0.001301541
  -8514423.773 9  -6618675.44247  22651060.698    22651062.2244   22651068.1964
     -1185.018        -923.391
  -2749019.607 9  -2135716.72548  21007230.951    21007231.5804   21007237.3784
      -503.967        -392.702
 -14178458.710 9 -10230027.79346  22816418.715    22816420.4174   22816427.6584
      3801.452        2962.170
  -6267983.081 9  -4868726.07547  23062222.200    23062222.8794   23062229.0294
      3491.156        2720.381
 -15157437.113 9 -11793790.56848  19871403.584    19871404.4034   19871410.0084
      -150.638        -117.380
   9591790.303 9   7478601.91647  22236677.143    22236678.0654   22236684.9054
     -3030.122       -2361.134
  -3080151.837 9  -2391558.49046  24090380.296    24090381.5384   24090388.7844
     -2029.029       -1581.062
 97  5  5 17 46 59.9980000  0  7 26  2  4  9  7 27 15               -0.001309006
  -8478678.074 9  -6590821.69547  22657862.906    22657864.4094   22657870.4404
     -1198.635        -934.001
  -2733799.419 9  -2123856.85448  21010127.250    21010127.9174   21010133.6984
      -511.360        -398.462
 -14292434.376 9 -10318839.94246  22794729.899    22794731.4984   22794738.6984
      3796.234        2958.104
  -6372631.919 9  -4950270.59947  23042308.193    23042308.9024   23042315.0274
      3484.809        2715.436
 -15152712.916 9 -11790109.38348  19872302.643    19872303.3924   19872308.9984
      -164.791        -128.409
   9682837.874 9   7549547.99147  22254003.142    22254003.9284   22254010.7454
     -3040.311       -2369.073
  -3019060.736 9  -2343955.04946  24102005.899    24102006.8334   24102013.9464
     -2044.232       -1592.908
 97  5  5 17 47 29.9980000  0  7 26  2  4  9  7 27 15               -0.001316459
  -8442512.965 9  -6562641.12847  22664744.919    22664746.3714   22664752.4314
     -1212.256        -944.615
  -2718345.424 9  -2111814.79748  21013068.034    21013068.7394   21013074.4544
      -518.982        -404.401
 -14406240.629 9 -10407520.05647  22773073.185    22773074.8394   22773082.0384
      3790.888        2953.939
  -6477069.251 9  -5031650.29047  23022434.584    23022435.0774   23022441.2394
      3477.733        2709.922
 -15147558.432 9 -11786092.90248  19873283.494    19873284.2134   19873289.8024
      -178.795        -139.321
   9774196.639 9   7620736.56047  22271388.056    22271388.9894   22271395.8024
     -3050.297       -2376.855
  -2957507.081 9  -2295991.18246  24113719.118    24113720.0934   24113727.3434
     -2059.366       -1604.701
 97  5  5 17 47 59.9980000  0  7 26  2  4  9  7 27 15               -0.001323897
  -8405955.327 9  -6534154.70647  22671701.624    22671703.0934   22671709.1304
     -1224.698        -954.310
  -2702676.269 9  -2099605.08348  21016049.753    21016050.5134   21016056.2114
      -525.534        -409.507
 -14519891.157 9 -10496078.86747  22751446.266    22751447.8604   22751454.8964
      3785.864        2950.024
  -6581293.259 9  -5112863.78147  23002601.840    23002601.8914   23002608.0104
      3470.745        2704.477
 -15142001.766 9 -11781763.03748  19874340.846    19874341.5924   19874347.1974
      -191.487        -149.211
   9865838.626 9   7692145.81047  22288827.263    22288827.9894   22288834.8034
     -3059.096       -2383.711
  -2895513.252 9  -2247684.34846  24125515.688    24125517.0404   24125524.4434
     -2073.434       -1615.663
 97  5  5 17 48 29.9980000  0  7 26  2  4  9  7 27 15               -0.001331312
  -8368994.539 9  -6505354.12847  22678734.930    22678736.4714   22678742.5284
     -1238.500        -965.065
  -2686777.825 9  -2087216.70248  21019075.185    21019075.9054   21019081.5804
      -533.602        -415.794
 -14633358.314 9 -10584494.76447  22729854.401    22729855.7614   22729862.7354
      3779.381        2944.972
  -6685275.608 9  -5193888.96847  22982814.556    22982814.6674   22982820.7674
      3462.190        2697.810
 -15136024.412 9 -11777105.36148  19875478.310    19875479.0814   19875484.6284
      -206.241        -160.707
   9957774.579 9   7763784.14047  22306321.855    22306322.8804   22306329.7114
     -3069.249       -2391.622
  -2833065.365 9  -2199023.66046  24137399.459    24137400.4804   24137407.9524
     -2088.931       -1627.738
 97  5  5 17 48 59.9980000  0  7 26  2  4  9  7 27 15               -0.001338705
  -8331640.648 9  -6476247.24747  22685843.246    22685844.7514   22685850.7474
     -1251.430        -975.140
  -2670657.817 9  -2074655.67448  21022142.894    21022143.5024   21022149.1334
      -540.662        -421.295
 -14746658.045 9 -10672780.20147  22708294.186    22708295.5074   22708302.4324
      3774.268        2940.988
  -6789013.338 9  -5274723.56047  22963073.726    22963074.0104   22963080.0264
      3454.060        2691.475
 -15129631.472 9 -11772123.85348  19876694.867    19876695.6144   19876701.1704
      -219.318        -170.897
  10049998.672 9   7835646.97947  22323871.581    22323872.5544   22323879.5034
     -3078.665       -2398.960
  -2770178.615 9  -2150021.06246  24149366.621    24149367.4694   24149374.9774
     -2103.229       -1638.880
 97  5  5 17 49 29.9980000  0  7 26  2  4  9  7 27 15               -0.001346056
  -8293877.433 9  -6446821.40847  22693029.416    22693030.8704   22693036.8404
     -1265.692        -986.254
  -2654314.249 9  -2061920.43848  21025253.048    21025253.5964   21025259.2354
      -548.541        -427.435
 -14859785.703 9 -10760931.56047  22686766.478    22686768.0054   22686774.8444
      3767.934        2936.052
  -6892496.168 9  -5355359.50947  22943381.630    22943381.9024   22943387.8854
      3445.345        2684.684
 -15122838.676 9 -11766830.76548  19877987.469    19877988.2034   19877993.7654
      -233.186        -181.703
  10142520.569 9   7907741.87447  22341478.023    22341478.9064   22341485.8784
     -3089.067       -2407.065
  -2706844.629 9  -2100669.88746  24161418.768    24161419.4714   24161427.0224
     -2118.654       -1650.899
 97  5  5 17 49 59.9980000  0  7 26  2  4  9  7 27 15               -0.001353386
  -8255706.924 9  -6417078.20247  22700293.156    22700294.5114   22700300.5074
     -1279.623        -997.109
  -2637753.296 9  -2049015.81548  21028404.474    21028405.0474   21028410.6914
      -556.085        -433.313
 -14972741.772 9 -10848949.18247  22665271.528    22665273.1554   22665280.0294
      3761.838        2931.302
  -6995746.105 9  -5435813.98747  22923733.497    22923734.1084   22923740.0454
      3437.254        2678.380
 -15115646.452 9 -11761226.43348  19879355.985    19879356.7704   19879362.3804
      -246.924        -192.408
  10235330.779 9   7980061.43547  22359138.961    22359140.1704   22359147.1294
     -3098.978       -2414.788
  -2643063.700 9  -2050970.50146  24173556.049    24173556.5544   24173564.3244
     -2133.994       -1662.852
 97  5  5 17 50 29.9980000  0  7 26  2  4  9  7 27 15               -0.001360698
  -8217135.928 9  -6387022.92247  22707633.055    22707634.3594   22707640.4094
     -1291.753       -1006.561
  -2620975.236 9  -2035942.02548  21031597.194    21031597.8464   21031603.4734
      -562.532        -438.337
 -15085533.673 9 -10936838.89047  22643807.965    22643809.4974   22643816.3524
      3757.554        2927.964
  -7098766.880 9  -5516089.89247  22904129.029    22904129.8994   22904135.8514
      3430.664        2673.245
 -15108058.358 9 -11755313.64448  19880799.885    19880800.7194   19880806.3094
      -258.876        -201.722
  10328421.639 9   8052599.67947  22376853.724    22376854.8314   22376861.8394
     -3107.131       -2421.141
  -2578840.104 9  -2000926.15346  24185777.655    24185778.0784   24185785.5234
     -2147.650       -1673.494
 97  5  5 17 50 59.9980000  0  7 26  2  4  9  7 27 15               -0.001367990
  -8178179.868 9  -6356667.60047  22715046.218    22715047.5254   22715053.5754
     -1304.675       -1016.630
  -2603979.175 9  -2022698.35648  21034831.404    21034832.1404   21034837.7134
      -569.732        -443.947
 -15198171.774 9 -11024608.75247  22622373.584    22622375.0774   22622382.0134
      3752.228        2923.814
  -7201572.696 9  -5596198.28247  22884565.578    22884566.5934   22884572.5774
      3423.856        2667.940
 -15100098.138 9 -11749110.87548  19882314.640    19882315.4844   19882321.1004
      -271.265        -211.375
  10421774.397 9   8125342.00747  22394618.454    22394619.3344   22394626.3164
     -3115.724       -2427.837
  -2514183.362 9  -1950544.30446  24198081.499    24198081.9474   24198089.3664
     -2162.219       -1684.846
 97  5  5 17 51 29.9980000  0  7 26  2  4  9  7 27 15               -0.001375288
  -8138841.852 9  -6326014.63447  22722531.913    22722533.2414   22722539.3604
     -1317.297       -1026.465
  -2586772.316 9  -2009290.43148  21038105.816    21038106.5494   21038112.1024
      -576.952        -449.573
 -15310643.825 9 -11112249.22747  22600970.777    22600972.3264   22600979.2254
      3746.281        2919.180
  -7304190.837 9  -5676160.43547  22865037.871    22865038.9964   22865045.0304
      3417.774        2663.200
 -15091761.955 9 -11742615.14948  19883900.978    19883901.8324   19883907.4514
      -284.199        -221.454
  10515376.841 9   8198278.88447  22412430.257    22412431.3474   22412438.3984
     -3124.084       -2434.351
  -2449090.700 9  -1899822.73445  24210468.614    24210468.6634   24210475.9744
     -2176.834       -1696.234
 97  5  5 17 51 59.9980000  0  7 26  2  4  9  7 27 15               -0.001382604
  -8099152.765 9  -6295088.11947  22730084.535    22730085.8824   22730091.9444
     -1328.433       -1035.143
  -2569362.744 9  -1995724.55648  21041418.581    21041419.4864   21041425.0444
      -583.536        -454.703
 -15422947.588 9 -11199758.57847  22579599.831    22579601.5934   22579608.4714
      3740.816        2914.921
  -7406634.414 9  -5755986.58047  22845543.953    22845544.6304   22845550.6304
      3411.921        2658.640
 -15083054.628 9 -11735830.22848  19885558.040    19885558.8214   19885564.4074
      -296.041        -230.681
  10609216.805 9   8271400.85147  22430287.387    22430288.5644   22430295.5754
     -3131.749       -2440.324
  -2383580.712 9  -1848776.01945  24222934.755    24222934.8874   24222942.1284
     -2190.263       -1706.698
 97  5  5 17 52 29.9980000  0  7 26  2  4  9  7 27 15               -0.001389913
  -8059105.681 9  -6263882.63447  22737705.210    22737706.5134   22737712.6584
     -1341.581       -1045.388
  -2551720.072 9  -1981977.03948  21044775.942    21044776.8064   21044782.3824
      -592.889        -461.991
 -15535061.424 9 -11287119.94047  22558265.264    22558267.0484   22558273.8464
      3733.162        2908.957
  -7508879.333 9  -5835657.92447  22826087.270    22826088.0724   22826094.0264
      3404.276        2652.683
 -15073967.617 9 -11728749.44248  19887287.223    19887288.0144   19887293.5674
      -310.062        -241.607
  10703312.539 9   8344722.12447  22448193.454    22448194.4324   22448201.4324
     -3141.607       -2448.005
  -2317642.388 8  -1797395.50945  24235482.634    24235482.5754   24235489.6564
     -2205.763       -1718.776
 97  5  5 17 52 59.9980000  0  7 26  2  4  9  7 27 15               -0.001397213
  -8018673.702 9  -6232377.24147  22745399.080    22745400.4924   22745406.7174
     -1354.211       -1055.229
  -2533813.158 9  -1968023.62348  21048183.476    21048184.3914   21048189.9784
      -601.109        -468.397
 -15646950.104 9 -11374305.84147  22536973.775    22536975.2864   22536982.0734
      3725.824        2903.239
  -7610909.637 9  -5915162.02847  22806671.502    22806672.3484   22806678.2854
      3397.349        2647.285
 -15064461.254 9 -11721341.88648  19889096.227    19889097.0084   19889102.5984
      -324.164        -252.595
  10797696.452 9   8418267.94447  22466154.369    22466155.2334   22466162.2214
     -3151.056       -2455.368
  -2251253.518 8  -1745663.98945  24248115.741    24248115.8174   24248123.3564
     -2220.388       -1730.172
 97  5  5 17 53 29.9980000  0  7 26  2  4  9  7 27 15               -0.001404513
  -7977852.338 9  -6200568.42947  22753167.182    22753168.5634   22753174.8294
     -1367.132       -1065.298
  -2515652.349 9  -1953872.36948  21051639.400    21051640.2924   21051645.8814
      -609.581        -474.998
 -15758610.192 9 -11461313.62947  22515725.495    22515726.9754   22515733.7834
      3718.321        2897.393
  -7712710.534 9  -5994487.38347  22787299.280    22787300.2634   22787306.1754
      3389.282        2640.999
 -15054518.985 9 -11713594.66848  19890988.121    19890988.9464   19890994.5434
      -338.594        -263.839
  10892374.978 9   8492043.32847  22484171.258    22484172.0804   22484179.0704
     -3160.859       -2463.007
  -2184424.703 8  -1693589.57645  24260832.554    24260832.8744   24260840.3524
     -2234.754       -1741.367
 97  5  5 17 53 59.9980000  0  7 26  2  4  9  7 27 15               -0.001411801
  -7936649.036 9  -6168461.99847  22761008.048    22761009.3844   22761015.6354
     -1379.838       -1075.198
  -2497234.464 9  -1939520.79648  21055144.163    21055145.0774   21055150.6964
      -618.172        -481.692
 -15870051.897 9 -11548151.23947  22494518.454    22494520.1744   22494527.0104
      3711.219        2891.859
  -7814260.621 9  -6073617.30447  22767975.213    22767975.9144   22767981.8154
      3380.745        2634.347
 -15044145.717 9 -11705511.60648  19892962.180    19892962.9574   19892968.5404
      -352.770        -274.886
  10987342.625 9   8566044.00547  22502243.141    22502243.8624   22502250.8934
     -3170.162       -2470.256
  -2117170.291 8  -1641183.59045  24273630.700    24273631.0924   24273638.5844
     -2248.847       -1752.348
 97  5  5 17 54 29.9980000  0  7 26  2  4  9  7 27 15               -0.001419079
  -7895059.395 9  -6136054.54347  22768922.414    22768923.7094   22768929.9514
     -1392.743       -1085.254
  -2478560.601 9  -1924969.75948  21058697.892    21058698.6244   21058704.2454
      -626.603        -488.262
 -15981279.250 9 -11634821.84047  22473352.515    22473354.2164   22473361.0644
      3703.789        2886.069
  -7915553.153 9  -6152546.52647  22748699.507    22748700.5834   22748706.4804
      3371.890        2627.447
 -15033346.496 9 -11697096.63348  19895017.252    19895018.0134   19895023.5464
      -367.160        -286.099
  11082583.865 9   8640257.87947  22520367.034    22520367.7084   22520374.7894
     -3179.373       -2477.434
  -2049493.977 8  -1588448.81845  24286508.814    24286509.3484   24286516.9794
     -2262.999       -1763.376
 97  5  5 17 54 59.9980000  0  7 26  2  4  9  7 27 15               -0.001426340
  -7853082.049 9  -6103344.97547  22776910.457    22776911.8124   22776917.9374
     -1405.852       -1095.469
  -2459642.473 9  -1910228.38448  21062297.760    21062298.6224   21062304.2614
      -634.737        -494.600
 -16092275.325 9 -11721312.20647  22452230.689    22452232.2894   22452239.1714
      3695.728        2879.788
  -8016568.668 9  -6231259.90147  22729476.983    22729477.9744   22729483.8614
      3362.254        2619.938
 -15022116.111 9 -11688345.68848  19897154.429    19897155.1474   19897160.6384
      -381.588        -297.341
  11178109.840 9   8714693.61347  22538544.971    22538545.7304   22538552.9284
     -3189.046       -2484.971
  -1981388.532 8  -1535379.64245  24299468.653    24299469.3844   24299477.0684
     -2277.506       -1774.680
 97  5  5 17 55 29.9980000  0  7 26  2  4  9  7 27 15               -0.001433579
  -7810737.316 9  -6070349.13647  22784968.289    22784969.8074   22784975.8874
     -1417.310       -1104.397
  -2440503.397 9  -1895314.84448  21065939.915    21065940.6644   21065946.3374
      -641.447        -499.829
 -16203054.035 9 -11807633.20747  22431150.287    22431151.7584   22431158.6904
      3689.164        2874.673
  -8117313.954 9  -6309762.69447  22710306.123    22710306.7284   22710312.6134
      3353.960        2613.475
 -15010491.480 9 -11679287.53948  19899366.473    19899367.2644   19899372.7404
      -393.563        -306.672
  11273898.568 9   8789334.09247  22556772.798    22556773.7684   22556780.9264
     -3197.131       -2491.271
  -1912869.097 8  -1481987.90745  24312507.481    24312508.3034   24312516.0094
     -2290.693       -1784.956
 97  5  5 17 55 59.9980000  0  7 26  2  4  9  7 27 15               -0.001440797
  -7768052.742 9  -6037088.48647  22793091.040    22793092.4714   22793098.4964
     -1428.617       -1113.208
  -2421158.047 9  -1880240.57248  21069621.303    21069621.9454   21069627.6204
      -648.332        -505.194
 -16313622.542 9 -11893790.40847  22410109.606    22410111.1964   22410118.1504
      3681.824        2868.954
  -8217810.395 9  -6388071.59047  22691182.136    22691182.8624   22691188.7184
      3345.642        2606.994
 -14998509.258 9 -11669950.74948  19901646.580    19901647.4104   19901652.9064
      -405.487        -315.964
  11369935.106 9   8864167.67447  22575047.902    22575048.9714   22575056.1454
     -3205.544       -2497.826
  -1843949.513 8  -1428284.34345  24325622.465    24325623.3434   24325630.9014
     -2304.227       -1795.502
 97  5  5 17 56 29.9980000  0  7 26  2  4  9  7 27 15               -0.001448006
  -7725038.032 9  -6003570.58047  22801276.575    22801278.0054   22801283.9414
     -1439.126       -1121.397
  -2401623.820 9  -1865019.12048  21073338.264    21073339.1894   21073344.8884
      -654.153        -509.730
 -16423979.304 9 -11979782.64047  22389109.292    22389110.9184   22389117.9204
      3675.253        2863.834
  -8318076.035 9  -6466200.64347  22672102.020    22672102.9294   22672108.7864
      3338.634        2601.533
 -14986181.922 9 -11660345.03848  19903992.501    19903993.2864   19903998.7684
      -416.685        -324.690
  11466214.588 9   8939190.54747  22593369.292    22593370.4184   22593377.6264
     -3213.326       -2503.890
  -1774635.599 8  -1374273.51845  24338813.411    24338813.4774   24338820.9234
     -2316.913       -1805.387
 97  5  5 17 56 59.9980000  0  7 26  2  4  9  7 27 15               -0.001455214
  -7681685.548 9  -5969789.47247  22809526.396    22809527.8004   22809533.6674
     -1451.046       -1130.685
  -2381891.649 9  -1849643.42448  21077093.312    21077094.1404   21077099.8244
      -661.374        -515.356
 -16534122.921 9 -12065608.75947  22368149.923    22368151.1494   22368158.2994
      3667.736        2857.976
  -8418114.380 9  -6544152.57747  22653065.442    22653066.2694   22653072.1264
      3330.573        2595.252
 -14973491.519 9 -11650456.41548  19906407.407    19906408.2404   19906413.7304
      -429.376        -334.579
  11562749.765 9   9014412.68047  22611739.447    22611740.5094   22611747.7534
     -3222.301       -2510.884
  -1704919.971 8  -1319949.67645  24352079.997    24352079.9484   24352087.0884
     -2330.736       -1816.158
 97  5  5 17 57 29.9980000  0  7 26  2  4  9  7 27 15               -0.001462424
  -7637982.579 9  -5935735.24947  22817842.911    22817844.2594   22817850.0754
     -1462.722       -1139.783
  -2361953.740 9  -1834107.42448  21080887.400    21080888.2044   21080893.8634
      -668.198        -520.674
 -16644059.180 9 -12151273.33047  22347229.415    22347230.8934   22347238.1134
      3660.983        2852.714
  -8517919.762 9  -6621922.98647  22634073.008    22634073.9134   22634079.7794
      3322.824        2589.214
 -14960430.282 9 -11640278.83448  19908892.906    19908893.7184   19908899.2314
      -441.734        -344.208
  11659542.811 9   9089835.74047  22630158.670    22630159.6834   22630166.9034
     -3230.805       -2517.510
  -1634807.421 8  -1265316.54245  24365421.464    24365421.6604   24365429.1654
     -2343.741       -1826.292
 97  5  5 17 57 59.9980000  0  7 26  2  4  9  7 27 15               -0.001469634
  -7593915.916 9  -5901397.64047  22826228.554    22826229.9494   22826235.6884
     -1474.534       -1148.987
  -2341777.872 9  -1818385.99248  21084726.676    21084727.5534   21084733.2184
      -676.251        -526.949
 -16753763.491 9 -12236757.14847  22326353.200    22326354.7274   22326361.9924
      3653.421        2846.822
  -8617472.772 9  -6699496.73247  22615128.586    22615129.5714   22615135.4024
      3314.539        2582.758
 -14946964.445 9 -11629785.97848  19911455.440    19911456.1694   19911461.6684
      -455.387        -354.847
  11756610.619 9   9165472.90746  22648630.068    22648631.0784   22648638.3614
     -3239.663       -2524.413
  -1564282.782 8  -1210362.30945  24378841.900    24378842.1524   24378849.6224
     -2357.368       -1836.910
 97  5  5 17 58 29.9980000  0  8 26  2 24  4  9  7 27 15            -0.001476852
  -7549489.389 9  -5866779.61947  22834682.706    22834684.0474   22834689.8144
     -1487.263       -1158.906
  -2321359.650 9  -1802475.71648  21088612.193    21088613.0194   21088618.7294
      -685.151        -533.884
   -284824.42718   -192941.81755  24504879.727           0.0005   24504889.7135
      3976.598        3098.648
 -16863252.640 9 -12322073.31647  22305518.010    22305519.5584   22305526.7944
      3645.764        2840.855
  -8716778.801 9  -6776878.02447  22596231.214    22596232.2624   22596238.0784
      3305.740        2575.901
 -14933092.925 9 -11618977.00948  19914095.107    19914095.8284   19914101.3274
      -469.418        -365.780
  11853939.033 9   9241313.13947  22667151.138    22667152.1674   22667159.4674
     -3248.954       -2531.652
  -1493353.280 8  -1155092.58945  24392339.652    24392339.4024   24392347.0794
     -2371.362       -1847.815
 97  5  5 17 58 59.9980000  0  8 26  2 24  4  9  7 27 15            -0.001484069
  -7504704.110 9  -5831882.04147  22843205.112    22843206.3674   22843212.2084
     -1498.623       -1167.758
  -2300698.431 9  -1786376.09348  21092543.933    21092544.7384   21092550.4554
      -692.407        -539.538
   -404166.857 8   -285935.96145  24482165.520    24482168.3985   24482177.0164
      3979.266        3100.727
 -16972533.387 9 -12407227.09347  22284722.303    22284724.0954   22284731.2544
      3639.333        2835.844
  -8815837.467 9  -6854066.57447  22577381.194    22577382.0084   22577387.8134
      3297.777        2569.696
 -14918828.742 9 -11607862.06648  19916809.471    19916810.1914   19916815.7044
      -481.543        -375.228
  11951527.701 9   9317356.17046  22685721.489    22685722.7064   22685730.0584
     -3257.166       -2538.051
  -1422030.292 8  -1099516.25545  24405911.503    24405911.9074   24405919.4694
     -2383.784       -1857.494
 97  5  5 17 59 29.9980000  0  8 26  2 24  4  9  7 27 15            -0.001491262
  -7459560.058 9  -5796704.90747  22851795.653    22851797.0404   22851802.8664
     -1510.127       -1176.722
  -2279792.340 9  -1770085.66048  21096522.489    21096523.0384   21096528.7664
      -700.657        -545.966
   -523581.482 8   -378986.30755  24459442.075    24459444.2604   24459454.0645
      3982.457        3103.213
 -17081593.622 9 -12492209.04147  22263968.891    22263970.6074   22263977.6664
      3632.058        2830.175
  -8914632.289 9  -6931049.53547  22558580.991    22558581.9904   22558587.6884
      3289.440        2563.200
 -14904190.024 9 -11596455.28148  19919595.173    19919595.8024   19919601.3464
      -493.390        -384.460
  12049376.627 9   9393601.99347  22704341.419    22704342.7524   22704350.1954
     -3265.129       -2544.256
  -1350314.970 8  -1043634.21145  24419558.106    24419558.8444   24419566.4054
     -2396.549       -1867.441
 97  5  5 17 59 59.9980000  0  8 26  2 24  4  9  7 27 15            -0.001498420
  -7414065.105 9  -5761254.35547  22860452.975    22860454.4414   22860460.3864
     -1522.798       -1186.596
  -2258625.575 9  -1753592.10348  21100550.428    21100551.0024   21100556.6984
      -710.131        -553.349
   -643081.590 8   -472103.20945  24436701.642    24436704.5095   24436714.1054
      3984.089        3104.485
 -17190427.054 9 -12577014.26247  22243258.648    22243260.2674   22243267.2844
      3623.640        2823.616
  -9013169.090 9  -7007831.44647  22539830.205    22539831.0544   22539836.6774
      3279.700        2555.610
 -14889193.640 9 -11584769.79648  19922448.885    19922449.5054   19922455.0894
      -506.121        -394.380
  12147466.628 9   9470035.65947  22723007.656    22723008.7224   22723016.1694
     -3274.102       -2551.248
  -1278204.235 8   -987444.05045  24433280.018    24433280.9484   24433288.4544
     -2410.728       -1878.489
 97  5  5 18  0 29.9980000  0  8 26  2 24  4  9  7 27 15            -0.001505535
  -7368207.811 9  -5725521.44247  22869179.488    22869180.8434   22869186.8904
     -1534.575       -1195.773
  -2237215.214 9  -1736908.73148  21104624.605    21104625.2754   21104630.9924
      -717.549        -559.129
   -762654.595 8   -565276.97245  24413948.032    24413950.4294   24413960.0234
      3986.786        3106.586
 -17299034.255 9 -12661643.21147  22222591.210    22222593.0024   22222599.9644
      3616.296        2817.893
  -9111433.731 9  -7084401.28947  22521130.877    22521131.8974   22521137.4754
      3270.853        2548.717
 -14873853.045 9 -11572816.09248  19925367.992    19925368.6854   19925374.2984
      -516.981        -402.842
  12245796.112 9   9546655.92846  22741719.235    22741720.2844   22741727.8164
     -3281.539       -2557.043
  -1205697.641 8   -930945.44245  24447077.356    24447078.4604   24447086.1184
     -2423.395       -1888.360
 97  5  5 18  0 59.9980000  0  8 26  2 24  4  9  7 27 15            -0.001512600
  -7321986.237 9  -5689504.69147  22877975.224    22877976.5234   22877982.6534
     -1546.686       -1205.210
  -2215570.379 9  -1720042.65448  21108743.434    21108744.1684   21108749.8844
      -725.326        -565.189
   -882286.453 8   -658496.56445  24391183.831    24391185.1044   24391194.8484
      3988.558        3107.967
 -17407395.683 9 -12746080.62547  22201970.811    22201972.4714   22201979.4334
      3607.932        2811.376
  -9209408.598 9  -7160745.32147  22502486.982    22502487.8684   22502493.4504
      3260.856        2540.927
 -14858170.529 9 -11560595.95548  19928352.241    19928352.9734   19928358.5504
      -528.374        -411.720
  12344356.639 9   9623456.24146  22760474.585    22760475.8144   22760483.3994
     -3289.017       -2562.870
  -1132795.420 8   -874138.52945  24460950.406    24460951.2914   24460959.1074
     -2436.623       -1898.667
 97  5  5 18  1 29.9980000  0  7 26  2 24  4  9  7 27               -0.001519607
  -7275384.334 9  -5653191.57147  22886843.276    22886844.5464   22886850.8094
     -1558.688       -1214.562
  -2193667.907 9  -1702975.82048  21112911.394    21112912.1064   21112917.8354
      -733.421        -571.497
  -1001946.355 8   -751738.01645  24368413.655    24368414.6464   24368424.1254
      3989.946        3109.049
 -17515488.622 9 -12830308.83547  22181401.335    22181403.0284   22181409.9484
      3599.506        2804.810
  -9307068.730 9  -7236844.10247  22483902.791    22483903.7804   22483909.3594
      3251.252        2533.443
 -14842130.589 9 -11548097.30648  19931404.642    19931405.2784   19931410.8344
      -539.760        -420.592
  12443147.749 9   9700436.22046  22779274.097    22779275.1814   22779282.7504
     -3295.758       -2568.123
 97  5  5 18  1 59.9980000  0  7 26  2 24  4  9  7 27               -0.001526607
  -7228453.887 9  -5616622.43547  22895773.833    22895775.1364   22895781.4804
     -1569.660       -1223.112
  -2171565.067 9  -1685752.85648  21117117.533    21117118.1894   21117123.8884
      -739.695        -576.386
  -1121667.005 8   -845026.81545  24345631.574    24345632.5774   24345642.0074
      3991.524        3110.278
 -17623356.183 9 -12914361.42847  22160874.897    22160876.4744   22160883.3724
      3591.759        2798.773
  -9404471.776 9  -7312742.55447  22465367.621    22465368.5684   22465374.1314
      3242.477        2526.605
 -14825765.252 9 -11535345.10548  19934518.808    19934519.5354   19934525.0654
      -551.066        -429.402
  12542123.314 9   9777559.94046  22798108.799    22798109.6704   22798117.3474
     -3302.428       -2573.321
 97  5  5 18  2 29.9980000  0  7 26  2 24  4  9  7 27               -0.001533621
  -7181194.957 9  -5579797.35347  22904767.047    22904768.3214   22904774.7124
     -1581.132       -1232.051
  -2149276.243 9  -1668384.97548  21121358.961    21121359.6494   21121365.3544
      -746.736        -581.872
  -1241430.353 8   -938348.85645  24322841.827    24322842.3214   24322851.7974
      3992.437        3110.990
 -17730984.524 9 -12998227.62247  22140393.934    22140395.4764   22140402.2914
      3583.080        2792.010
  -9501613.373 9  -7388437.29447  22446882.273    22446883.0904   22446888.6584
      3233.449        2519.571
 -14809057.911 9 -11522326.41248  19937698.138    19937698.8624   19937704.3774
      -563.280        -438.919
  12641294.461 9   9854836.05346  22816980.608    22816981.3924   22816989.1064
     -3309.393       -2578.748
 97  5  5 18  2 59.9980000  0  7 26  2 24  4  9  7 27               -0.001540658
  -7133602.053 9  -5542712.01847  22913823.673    22913824.9554   22913831.4134
     -1592.311       -1240.762
  -2126774.823 9  -1650851.42648  21125640.814    21125641.5614   21125647.3024
      -754.079        -587.594
  -1361234.218 8  -1031702.50745  24300043.741    24300044.3884   24300053.8524
      3993.745        3112.009
 -17838358.181 9 -13081895.34147  22119961.213    22119962.9744   22119969.7354
      3574.565        2785.375
  -9598494.916 9  -7463929.38047  22428446.234    22428447.1154   22428452.7204
      3224.766        2512.805
 -14791980.470 9 -11509019.32248  19940947.973    19940948.6324   19940954.1814
      -575.867        -448.728
  12740672.616 9   9932273.48246  22835891.783    22835892.4784   22835900.2434
     -3316.578       -2584.346
 97  5  5 18  3 29.9980000  0  7 26  2 24  4  9  7 27               -0.001547726
  -7085679.126 9  -5505369.52947  22922943.235    22922944.4824   22922950.9184
     -1602.825       -1248.955
  -2104049.172 9  -1633143.15648  21129965.356    21129966.1214   21129971.8834
      -761.435        -593.326
  -1481069.306 8  -1125080.45645  24277240.068    24277240.5704   24277249.7774
      3994.852        3112.872
 -17945471.229 9 -13165360.00747  22099578.495    22099580.0244   22099586.6834
      3565.896        2778.620
  -9695122.997 9  -7539223.97647  22410058.689    22410059.3324   22410064.9284
      3216.701        2506.520
 -14774515.475 9 -11495410.24948  19944271.450    19944272.1054   19944277.6684
      -589.018        -458.975
  12840274.932 9  10009885.58846  22854845.435    22854846.3024   22854854.0994
     -3324.003       -2590.132
 97  5  5 18  3 59.9980000  0  7 26  2 24  4  9  7 27               -0.001554843
  -7037442.173 9  -5467782.34247  22932122.364    22932123.6724   22932130.1704
     -1612.856       -1256.771
  -2081093.081 9  -1615255.32348  21134333.793    21134334.5544   21134340.3144
      -768.898        -599.141
  -1600932.400 8  -1218480.25545  24254431.262    24254431.2724   24254440.5534
      3996.227        3113.943
 -18052319.130 9 -13248618.07747  22079245.823    22079247.5414   22079254.0834
      3557.536        2772.106
  -9791501.021 9  -7614323.71447  22391718.487    22391719.1984   22391724.7854
      3208.508        2500.136
 -14756644.462 9 -11481484.79848  19947672.212    19947672.8574   19947678.4214
      -602.081        -469.154
  12940109.769 9  10087678.87046  22873843.326    22873844.2784   22873852.1214
     -3331.466       -2595.948
 97  5  5 18  4 29.9980000  0  7 26  2 24  4  9  7 27               -0.001561984
  -6988891.289 9  -5429950.54247  22941361.456    22941362.6714   22941369.1154
     -1623.449       -1265.025
  -2057891.855 9  -1597176.47848  21138748.848    21138749.6294   21138755.4154
      -777.493        -605.839
  -1720834.775 8  -1311910.64445  24231614.386    24231614.7344   24231624.0804
      3997.433        3114.883
 -18158912.659 9 -13331677.90647  22058961.764    22058963.4674   22058969.9724
      3549.031        2765.479
  -9887609.934 9  -7689213.75548  22373429.397    22373430.3064   22373435.9334
      3199.019        2492.742
 -14738377.575 9 -11467250.87048  19951148.248    19951148.8964   19951154.4814
      -615.304        -479.458
  13040166.432 9  10165644.99246  22892883.914    22892884.5194   22892892.4264
     -3338.769       -2601.638
 97  5  5 18  4 59.9980000  0  7 26  2 24  4  9  7 27               -0.001569125
  -6940030.971 9  -5391877.62147  22950659.332    22950660.5064   22950666.8904
     -1633.914       -1273.180
  -2034435.349 9  -1578898.71348  21143212.414    21143213.2404   21143219.0494
      -786.349        -612.739
  -1840767.951 8  -1405365.04245  24208791.310    24208792.2404   24208801.5514
      3997.689        3115.082
 -18265249.494 9 -13414537.71647  22038726.655    22038728.1844   22038734.6974
      3539.941        2758.396
  -9983429.982 9  -7763878.70648  22355195.433    22355196.3784   22355202.0164
      3188.774        2484.759
 -14719723.951 9 -11452715.59448  19954697.760    19954698.5074   19954704.1384
      -628.165        -489.479
  13140445.788 9  10243784.64346  22911966.559    22911967.1194   22911975.0004
     -3346.674       -2607.798
 97  5  5 18  5 29.9980000  0  7 26  2 24  4  9  7 27               -0.001576241
  -6890869.470 9  -5353570.01547  22960014.482    22960015.6484   22960022.0724
     -1644.310       -1281.281
  -2010719.819 9  -1560419.11048  21147725.278    21147726.1744   21147731.9964
      -795.283        -619.701
  -1960716.017 8  -1498831.02845  24185965.832    24185966.9564   24185976.2094
      3997.961        3115.294
 -18371318.890 9 -13497189.12647  22018542.139    22018543.8004   22018550.3074
      3530.685        2751.183
 -10078944.644 9  -7838305.69648  22337019.702    22337020.5384   22337026.2344
      3178.092        2476.435
 -14700702.575 9 -11437893.75548  19958317.439    19958318.1544   19958323.8204
      -640.563        -499.140
  13240949.516 9  10322099.13346  22931091.282    22931092.3774   22931100.2734
     -3354.178       -2613.645
 97  5  5 18  5 59.9980000  0  7 26  2 24  4  9  7 27               -0.001583303
  -6841383.692 9  -5315009.72447  22969431.291    22969432.5084   22969438.9044
     -1655.203       -1289.769
  -1986735.192 9  -1541729.82348  21152289.459    21152290.2634   21152296.1554
      -803.891        -626.409
  -2080664.242 8  -1592297.20645  24163140.395    24163141.6014   24163150.9124
      3998.144        3115.437
 -18477101.233 9 -13579616.87147  21998412.507    21998414.0584   21998420.5984
      3521.039        2743.667
 -10174122.676 9  -7912470.37447  22318907.852    22318908.7174   22318914.4504
      3166.844        2467.671
 -14681315.063 9 -11422786.62148  19962006.722    19962007.4874   19962013.1294
      -652.251        -508.248
  13341682.002 9  10400591.87846  22950260.114    22950261.1844   22950269.0584
     -3361.640       -2619.460
 97  5  5 18  6 29.9980000  0  7 26  2 24  4  9  7 27               -0.001590308
  -6791566.052 9  -5276190.84347  22978911.314    22978912.5154   22978918.9094
     -1665.754       -1297.990
  -1962492.467 9  -1522839.42148  21156902.694    21156903.5054   21156909.4184
      -812.097        -632.803
  -2200615.575 8  -1685765.76545  24140314.054    24140315.6174   24140324.7794
      3998.434        3115.663
 -18582580.482 9 -13661808.43947  21978340.454    21978341.9624   21978348.5004
      3510.912        2735.776
 -10268961.082 9  -7986370.40947  22300860.764    22300861.5194   22300867.2694
      3156.007        2459.226
 -14661577.762 9 -11407406.91848  19965762.674    19965763.4274   19965769.0154
      -663.480        -516.997
  13442639.606 9  10479260.03246  22969472.077    22969472.9264   22969480.7814
     -3368.748       -2624.998
 97  5  5 18  6 59.9980000  0  7 26  2 24  4  9  7 27               -0.001597263
  -6741422.823 9  -5237118.26247  22988453.433    22988454.5314   22988460.8334
     -1676.809       -1306.604
  -1937992.604 9  -1503748.65348  21161564.968    21161565.7294   21161571.6504
      -820.941        -639.694
  -2320566.339 8  -1779233.86845  24117488.145    24117489.9114   24117498.8914
      3998.564        3115.764
 -18687740.788 9 -13743751.47347  21958329.019    21958330.5674   21958337.0754
      3500.011        2727.281
 -10363474.591 9  -8060017.27948  22282875.534    22282876.1664   22282881.9264
      3145.204        2450.808
 -14641493.420 9 -11391756.79148  19969584.642    19969585.3934   19969590.9594
      -675.242        -526.163
  13543828.816 9  10558108.66246  22988728.069    22988728.6704   22988736.5424
     -3376.823       -2631.291
 97  5  5 18  7 29.9980000  0  7 26  2 24  4  9  7 27               -0.001604203
  -6690987.837 9  -5197818.32147  22998050.952    22998052.0474   22998058.3704
     -1686.842       -1314.422
  -1913270.279 9  -1484484.53348  21166269.463    21166270.3014   21166276.1974
      -828.497        -645.582
  -2440568.910 8  -1872742.39545  24094651.971    24094654.0214   24094663.2094
      4000.147        3116.998
 -18792610.110 9 -13825467.77247  21938372.981    21938374.5574   21938381.0654
      3489.956        2719.446
 -10457701.773 9  -8133441.04348  22264944.451    22264945.3374   22264951.1064
      3135.356        2443.135
 -14621090.698 9 -11375858.57848  19973467.151    19973467.9184   19973473.4734
      -686.328        -534.801
  13645216.134 9  10637111.66046  23008021.577    23008022.1684   23008029.9314
     -3383.686       -2636.638
 97  5  5 18  7 59.9980000  0  7 26  2 24  4  9  7 27               -0.001611124
  -6640248.239 9  -5158281.04147  23007706.343    23007707.4884   23007713.8484
     -1696.005       -1321.562
  -1888310.521 9  -1465035.40148  21171019.269    21171019.9674   21171025.9194
      -835.720        -651.210
  -2560603.978 8  -1966276.21145  24071810.462    24071811.9314   24071820.9874
      4001.857        3118.330
 -18897162.268 9 -13906936.93147  21918477.370    21918478.8814   21918485.3594
      3480.029        2711.711
 -10551629.463 9  -8206631.41848  22247070.649    22247071.4334   22247077.2594
      3126.225        2436.019
 -14600347.416 9 -11359694.99548  19977414.510    19977415.2584   19977420.8214
      -696.783        -542.948
  13746826.509 9  10716288.45146  23027357.542    23027358.1874   23027365.7534
     -3390.506       -2641.953
 97  5  5 18  8 29.9980000  0  7 26  2 24  4  9  7 27               -0.001618036
  -6589226.018 9  -5118523.52347  23017415.375    23017416.6904   23017423.1754
     -1705.151       -1328.689
  -1863123.717 9  -1445409.35348  21175812.134    21175812.8584   21175818.8474
      -843.253        -657.080
  -2680684.823 8  -2059845.69245  24048959.862    24048961.1474   24048970.3484
      4003.409        3119.539
 -19001415.108 9 -13988172.86047  21898638.549    21898640.2134   21898646.6894
      3470.385        2704.196
 -10645276.769 9  -8279603.32148  22229249.867    22229250.9124   22229256.7924
      3116.907        2428.759
 -14579282.332 9 -11343280.65648  19981423.126    19981423.8294   19981429.3874
      -707.407        -551.226
  13848643.798 9  10795626.48146  23046732.941    23046733.4204   23046741.0834
     -3397.015       -2647.025
 97  5  5 18  8 59.9980000  0  7 26  2 24  4  9  7 27               -0.001624940
  -6537943.998 9  -5078563.56847  23027174.301    23027175.4524   23027181.9644
     -1714.133       -1335.688
  -1837718.300 9  -1425612.95748  21180646.769    21180647.4144   21180653.3914
      -850.892        -663.033
  -2800811.450 8  -2153450.83545  24026100.097    24026101.6914   24026111.0854
      4004.262        3120.204
 -19105385.276 9 -14069188.51947  21878853.618    21878855.2974   21878861.7874
      3460.402        2696.417
 -10738634.598 9  -8352349.66447  22211484.561    22211485.5124   22211491.3404
      3106.334        2420.520
 -14557900.795 9 -11326619.72648  19985491.939    19985492.6554   19985498.1734
      -718.508        -559.876
  13950648.741 9  10875110.72046  23066143.770    23066144.4134   23066152.0374
     -3403.815       -2652.323
 97  5  5 18  9 29.9980000  0  7 26  2 24  4  9  7 27               -0.001631802
  -6486379.363 9  -5038383.39447  23036986.500    23036987.8044   23036994.4024
     -1723.540       -1343.018
  -1812074.988 9  -1405631.18148  21185526.631    21185527.2194   21185533.1874
      -858.642        -669.072
  -2920940.431 8  -2247057.80645  24003240.513    24003241.7614   24003251.1654
      4004.111        3120.086
 -19209042.051 9 -14149959.97947  21859128.451    21859130.0834   21859136.5664
      3450.248        2688.505
 -10831663.554 9  -8424839.75147  22193781.834    22193782.6964   22193788.4624
      3095.708        2412.240
 -14536179.408 9 -11309693.98048  19989625.500    19989626.1574   19989631.6454
      -729.574        -568.499
  14052858.490 9  10954754.56546  23085593.720    23085594.3934   23085602.0404
     -3410.209       -2657.306
 97  5  5 18  9 59.9980000  0  7 26  2 24  4  9  7 27               -0.001638676
  -6434511.132 9  -4997966.64747  23046856.921    23046858.0634   23046864.6474
     -1733.779       -1350.997
  -1786181.486 9  -1385454.45148  21190454.077    21190454.5974   21190460.5904
      -867.037        -675.613
  -3041047.033 8  -2340647.34645  23980384.378    23980386.2324   23980395.6994
      4003.500        3119.610
 -19312392.863 9 -14230493.02247  21839461.584    21839463.0644   21839469.4744
      3440.375        2680.812
 -10924361.352 9  -8497071.77847  22176141.804    22176142.8484   22176148.6144
      3084.578        2403.567
 -14514106.495 9 -11292494.32148  19993825.870    19993826.5244   19993831.9784
      -741.525        -577.812
  14155270.026 9  11034555.62546  23105081.907    23105082.6934   23105090.4214
     -3416.622       -2662.303
 97  5  5 18 10 29.9980000  0  7 26  2 24  4  9  7 27               -0.001645551
  -6382352.449 9  -4957323.58247  23056782.250    23056783.5144   23056790.1874
     -1742.620       -1357.886
  -1760051.234 9  -1365093.24748  21195426.306    21195427.0274   21195433.0594
      -874.408        -681.357
  -3161157.223 8  -2434239.69745  23957528.410    23957530.0234   23957539.5474
      4004.276        3120.215
 -19415472.361 9 -14310814.66847  21819846.255    21819847.6874   21819854.0464
      3431.983        2674.272
 -11016742.806 9  -8569057.30548  22158562.309    22158563.2224   22158569.0204
      3074.637        2395.821
 -14491683.451 9 -11275021.82748  19998092.893    19998093.4804   19998098.8774
      -752.788        -586.588
  14257847.259 9  11114485.80046  23124601.450    23124602.5404   23124610.3424
     -3421.542       -2666.137
 97  5  5 18 10 59.9980000  0  7 26  2 24  4  9  7 27               -0.001652434
  -6329938.783 9  -4916481.81647  23066756.364    23066757.6254   23066764.2694
     -1752.384       -1365.494
  -1733701.734 9  -1344561.18548  21200440.600    21200441.1954   21200447.2534
      -882.871        -687.951
  -3281285.535 9  -2527846.14146  23934668.508    23934670.4954   23934679.9564
      4003.614        3119.699
 -19518302.199 9 -14390941.76347  21800278.380    21800279.8064   21800286.1484
      3422.641        2666.993
 -11108827.694 9  -8640811.74548  22141039.089    22141040.0284   22141045.8284
      3063.929        2387.477
 -14468927.320 9 -11257289.78548  20002423.237    20002423.8154   20002429.1744
      -764.654        -595.834
  14360582.548 9  11194539.13946  23144151.608    23144152.5484   23144160.3544
     -3428.141       -2671.279
 97  5  5 18 11 29.9980000  0  7 26  2 24  4  9  7 27               -0.001659307
  -6277225.984 9  -4875406.96547  23076787.233    23076788.5874   23076795.2554
     -1761.724       -1372.772
  -1707096.845 9  -1323830.13048  21205503.404    21205503.9624   21205510.0594
      -890.737        -694.081
  -3401403.298 9  -2621444.38545  23911810.813    23911812.8614   23911822.2044
      4004.162        3120.126
 -19620856.413 9 -14470854.09547  21780762.877    21780764.3564   21780770.6564
      3414.323        2660.511
 -11200613.592 9  -8712333.19548  22123572.751    22123573.7324   22123579.5504
      3055.120        2380.613
 -14445827.235 9 -11239289.73148  20006819.032    20006819.6164   20006824.9684
      -775.352        -604.170
  14463512.424 9  11274744.10546  23163738.679    23163739.5994   23163747.4274
     -3433.870       -2675.743
 97  5  5 18 11 59.9980000  0  7 26  2 24  4  9  7 27               -0.001666173
  -6224232.578 9  -4834113.46447  23086871.688    23086872.9554   23086879.6084
     -1770.663       -1379.737
  -1680241.924 9  -1302904.24148  21210613.626    21210614.2934   21210620.3994
      -899.316        -700.766
  -3521525.088 8  -2715045.74045  23888953.094    23888954.4514   23888963.9184
      4004.087        3120.068
 -19723146.609 9 -14550560.69447  21761297.724    21761299.1184   21761305.4314
      3404.939        2653.199
 -11292118.247 9  -8783635.50248  22106159.947    22106160.9254   22106166.7434
      3045.300        2372.961
 -14422393.639 9 -11221029.79348  20011278.240    20011278.8614   20011284.2424
      -786.664        -612.985
  14566630.693 9  11355095.85046  23183361.688    23183362.4614   23183370.3094
     -3440.506       -2680.914
 97  5  5 18 12 29.9980000  0  7 26  2 24  4  9  7 27               -0.001673012
  -6170970.371 9  -4792610.51047  23097007.118    23097008.4464   23097015.1134
     -1779.303       -1386.470
  -1653121.025 9  -1281771.09248  21215774.621    21215775.1914   21215781.3864
      -907.790        -707.369
  -3641631.024 8  -2808634.76345  23866098.138    23866099.0164   23866108.5524
      4003.652        3119.729
 -19825122.885 9 -14630022.67947  21741892.177    21741893.6324   21741899.9524
      3394.102        2644.755
 -11383310.955 9  -8854694.74948  22088806.676    22088807.5704   22088813.3044
      3034.944        2364.891
 -14398621.308 9 -11202505.90848  20015801.990    20015802.5894   20015807.9784
      -797.168        -621.170
  14669962.925 9  11435614.33446  23203025.373    23203026.0484   23203033.9714
     -3447.472       -2686.342
 97  5  5 18 12 59.9980000  0  7 26  2 24  4  9  7 27               -0.001679819
  -6117441.162 9  -4750899.49747  23107193.531    23107194.8114   23107201.4444
     -1789.096       -1394.101
  -1625751.438 9  -1260444.16748  21220982.948    21220983.4814   21220989.7184
      -916.512        -714.165
  -3761718.909 8  -2902209.71245  23843246.481    23843246.9744   23843256.5924
      4002.627        3118.930
 -19926761.258 9 -14709221.36447  21722550.985    21722552.4074   21722558.7874
      3382.097        2635.400
 -11474186.089 9  -8925506.53748  22071513.698    22071514.6104   22071520.2884
      3023.760        2356.177
 -14374545.686 9 -11183745.69248  20020383.409    20020384.0274   20020389.4364
      -807.582        -629.285
  14773494.359 9  11516288.01146  23222726.704    23222727.5634   23222735.4934
     -3454.047       -2691.465
 97  5  5 18 13 29.9980000  0  7 26  2 24  4  9  7 27               -0.001686609
  -6063624.374 9  -4708964.38347  23117434.516    23117435.8574   23117442.4894
     -1797.822       -1400.900
  -1598129.721 9  -1238920.77248  21226239.281    21226239.7134   21226245.9914
      -924.252        -720.196
  -3881793.899 8  -2995774.63245  23820397.518    23820397.6164   23820407.0334
      4002.841        3119.097
 -20028039.069 9 -14788139.10147  21703278.386    21703279.8354   21703286.2024
      3370.457        2626.330
 -11564728.502 9  -8996059.04248  22054283.986    22054284.9224   22054290.5784
      3012.788        2347.627
 -14350155.294 9 -11164740.20548  20025024.623    20025025.3194   20025030.7334
      -817.972        -637.381
  14877202.275 9  11597099.20046  23242461.650    23242462.5834   23242470.6554
     -3459.110       -2695.410
 97  5  5 18 13 59.9980000  0  7 26  2 24  4  9  7 27               -0.001693406
  -6009551.658 9  -4666829.85947  23127724.308    23127725.6274   23127732.1354
     -1806.568       -1407.715
  -1570276.804 9  -1217217.22248  21231539.281    21231539.9604   21231546.2644
      -932.135        -726.339
  -4001874.735 8  -3089344.05545  23797546.806    23797546.9254   23797556.3084
      4002.943        3119.176
 -20128964.468 9 -14866782.21947  21684072.770    21684074.3374   21684080.6974
      3358.371        2616.912
 -11654919.318 9  -9066337.58348  22037121.179    22037122.1404   22037127.8464
      3000.407        2337.979
 -14325443.228 9 -11145484.05848  20029727.138    20029727.8524   20029733.2714
      -829.070        -646.029
  14981055.317 9  11678023.47446  23262224.382    23262225.2844   23262233.4324
     -3463.868       -2699.118
 97  5  5 18 14 29.9980000  0  7 26  2 24  4  9  7 27               -0.001700204
  -5955185.611 9  -4624466.77647  23138069.948    23138071.1574   23138077.6784
     -1816.997       -1415.842
  -1542173.460 9  -1195318.53648  21236887.043    21236887.8534   21236894.1814
      -940.475        -732.838
  -4121941.454 8  -3182902.50146  23774698.841    23774699.1284   23774708.4154
      4002.277        3118.657
 -20229508.281 9 -14945128.00447  21664939.952    21664941.4294   21664947.8304
      3345.695        2607.035
 -11744722.783 9  -9136314.29848  22020032.339    22020033.0694   22020038.8244
      2987.499        2327.921
 -14300380.429 9 -11125954.61748  20034496.418    20034497.1494   20034502.5644
      -840.794        -655.164
  15085059.060 9  11759065.21646  23282015.868    23282016.7474   23282024.8934
     -3468.889       -2703.030
 97  5  5 18 14 59.9980000  0  7 26  2 24  4  9  7 27               -0.001707028
  -5900530.810 9  -4581878.67447  23148470.368    23148471.6374   23148478.1234
     -1826.983       -1423.623
  -1513842.282 9  -1173242.31748  21242278.286    21242279.1014   21242285.4484
      -948.858        -739.370
  -4242012.490 8  -3276464.32845  23751849.663    23751850.4684   23751859.7274
      4001.716        3118.220
 -20329714.959 9 -15023211.08847  21645871.210    21645872.6944   21645879.1424
      3334.311        2598.164
 -11834171.298 9  -9206014.42048  22003010.715    22003011.5794   22003017.3614
      2975.391        2318.486
 -14274981.011 9 -11106162.87348  20039329.791    20039330.4834   20039335.9154
      -853.088        -664.744
  15189189.493 9  11840205.65846  23301830.992    23301832.1074   23301840.4664
     -3473.840       -2706.888
 97  5  5 18 15 29.9980000  0  7 26  2 24  4  9  7 27               -0.001713870
  -5845592.648 9  -4539069.77047  23158924.963    23158926.1504   23158932.4894
     -1835.346       -1430.140
  -1485264.512 9  -1150973.95548  21247716.692    21247717.3234   21247723.6284
      -956.173        -745.070
  -4362062.011 8  -3370009.33745  23729004.682    23729005.7384   23729015.1354
      4001.502        3118.053
 -20429596.499 9 -15101040.81247  21626864.311    21626865.8094   21626872.2754
      3324.649        2590.636
 -11923268.526 9  -9275440.81848  21986056.053    21986056.9114   21986062.6804
      2964.714        2310.167
 -14249212.225 9 -11086083.31248  20044233.410    20044234.1394   20044239.5584
      -864.685        -673.781
  15293480.192 9  11921470.99546  23321676.647    23321678.0394   23321686.4174
     -3478.842       -2710.786
 97  5  5 18 15 59.9980000  0  7 26  2 24  4  9  7 27               -0.001720726
  -5790387.073 9  -4496052.50347  23169430.319    23169431.4454   23169437.8094
     -1844.437       -1437.224
  -1456444.248 9  -1128516.62648  21253200.874    21253201.6644   21253207.9844
      -964.615        -751.648
  -4482076.474 8  -3463527.03945  23706166.634    23706167.6494   23706177.0484
      3999.831        3116.751
 -20529167.196 9 -15178628.32847  21607916.631    21607918.1064   21607924.6074
      3313.975        2582.318
 -12012038.389 9  -9344612.13348  21969163.651    21969164.5644   21969170.3454
      2953.993        2301.813
 -14223084.162 9 -11065723.79348  20049205.524    20049206.1914   20049211.5784
      -876.441        -682.941
  15397947.623 9  12002874.05746  23341556.480    23341557.5314   23341566.1224
     -3485.218       -2715.754
 97  5  5 18 16 29.9980000  0  7 26  2 24  4  9  7 27               -0.001727592
  -5734939.332 9  -4452846.52147  23179981.607    23179982.8094   23179989.1604
     -1852.353       -1443.392
  -1427394.112 9  -1105880.18448  21258729.040    21258729.7664   21258736.0224
      -972.558        -757.837
  -4602053.094 9  -3557015.27446  23683335.776    23683336.7174   23683346.2844
      3998.066        3115.376
 -20628438.989 9 -15255982.92947  21589025.705    21589027.2954   21589033.7854
      3303.793        2574.384
 -12100519.138 9  -9413558.14948  21952326.304    21952327.1784   21952333.0474
      2944.244        2294.216
 -14196636.336 9 -11045115.10748  20054238.438    20054239.0774   20054244.4304
      -887.087        -691.237
  15502593.234 9  12084415.96546  23361470.039    23361471.0204   23361479.6544
     -3491.594       -2720.723
 97  5  5 18 16 59.9980000  0  7 26  2 24  4  9  7 27               -0.001734442
  -5679265.009 9  -4409463.99247  23190576.150    23190577.2704   23190583.6184
     -1859.350       -1448.844
  -1398095.498 9  -1083050.12048  21264304.286    21264305.1184   21264311.3594
      -980.824        -764.278
  -4721970.094 8  -3650457.02246  23660515.983    23660517.2324   23660526.8334
      3996.179        3113.906
 -20727400.545 9 -15333095.78547  21570194.091    21570195.5114   21570201.9794
      3293.315        2566.219
 -12188694.951 9  -9482266.55248  21935547.053    21935547.8114   21935553.7644
      2933.929        2286.178
 -14169864.051 9 -11024253.59448  20059333.053    20059333.7354   20059339.0754
      -897.764        -699.556
  15607437.816 9  12166112.90246  23381421.493    23381422.3364   23381430.8914
     -3498.096       -2725.789
 97  5  5 18 17 29.9980000  0  7 26  2 24  4  9  7 27               -0.001741262
  -5623378.229 9  -4365915.88947  23201211.058    23201212.2014   23201218.5314
     -1867.025       -1454.825
  -1368542.188 9  -1060021.59048  21269928.100    21269928.9454   21269935.1904
      -989.707        -771.200
  -4841827.393 9  -3743852.22746  23637707.665    23637709.0464   23637718.6494
      3993.983        3112.195
 -20826035.330 9 -15409954.01248  21551424.512    21551425.9494   21551432.3894
      3281.817        2557.260
 -12276549.999 9  -9550725.01948  21918828.733    21918829.5344   21918835.4614
      2922.578        2277.334
 -14142782.205 9 -11003150.86748  20064486.593    20064487.2604   20064492.5784
      -908.089        -707.602
  15712473.312 8  12247958.58946  23401409.106    23401409.9204   23401418.6604
     -3504.497       -2730.777
 97  5  5 18 17 59.9980000  0  7 26  2 24  4  9  7 27               -0.001748047
  -5567270.719 9  -4322195.81447  23211888.090    23211889.2144   23211895.5194
     -1873.722       -1460.043
  -1338728.552 9  -1036790.20748  21275601.448    21275602.3214   21275608.5684
      -998.148        -777.778
  -4961638.798 9  -3837211.65846  23614908.457    23614909.7544   23614919.2484
      3993.052        3111.469
 -20924324.391 9 -15486542.85048  21532720.665    21532722.1814   21532728.5874
      3270.458        2548.409
 -12364068.171 9  -9618920.99748  21902174.371    21902175.3804   21902181.3184
      2911.451        2268.663
 -14115412.225 9 -10981823.62148  20069694.953    20069695.6044   20069700.9394
      -916.881        -714.453
  15817676.771 9  12329935.15246  23421428.220    23421429.6374   23421438.4144
     -3509.233       -2734.467
 97  5  5 18 18 29.9980000  0  7 26  2 24  4  9  7 27               -0.001754789
  -5510947.824 9  -4278307.89747  23222606.029    23222607.1324   23222613.5054
     -1881.479       -1466.088
  -1308650.359 9  -1013352.68448  21281325.236    21281326.0414   21281332.2844
     -1007.231        -784.855
  -5081412.742 9  -3930541.89446  23592116.106    23592117.4964   23592127.1454
      3991.693        3110.410
 -21022256.157 9 -15562853.26648  21514085.044    21514086.4424   21514092.7684
      3258.095        2538.775
 -12451224.612 9  -9686835.08848  21885588.972    21885590.0134   21885595.9764
      2898.748        2258.765
 -14087759.351 9 -10960275.94248  20074957.082    20074957.7754   20074963.1304
      -926.995        -722.334
  15923029.479 9  12412027.99546  23441476.245    23441477.6394   23441486.4514
     -3514.426       -2738.514
 97  5  5 18 18 59.9980000  0  7 26  2 24  4  9  7 27               -0.001761505
  -5454392.180 9  -4234238.62147  23233368.272    23233369.4004   23233375.7814
     -1889.248       -1472.141
  -1278310.520 9   -989711.27648  21287098.844    21287099.5534   21287105.7774
     -1015.493        -791.293
  -5201162.776 9  -4023853.51346  23569328.401    23569329.7454   23569339.3494
      3991.309        3110.111
 -21119823.883 9 -15638880.02148  21495518.567    21495519.9324   21495526.1914
      3246.208        2529.513
 -12538010.873 9  -9754460.74048  21869074.110    21869075.1684   21869081.0854
      2886.811        2249.463
 -14059809.226 9 -10938496.63748  20080275.774    20080276.4964   20080281.8494
      -936.557        -729.785
  16028526.057 9  12494232.94146  23461552.129    23461553.1614   23461561.8824
     -3518.915       -2742.012
 97  5  5 18 19 29.9980000  0  7 26  2 24  4  9  7 27               -0.001768210
  -5397586.782 9  -4189974.72647  23244177.970    23244179.1374   23244185.6234
     -1897.648       -1478.687
  -1247725.444 9   -965878.77548  21292918.983    21292919.7394   21292925.9754
     -1023.350        -797.416
  -5320903.480 9  -4117157.85046  23546542.167    23546543.6854   23546553.2524
      3991.351        3110.144
 -21217039.229 9 -15714632.18948  21477019.046    21477020.4674   21477026.6984
      3234.849        2520.662
 -12624441.805 9  -9821809.50648  21852627.035    21852627.9344   21852633.7974
      2875.337        2240.522
 -14031573.735 9 -10916494.97448  20085648.857    20085649.5374   20085654.9094
      -945.906        -737.070
  16134154.713 9  12576540.78446  23481653.114    23481653.7934   23481662.5294
     -3522.860       -2745.086
 97  5  5 18 19 59.9980000  0  7 26  2 24  4  9  7 27               -0.001774921
  -5340533.165 9  -4145517.40747  23255034.892    23255036.1164   23255042.6954
     -1905.492       -1484.799
  -1216902.965 9   -941861.27948  21298784.363    21298785.1394   21298791.3414
     -1031.185        -803.521
  -5440640.146 9  -4210459.01546  23523757.097    23523758.4354   23523768.0794
      3991.006        3109.875
 -21313906.141 9 -15790112.84448  21458585.775    21458587.2624   21458593.4714
      3223.336        2511.690
 -12710526.084 9  -9888888.13948  21836245.632    21836246.5744   21836252.5084
      2863.858        2231.578
 -14003048.485 9 -10894267.51448  20091077.015    20091077.6924   20091083.1444
      -955.512        -744.555
  16239908.057 9  12658945.80446  23501777.349    23501778.1704   23501786.9284
     -3527.100       -2748.390
 97  5  5 18 20 29.9980000  0  8 26  2 24  4  9  7 27  5            -0.001781645
  -5283251.514 9  -4100882.39947  23265935.124    23265936.4234   23265943.1694
     -1912.887       -1490.561
  -1185864.135 9   -917675.20348  21304690.971    21304691.7014   21304697.8784
     -1037.590        -808.512
  -5560374.884 9  -4303758.66746  23500972.025    23500973.6214   23500983.2454
      3991.492        3110.254
 -21410449.246 9 -15865341.18848  21440214.095    21440215.6564   21440221.8244
      3213.282        2503.856
 -12796274.860 9  -9955705.34348  21819928.050    21819929.0964   21819935.0994
      2853.257        2223.317
 -13974235.989 9 -10871816.23748  20096559.870    20096560.5534   20096566.0374
      -964.781        -751.777
  16345780.670 9  12741443.75346  23521924.198    23521925.2654   23521934.0614
     -3530.649       -2751.155
   -258289.40518   -180677.85955  24529947.571           0.0005   24529955.3705
      3124.001        2434.286
 97  5  5 18 20 59.9980000  0  8 26  2 24  4  9  7 27  5            -0.001788379
  -5225735.930 9  -4056065.12747  23276880.216    23276881.3654   23276888.0784
     -1921.094       -1496.956
  -1154618.186 9   -893327.73148  21310636.922    21310637.6154   21310643.8404
     -1045.247        -814.478
  -5680102.997 9  -4397053.17146  23478189.069    23478190.0574   23478199.5974
      3990.335        3109.352
 -21506681.378 9 -15940327.21248  21421901.731    21421903.2324   21421909.3494
      3202.374        2495.356
 -12881694.835 9 -10022266.35848  21803673.248    21803674.2954   21803680.2074
      2841.538        2214.185
 -13945144.519 9 -10849147.57048  20102095.757    20102096.5004   20102102.0404
      -974.378        -759.255
  16451769.332 9  12824032.14346  23542093.218    23542094.4234   23542103.1254
     -3534.997       -2754.543
   -352014.244 9   -253710.15845  24512111.651    24512111.1495   24512119.7304
      3124.616        2434.766
 97  5  5 18 21 29.9980000  0  8 26  2 24  4  9  7 27  5            -0.001795109
  -5167996.836 9  -4011073.68247  23287867.466    23287868.6784   23287875.5674
     -1927.802       -1502.183
  -1123151.094 9   -868807.94648  21316625.007    21316625.6444   21316631.8654
     -1052.454        -820.094
  -5799801.323 9  -4490324.45246  23455411.459    23455412.1404   23455421.5644
      3989.473        3108.680
 -21602590.366 9 -16015061.44348  21403650.695    21403652.3044   21403658.3474
      3191.596        2486.958
 -12966770.715 9 -10088559.23848  21787483.907    21787484.9104   21787490.8004
      2830.360        2205.475
 -13915780.746 9 -10826266.72448  20107683.508    20107684.2294   20107689.8104
      -983.123        -766.070
  16557861.239 9  12906700.96146  23562282.001    23562283.2054   23562291.8784
     -3537.790       -2756.719
   -445773.357 9   -326769.16656  24494269.445    24494270.5415   24494278.7275
      3126.073        2435.901
 97  5  5 18 21 59.9980000  0  8 26  2 24  4  9  7 27  5            -0.001801835
  -5110054.985 9  -3965924.26047  23298893.562    23298894.7374   23298901.6474
     -1934.482       -1507.389
  -1091454.678 9   -844109.46748  21322656.715    21322657.2854   21322663.4964
     -1060.171        -826.107
  -5919450.031 9  -4583557.05946  23432642.968    23432643.6194   23432653.1554
      3987.274        3106.967
 -21698157.476 9 -16089529.26848  21385464.885    21385466.4704   21385472.4444
      3179.988        2477.913
 -13051492.265 9 -10154576.01148  21771361.784    21771362.8714   21771368.8264
      2818.081        2195.907
 -13886136.759 9 -10803167.52648  20113324.611    20113325.3154   20113330.8894
      -992.642        -773.487
  16664060.772 9  12989453.66146  23582491.387    23582492.5094   23582501.1604
     -3541.701       -2759.767
   -539554.137 9   -399845.05346  24476423.580    24476424.7314   24476432.7744
      3126.393        2436.150
 97  5  5 18 22 29.9980000  0  8 26  2 24  4  9  7 27  5            -0.001808566
  -5051921.447 9  -3920625.46447  23309956.134    23309957.2614   23309964.1234
     -1940.731       -1512.258
  -1059542.197 9   -819242.63248  21328729.361    21328730.0384   21328736.2474
     -1067.072        -831.485
  -6039038.565 9  -4676742.78146  23409885.300    23409886.5164   23409896.0814
      3985.593        3105.657
 -21793380.935 9 -16163729.31348  21367344.490    21367346.0244   21367351.9554
      3168.377        2468.865
 -13135855.012 9 -10220313.20748  21755308.124    21755309.1944   21755315.1124
      2806.475        2186.864
 -13856218.184 9 -10779854.36748  20119017.944    20119018.6614   20119024.2164
     -1001.506        -780.394
  16770361.726 9  13072285.39246  23602719.804    23602721.0324   23602729.7254
     -3544.630       -2762.049
   -633356.593 9   -472937.82446  24458573.566    24458574.6334   24458582.6974
      3127.525        2437.032
 97  5  5 18 22 59.9980000  0  8 26  2 24  4  9  7 27  5            -0.001815319
  -4993608.160 9  -3875186.59947  23321052.711    23321053.9294   23321060.7224
     -1946.816       -1516.999
  -1027415.088 9   -794208.54048  21334842.975    21334843.6084   21334849.8134
     -1074.767        -837.481
  -6158574.781 9  -4769887.75346  23387138.090    23387139.3294   23387148.8784
      3983.405        3103.952
 -21888239.784 9 -16237645.25048  21349293.407    21349294.9424   21349300.8344
      3155.594        2458.904
 -13219871.802 9 -10285780.81748  21739320.327    21739321.3534   21739327.2124
      2794.589        2177.602
 -13826039.576 9 -10756338.58048  20124760.781    20124761.4744   20124766.9784
     -1010.516        -787.415
  16876744.804 8  13155181.09446  23622964.028    23622965.2154   23622973.8464
     -3547.589       -2764.355
   -727195.809 8   -546059.28945  24440716.509    24440717.5484   24440725.7844
      3128.362        2437.685
 97  5  5 18 23 29.9980000  0  8 26  2 24  4  9  7 27  5            -0.001822098
  -4935111.213 9  -3829604.62247  23332184.345    23332185.5444   23332192.4134
     -1952.874       -1521.720
   -995055.255 9   -768993.10848  21341000.826    21341001.4924   21341007.6764
     -1082.486        -843.495
  -6278047.276 9  -4862983.06946  23364402.983    23364404.4174   23364413.8474
      3981.441        3102.421
 -21982709.450 9 -16311257.91648  21331316.258    21331317.8684   21331323.8474
      3142.649        2448.817
 -13303532.470 9 -10350970.93348  21723400.201    21723401.2244   21723407.1324
      2782.789        2168.407
 -13795582.986 9 -10732606.18548  20130556.480    20130557.1424   20130562.6364
     -1019.910        -794.735
  16983221.975 9  13238150.11246  23643226.281    23643227.4264   23643235.9454
     -3550.974       -2766.993
   -821067.064 8   -619205.67345  24422853.363    24422854.3394   24422862.5654
      3129.779        2438.789
 97  5  5 18 23 59.9980000  0  8 26  2 24  4  9  7 27  5            -0.001828904
  -4876432.786 9  -3783881.22947  23343350.431    23343351.6934   23343358.6864
     -1959.405       -1526.809
   -962467.008 9   -743599.69148  21347202.125    21347202.8354   21347209.0374
     -1090.567        -849.792
  -6397471.833 9  -4956041.02346  23341677.164    23341678.6694   23341687.9444
      3979.620        3101.003
 -22076806.490 9 -16384580.23648  21313410.048    21313411.7314   21313417.7384
      3130.119        2439.054
 -13386836.049 9 -10415882.79248  21707547.909    21707549.0464   21707554.9724
      2770.428        2158.775
 -13764840.085 9 -10708650.69248  20136406.638    20136407.3344   20136412.8134
     -1029.690        -802.356
  17089800.805 8  13321198.35046  23663507.548    23663508.8404   23663517.4114
     -3554.619       -2769.833
   -914982.020 8   -692386.06245  24404982.339    24404982.9134   24404991.1594
      3131.012        2439.750
 97  5  5 18 24 29.9980000  0  8 26  2 24  4  9  7 27  5            -0.001835707
  -4817560.418 9  -3738006.72947  23354553.568    23354554.8254   23354561.7454
     -1965.200       -1531.325
   -929628.277 9   -718011.09748  21353451.251    21353451.8834   21353458.0674
     -1098.482        -855.960
  -6516849.014 9  -5049062.06046  23318960.677    23318961.8884   23318971.0664
      3979.004        3100.523
 -22170533.321 9 -16457614.07048  21295574.476    21295576.0514   21295582.0874
      3118.569        2430.054
 -13469776.624 9 -10480511.80048  21691764.844    21691765.9504   21691771.8614
      2759.226        2150.046
 -13733820.272 9 -10684479.42048  20142309.504    20142310.1714   20142315.7004
     -1038.020        -808.847
  17196482.481 9  13404326.68946  23683808.297    23683809.8244   23683818.4604
     -3557.286       -2771.911
  -1008947.115 8   -765605.55945  24387101.314    24387101.8534   24387110.2944
      3133.494        2441.684
 97  5  5 18 24 59.9980000  0  8 26  2 24  4  9  7 27  5            -0.001842500
  -4758503.396 9  -3691988.33447  23365791.897    23365793.0804   23365800.0034
     -1971.576       -1536.293
   -896536.795 9   -692225.55148  21359748.313    21359749.0244   21359755.1684
     -1107.290        -862.823
  -6636197.759 9  -5142060.94746  23296249.291    23296250.4644   23296259.6264
      3977.594        3099.424
 -22263909.493 9 -16530374.67048  21277805.527    21277807.1384   21277813.1974
      3106.860        2420.930
 -13552368.727 9 -10544869.27748  21676048.050    21676049.1944   21676055.0464
      2747.096        2140.594
 -13702543.151 9 -10660107.64948  20148261.289    20148261.9954   20148267.5454
     -1046.919        -815.781
  17303253.260 8  13487524.50545  23704126.401    23704127.8084   23704136.3844
     -3560.638       -2774.523
  -1102970.536 8   -838870.55645  24369209.570    24369209.8324   24369218.2434
      3135.032        2442.882
 97  5  5 18 25 29.9980000  0  8 26  2 24  4  9  7 27  5            -0.001849266
  -4699275.637 9  -3645836.88547  23377062.613    23377063.8034   23377070.7464
     -1977.198       -1540.674
   -863195.946 9   -666245.69148  21366092.884    21366093.6294   21366099.7584
     -1115.659        -869.345
  -6755511.882 9  -5235032.84446  23273544.599    23273545.7784   23273554.8964
      3976.234        3098.364
 -22356953.260 9 -16602876.25548  21260099.942    21260101.4844   21260107.5444
      3095.556        2412.122
 -13634599.963 9 -10608945.53948  21660399.855    21660401.0884   21660406.9514
      2734.607        2130.863
 -13671009.837 9 -10635536.25048  20154261.722    20154262.5924   20154268.1714
     -1055.578        -822.528
  17410114.612 8  13570792.87845  23724461.947    23724462.9854   23724471.3924
     -3563.852       -2777.028
  -1197058.383 8   -912185.75045  24351304.979    24351305.6274   24351313.7454
      3137.154        2444.535
 97  5  5 18 25 59.9980000  0  8 26  2 24  4  9  7 27  5            -0.001855995
  -4639880.132 9  -3599554.73447  23388365.294    23388366.4454   23388373.4344
     -1982.592       -1544.877
   -829602.295 9   -640068.85048  21372485.539    21372486.3184   21372492.4574
     -1123.972        -875.822
  -6874776.149 9  -5327965.89746  23250849.148    23250850.4434   23250859.5604
      3974.369        3096.911
 -22449647.809 9 -16675105.73648  21242460.746    21242462.2894   21242468.3314
      3083.854        2403.003
 -13716444.362 9 -10672720.38348  21644825.416    21644826.6614   21644832.4784
      2721.756        2120.849
 -13639217.562 9 -10610763.06848  20160311.644    20160312.4664   20160318.0754
     -1063.886        -829.002
  17517079.404 8  13654141.85445  23744816.783    23744817.8864   23744826.3544
     -3567.090       -2779.551
  -1291196.649 8   -985540.18645  24333390.997    24333391.7384   24333399.8574
      3138.404        2445.510
